<?xml version="1.0" encoding="UTF-8" standalone="no" ?>
<gpx xmlns="http://www.topografix.com/GPX/1/1" creator="CompeGPS" version="1.1" xmlns:xsi="http://www.w3.org/2001/XMLSchema-instance" xsi:schemaLocation="http://www.topografix.com/GPX/1/1 http://www.topografix.com/GPX/1/1/gpx.xsd http://www.garmin.com/xmlschemas/GpxExtensions/v3 http://www.garmin.com/xmlschemas/GpxExtensionsv3.xsd http://www.garmin.com/xmlschemas/TrackPointExtension/v1 http://www.garmin.com/xmlschemas/TrackPointExtensionv1.xsd" xmlns:gpxtpx="http://www.garmin.com/xmlschemas/TrackPointExtension/v1">
  <metadata>
    <link href="http://www.compegps.com">
      <text>CompeGPS TEAM, SL</text>
    </link>
    <time>2019-09-14T19:12:39Z</time>
    <bounds maxlat="42.848764" maxlon="-0.418089" minlat="42.813560" minlon="-0.438851"/>
  </metadata>
<wpt lat="42.814821" lon="-0.418089">
<ele>1725</ele>
<name>Parking</name>
</wpt>
<wpt lat="42.835524" lon="-0.426885">
<ele>2034</ele>
<name>Refuge</name>
</wpt>
<wpt lat="42.846996" lon="-0.423423">
<ele>2131</ele>
<name>Col Suzon</name>
</wpt>
<wpt lat="42.848727" lon="-0.431131">
<ele>2240</ele>
<name>Breche Moundelhs</name>
</wpt>
<wpt lat="42.848176" lon="-0.435515">
<ele>2250</ele>
<name>Breche Autrichiens</name>
</wpt>
<wpt lat="42.845950" lon="-0.437628">
<ele>2480</ele>
<name>Gendarme</name>
</wpt>
<wpt lat="42.845134" lon="-0.438851">
<ele>2580</ele>
<name>Bif. Embaradere</name>
</wpt>
<wpt lat="42.844718" lon="-0.436473">
<ele>2760</ele>
<name>Sortie</name>
</wpt>
<wpt lat="42.843008" lon="-0.438063">
<ele>2884</ele>
<name>Pic d Ossau</name>
</wpt>
<wpt lat="42.844884" lon="-0.434587">
<ele>2665</ele>
<name>Croix de fer</name>
</wpt>
<wpt lat="42.845664" lon="-0.432390">
<ele>2440</ele>
<name>second rappel</name>
</wpt>
<wpt lat="42.845445" lon="-0.431094">
<ele>2340</ele>
<name>1er rappel</name>
</wpt>
<trk>
    <name>ossau_face_nord</name>
    <userMyTwoNav></userMyTwoNav>
    <serialNumber></serialNumber>
    <trkseg>
      <trkpt lat="42.814821" lon="-0.418089">
        <ele>1726.4</ele>
        <time>2019-08-31T12:36:13Z</time>
        <name>Parking</name>
	</trkpt>
      <trkpt lat="42.814860" lon="-0.418202">
        <ele>1726.3</ele>
        <time>2019-08-31T12:36:24Z</time>
      </trkpt>
      <trkpt lat="42.814966" lon="-0.418198">
        <ele>1726.2</ele>
        <time>2019-08-31T12:36:35Z</time>
      </trkpt>
      <trkpt lat="42.815004" lon="-0.418280">
        <ele>1725.0</ele>
        <time>2019-08-31T12:36:57Z</time>
      </trkpt>
      <trkpt lat="42.814974" lon="-0.418402">
        <ele>1723.3</ele>
        <time>2019-08-31T12:37:06Z</time>
      </trkpt>
      <trkpt lat="42.814914" lon="-0.418500">
        <ele>1722.1</ele>
        <time>2019-08-31T12:37:15Z</time>
      </trkpt>
      <trkpt lat="42.814828" lon="-0.418512">
        <ele>1720.8</ele>
        <time>2019-08-31T12:37:23Z</time>
      </trkpt>
      <trkpt lat="42.814732" lon="-0.418489">
        <ele>1720.3</ele>
        <time>2019-08-31T12:37:30Z</time>
      </trkpt>
      <trkpt lat="42.814629" lon="-0.418486">
        <ele>1720.2</ele>
        <time>2019-08-31T12:37:38Z</time>
      </trkpt>
      <trkpt lat="42.814530" lon="-0.418513">
        <ele>1720.2</ele>
        <time>2019-08-31T12:37:47Z</time>
      </trkpt>
      <trkpt lat="42.814465" lon="-0.418598">
        <ele>1719.8</ele>
        <time>2019-08-31T12:37:55Z</time>
      </trkpt>
      <trkpt lat="42.814422" lon="-0.418610">
        <ele>1719.1</ele>
        <time>2019-08-31T12:38:32Z</time>
      </trkpt>
      <trkpt lat="42.814361" lon="-0.418719">
        <ele>1719.1</ele>
        <time>2019-08-31T12:38:39Z</time>
      </trkpt>
      <trkpt lat="42.814289" lon="-0.418815">
        <ele>1718.7</ele>
        <time>2019-08-31T12:38:46Z</time>
      </trkpt>
      <trkpt lat="42.814250" lon="-0.418930">
        <ele>1718.2</ele>
        <time>2019-08-31T12:38:54Z</time>
      </trkpt>
      <trkpt lat="42.814233" lon="-0.419056">
        <ele>1717.8</ele>
        <time>2019-08-31T12:39:01Z</time>
      </trkpt>
      <trkpt lat="42.814242" lon="-0.419197">
        <ele>1717.4</ele>
        <time>2019-08-31T12:39:09Z</time>
      </trkpt>
      <trkpt lat="42.814275" lon="-0.419321">
        <ele>1716.4</ele>
        <time>2019-08-31T12:39:16Z</time>
      </trkpt>
      <trkpt lat="42.814299" lon="-0.419449">
        <ele>1715.4</ele>
        <time>2019-08-31T12:39:23Z</time>
      </trkpt>
      <trkpt lat="42.814286" lon="-0.419572">
        <ele>1714.8</ele>
        <time>2019-08-31T12:39:30Z</time>
      </trkpt>
      <trkpt lat="42.814228" lon="-0.419680">
        <ele>1714.2</ele>
        <time>2019-08-31T12:39:37Z</time>
      </trkpt>
      <trkpt lat="42.814177" lon="-0.419795">
        <ele>1713.7</ele>
        <time>2019-08-31T12:39:44Z</time>
      </trkpt>
      <trkpt lat="42.814131" lon="-0.419912">
        <ele>1713.5</ele>
        <time>2019-08-31T12:39:51Z</time>
      </trkpt>
      <trkpt lat="42.814087" lon="-0.420023">
        <ele>1713.3</ele>
        <time>2019-08-31T12:39:58Z</time>
      </trkpt>
      <trkpt lat="42.814037" lon="-0.420133">
        <ele>1713.2</ele>
        <time>2019-08-31T12:40:05Z</time>
      </trkpt>
      <trkpt lat="42.813967" lon="-0.420220">
        <ele>1713.4</ele>
        <time>2019-08-31T12:40:12Z</time>
      </trkpt>
      <trkpt lat="42.813882" lon="-0.420292">
        <ele>1713.7</ele>
        <time>2019-08-31T12:40:19Z</time>
      </trkpt>
      <trkpt lat="42.813799" lon="-0.420364">
        <ele>1713.9</ele>
        <time>2019-08-31T12:40:26Z</time>
      </trkpt>
      <trkpt lat="42.813724" lon="-0.420435">
        <ele>1714.3</ele>
        <time>2019-08-31T12:40:33Z</time>
      </trkpt>
      <trkpt lat="42.813654" lon="-0.420523">
        <ele>1714.6</ele>
        <time>2019-08-31T12:40:40Z</time>
      </trkpt>
      <trkpt lat="42.813591" lon="-0.420625">
        <ele>1714.8</ele>
        <time>2019-08-31T12:40:48Z</time>
      </trkpt>
      <trkpt lat="42.813578" lon="-0.420753">
        <ele>1715.1</ele>
        <time>2019-08-31T12:40:56Z</time>
      </trkpt>
      <trkpt lat="42.813636" lon="-0.420847">
        <ele>1714.9</ele>
        <time>2019-08-31T12:41:03Z</time>
      </trkpt>
      <trkpt lat="42.813715" lon="-0.420929">
        <ele>1714.6</ele>
        <time>2019-08-31T12:41:10Z</time>
      </trkpt>
      <trkpt lat="42.813795" lon="-0.421018">
        <ele>1714.4</ele>
        <time>2019-08-31T12:41:18Z</time>
      </trkpt>
      <trkpt lat="42.813870" lon="-0.421092">
        <ele>1714.4</ele>
        <time>2019-08-31T12:41:25Z</time>
      </trkpt>
      <trkpt lat="42.813961" lon="-0.421134">
        <ele>1714.5</ele>
        <time>2019-08-31T12:41:34Z</time>
      </trkpt>
      <trkpt lat="42.814051" lon="-0.421180">
        <ele>1714.0</ele>
        <time>2019-08-31T12:41:42Z</time>
      </trkpt>
      <trkpt lat="42.814141" lon="-0.421188">
        <ele>1713.9</ele>
        <time>2019-08-31T12:41:51Z</time>
      </trkpt>
      <trkpt lat="42.814220" lon="-0.421243">
        <ele>1714.4</ele>
        <time>2019-08-31T12:41:59Z</time>
      </trkpt>
      <trkpt lat="42.814311" lon="-0.421295">
        <ele>1714.2</ele>
        <time>2019-08-31T12:42:07Z</time>
      </trkpt>
      <trkpt lat="42.814407" lon="-0.421281">
        <ele>1714.2</ele>
        <time>2019-08-31T12:42:15Z</time>
      </trkpt>
      <trkpt lat="42.814507" lon="-0.421274">
        <ele>1714.2</ele>
        <time>2019-08-31T12:42:23Z</time>
      </trkpt>
      <trkpt lat="42.814580" lon="-0.421336">
        <ele>1713.9</ele>
        <time>2019-08-31T12:42:32Z</time>
      </trkpt>
      <trkpt lat="42.814618" lon="-0.421450">
        <ele>1714.4</ele>
        <time>2019-08-31T12:42:42Z</time>
      </trkpt>
      <trkpt lat="42.814665" lon="-0.421552">
        <ele>1715.8</ele>
        <time>2019-08-31T12:42:52Z</time>
      </trkpt>
      <trkpt lat="42.814734" lon="-0.421626">
        <ele>1717.6</ele>
        <time>2019-08-31T12:43:03Z</time>
      </trkpt>
      <trkpt lat="42.814795" lon="-0.421550">
        <ele>1719.7</ele>
        <time>2019-08-31T12:43:16Z</time>
      </trkpt>
      <trkpt lat="42.814841" lon="-0.421438">
        <ele>1721.7</ele>
        <time>2019-08-31T12:43:29Z</time>
      </trkpt>
      <trkpt lat="42.814915" lon="-0.421366">
        <ele>1724.1</ele>
        <time>2019-08-31T12:43:41Z</time>
      </trkpt>
      <trkpt lat="42.814980" lon="-0.421288">
        <ele>1725.9</ele>
        <time>2019-08-31T12:43:52Z</time>
      </trkpt>
      <trkpt lat="42.815072" lon="-0.421301">
        <ele>1727.1</ele>
        <time>2019-08-31T12:44:01Z</time>
      </trkpt>
      <trkpt lat="42.815147" lon="-0.421370">
        <ele>1728.2</ele>
        <time>2019-08-31T12:44:11Z</time>
      </trkpt>
      <trkpt lat="42.815191" lon="-0.421476">
        <ele>1729.9</ele>
        <time>2019-08-31T12:44:20Z</time>
      </trkpt>
      <trkpt lat="42.815230" lon="-0.421588">
        <ele>1731.2</ele>
        <time>2019-08-31T12:44:29Z</time>
      </trkpt>
      <trkpt lat="42.815306" lon="-0.421651">
        <ele>1731.9</ele>
        <time>2019-08-31T12:44:38Z</time>
      </trkpt>
      <trkpt lat="42.815392" lon="-0.421697">
        <ele>1732.5</ele>
        <time>2019-08-31T12:44:47Z</time>
      </trkpt>
      <trkpt lat="42.815479" lon="-0.421734">
        <ele>1733.7</ele>
        <time>2019-08-31T12:44:56Z</time>
      </trkpt>
      <trkpt lat="42.815566" lon="-0.421775">
        <ele>1735.1</ele>
        <time>2019-08-31T12:45:06Z</time>
      </trkpt>
      <trkpt lat="42.815655" lon="-0.421818">
        <ele>1736.5</ele>
        <time>2019-08-31T12:45:16Z</time>
      </trkpt>
      <trkpt lat="42.815749" lon="-0.421854">
        <ele>1737.6</ele>
        <time>2019-08-31T12:45:25Z</time>
      </trkpt>
      <trkpt lat="42.815848" lon="-0.421882">
        <ele>1738.7</ele>
        <time>2019-08-31T12:45:34Z</time>
      </trkpt>
      <trkpt lat="42.815946" lon="-0.421907">
        <ele>1739.3</ele>
        <time>2019-08-31T12:45:43Z</time>
      </trkpt>
      <trkpt lat="42.816039" lon="-0.421928">
        <ele>1739.8</ele>
        <time>2019-08-31T12:45:52Z</time>
      </trkpt>
      <trkpt lat="42.816130" lon="-0.421936">
        <ele>1740.7</ele>
        <time>2019-08-31T12:46:01Z</time>
      </trkpt>
      <trkpt lat="42.816219" lon="-0.421958">
        <ele>1741.8</ele>
        <time>2019-08-31T12:46:10Z</time>
      </trkpt>
      <trkpt lat="42.816314" lon="-0.421988">
        <ele>1742.8</ele>
        <time>2019-08-31T12:46:20Z</time>
      </trkpt>
      <trkpt lat="42.816411" lon="-0.422014">
        <ele>1744.1</ele>
        <time>2019-08-31T12:46:31Z</time>
      </trkpt>
      <trkpt lat="42.816504" lon="-0.422032">
        <ele>1745.5</ele>
        <time>2019-08-31T12:46:41Z</time>
      </trkpt>
      <trkpt lat="42.816596" lon="-0.422059">
        <ele>1747.3</ele>
        <time>2019-08-31T12:46:51Z</time>
      </trkpt>
      <trkpt lat="42.816693" lon="-0.422081">
        <ele>1749.6</ele>
        <time>2019-08-31T12:47:02Z</time>
      </trkpt>
      <trkpt lat="42.816780" lon="-0.422102">
        <ele>1751.8</ele>
        <time>2019-08-31T12:47:13Z</time>
      </trkpt>
      <trkpt lat="42.816868" lon="-0.422135">
        <ele>1753.6</ele>
        <time>2019-08-31T12:47:24Z</time>
      </trkpt>
      <trkpt lat="42.816941" lon="-0.422209">
        <ele>1755.2</ele>
        <time>2019-08-31T12:47:34Z</time>
      </trkpt>
      <trkpt lat="42.817011" lon="-0.422296">
        <ele>1757.0</ele>
        <time>2019-08-31T12:47:44Z</time>
      </trkpt>
      <trkpt lat="42.817075" lon="-0.422383">
        <ele>1758.5</ele>
        <time>2019-08-31T12:47:54Z</time>
      </trkpt>
      <trkpt lat="42.817150" lon="-0.422469">
        <ele>1760.0</ele>
        <time>2019-08-31T12:48:04Z</time>
      </trkpt>
      <trkpt lat="42.817214" lon="-0.422565">
        <ele>1761.2</ele>
        <time>2019-08-31T12:48:13Z</time>
      </trkpt>
      <trkpt lat="42.817286" lon="-0.422645">
        <ele>1762.2</ele>
        <time>2019-08-31T12:48:22Z</time>
      </trkpt>
      <trkpt lat="42.817351" lon="-0.422749">
        <ele>1763.2</ele>
        <time>2019-08-31T12:48:31Z</time>
      </trkpt>
      <trkpt lat="42.817417" lon="-0.422848">
        <ele>1764.0</ele>
        <time>2019-08-31T12:48:40Z</time>
      </trkpt>
      <trkpt lat="42.817472" lon="-0.422962">
        <ele>1764.9</ele>
        <time>2019-08-31T12:48:49Z</time>
      </trkpt>
      <trkpt lat="42.817524" lon="-0.423068">
        <ele>1765.8</ele>
        <time>2019-08-31T12:48:58Z</time>
      </trkpt>
      <trkpt lat="42.817580" lon="-0.423164">
        <ele>1766.3</ele>
        <time>2019-08-31T12:49:07Z</time>
      </trkpt>
      <trkpt lat="42.817647" lon="-0.423267">
        <ele>1767.5</ele>
        <time>2019-08-31T12:49:17Z</time>
      </trkpt>
      <trkpt lat="42.817711" lon="-0.423355">
        <ele>1768.3</ele>
        <time>2019-08-31T12:49:26Z</time>
      </trkpt>
      <trkpt lat="42.817773" lon="-0.423455">
        <ele>1769.6</ele>
        <time>2019-08-31T12:49:36Z</time>
      </trkpt>
      <trkpt lat="42.817828" lon="-0.423551">
        <ele>1771.2</ele>
        <time>2019-08-31T12:49:46Z</time>
      </trkpt>
      <trkpt lat="42.817888" lon="-0.423658">
        <ele>1772.3</ele>
        <time>2019-08-31T12:49:56Z</time>
      </trkpt>
      <trkpt lat="42.817956" lon="-0.423739">
        <ele>1774.1</ele>
        <time>2019-08-31T12:50:07Z</time>
      </trkpt>
      <trkpt lat="42.818043" lon="-0.423794">
        <ele>1776.0</ele>
        <time>2019-08-31T12:50:19Z</time>
      </trkpt>
      <trkpt lat="42.818116" lon="-0.423876">
        <ele>1778.2</ele>
        <time>2019-08-31T12:50:32Z</time>
      </trkpt>
      <trkpt lat="42.818196" lon="-0.423938">
        <ele>1780.6</ele>
        <time>2019-08-31T12:50:45Z</time>
      </trkpt>
      <trkpt lat="42.818282" lon="-0.424005">
        <ele>1783.0</ele>
        <time>2019-08-31T12:50:58Z</time>
      </trkpt>
      <trkpt lat="42.818367" lon="-0.424054">
        <ele>1784.9</ele>
        <time>2019-08-31T12:51:09Z</time>
      </trkpt>
      <trkpt lat="42.818460" lon="-0.424068">
        <ele>1786.7</ele>
        <time>2019-08-31T12:51:20Z</time>
      </trkpt>
      <trkpt lat="42.818554" lon="-0.424033">
        <ele>1788.6</ele>
        <time>2019-08-31T12:51:33Z</time>
      </trkpt>
      <trkpt lat="42.818644" lon="-0.423998">
        <ele>1790.2</ele>
        <time>2019-08-31T12:51:43Z</time>
      </trkpt>
      <trkpt lat="42.818735" lon="-0.423966">
        <ele>1792.1</ele>
        <time>2019-08-31T12:51:52Z</time>
      </trkpt>
      <trkpt lat="42.818817" lon="-0.423916">
        <ele>1793.5</ele>
        <time>2019-08-31T12:52:02Z</time>
      </trkpt>
      <trkpt lat="42.818912" lon="-0.423868">
        <ele>1795.6</ele>
        <time>2019-08-31T12:52:14Z</time>
      </trkpt>
      <trkpt lat="42.819004" lon="-0.423898">
        <ele>1797.3</ele>
        <time>2019-08-31T12:52:24Z</time>
      </trkpt>
      <trkpt lat="42.819081" lon="-0.423965">
        <ele>1798.4</ele>
        <time>2019-08-31T12:52:34Z</time>
      </trkpt>
      <trkpt lat="42.819133" lon="-0.424071">
        <ele>1799.2</ele>
        <time>2019-08-31T12:52:43Z</time>
      </trkpt>
      <trkpt lat="42.819138" lon="-0.424198">
        <ele>1799.9</ele>
        <time>2019-08-31T12:52:52Z</time>
      </trkpt>
      <trkpt lat="42.819103" lon="-0.424320">
        <ele>1801.6</ele>
        <time>2019-08-31T12:53:02Z</time>
      </trkpt>
      <trkpt lat="42.819118" lon="-0.424450">
        <ele>1802.8</ele>
        <time>2019-08-31T12:53:12Z</time>
      </trkpt>
      <trkpt lat="42.819135" lon="-0.424586">
        <ele>1804.6</ele>
        <time>2019-08-31T12:53:23Z</time>
      </trkpt>
      <trkpt lat="42.819161" lon="-0.424719">
        <ele>1806.1</ele>
        <time>2019-08-31T12:53:32Z</time>
      </trkpt>
      <trkpt lat="42.819189" lon="-0.424834">
        <ele>1806.0</ele>
        <time>2019-08-31T12:53:39Z</time>
      </trkpt>
      <trkpt lat="42.819222" lon="-0.424949">
        <ele>1806.1</ele>
        <time>2019-08-31T12:53:48Z</time>
      </trkpt>
      <trkpt lat="42.819265" lon="-0.425075">
        <ele>1806.7</ele>
        <time>2019-08-31T12:53:57Z</time>
      </trkpt>
      <trkpt lat="42.819324" lon="-0.425172">
        <ele>1807.6</ele>
        <time>2019-08-31T12:54:06Z</time>
      </trkpt>
      <trkpt lat="42.819385" lon="-0.425263">
        <ele>1808.7</ele>
        <time>2019-08-31T12:54:16Z</time>
      </trkpt>
      <trkpt lat="42.819455" lon="-0.425326">
        <ele>1810.3</ele>
        <time>2019-08-31T12:54:27Z</time>
      </trkpt>
      <trkpt lat="42.819553" lon="-0.425318">
        <ele>1812.7</ele>
        <time>2019-08-31T12:54:41Z</time>
      </trkpt>
      <trkpt lat="42.819647" lon="-0.425304">
        <ele>1815.3</ele>
        <time>2019-08-31T12:54:55Z</time>
      </trkpt>
      <trkpt lat="42.819735" lon="-0.425282">
        <ele>1817.9</ele>
        <time>2019-08-31T12:55:08Z</time>
      </trkpt>
      <trkpt lat="42.819773" lon="-0.425389">
        <ele>1820.7</ele>
        <time>2019-08-31T12:55:21Z</time>
      </trkpt>
      <trkpt lat="42.819803" lon="-0.425516">
        <ele>1823.6</ele>
        <time>2019-08-31T12:55:35Z</time>
      </trkpt>
      <trkpt lat="42.819875" lon="-0.425609">
        <ele>1826.1</ele>
        <time>2019-08-31T12:55:48Z</time>
      </trkpt>
      <trkpt lat="42.819946" lon="-0.425702">
        <ele>1828.3</ele>
        <time>2019-08-31T12:56:00Z</time>
      </trkpt>
      <trkpt lat="42.820010" lon="-0.425796">
        <ele>1830.4</ele>
        <time>2019-08-31T12:56:12Z</time>
      </trkpt>
      <trkpt lat="42.820049" lon="-0.425912">
        <ele>1833.0</ele>
        <time>2019-08-31T12:56:25Z</time>
      </trkpt>
      <trkpt lat="42.820108" lon="-0.426004">
        <ele>1835.0</ele>
        <time>2019-08-31T12:56:37Z</time>
      </trkpt>
      <trkpt lat="42.820149" lon="-0.426122">
        <ele>1836.9</ele>
        <time>2019-08-31T12:56:49Z</time>
      </trkpt>
      <trkpt lat="42.820160" lon="-0.426238">
        <ele>1839.3</ele>
        <time>2019-08-31T12:57:01Z</time>
      </trkpt>
      <trkpt lat="42.820170" lon="-0.426365">
        <ele>1841.9</ele>
        <time>2019-08-31T12:57:14Z</time>
      </trkpt>
      <trkpt lat="42.820194" lon="-0.426470">
        <ele>1843.7</ele>
        <time>2019-08-31T12:57:26Z</time>
      </trkpt>
      <trkpt lat="42.820244" lon="-0.426574">
        <ele>1846.7</ele>
        <time>2019-08-31T12:57:40Z</time>
      </trkpt>
      <trkpt lat="42.820292" lon="-0.426686">
        <ele>1849.2</ele>
        <time>2019-08-31T12:57:53Z</time>
      </trkpt>
      <trkpt lat="42.820359" lon="-0.426779">
        <ele>1851.2</ele>
        <time>2019-08-31T12:58:05Z</time>
      </trkpt>
      <trkpt lat="42.820436" lon="-0.426849">
        <ele>1852.8</ele>
        <time>2019-08-31T12:58:17Z</time>
      </trkpt>
      <trkpt lat="42.820515" lon="-0.426927">
        <ele>1854.6</ele>
        <time>2019-08-31T12:58:28Z</time>
      </trkpt>
      <trkpt lat="42.820593" lon="-0.426998">
        <ele>1855.9</ele>
        <time>2019-08-31T12:58:39Z</time>
      </trkpt>
      <trkpt lat="42.820667" lon="-0.427059">
        <ele>1857.5</ele>
        <time>2019-08-31T12:58:50Z</time>
      </trkpt>
      <trkpt lat="42.820743" lon="-0.427127">
        <ele>1859.6</ele>
        <time>2019-08-31T12:59:02Z</time>
      </trkpt>
      <trkpt lat="42.820818" lon="-0.427201">
        <ele>1861.9</ele>
        <time>2019-08-31T12:59:14Z</time>
      </trkpt>
      <trkpt lat="42.820890" lon="-0.427277">
        <ele>1864.3</ele>
        <time>2019-08-31T12:59:27Z</time>
      </trkpt>
      <trkpt lat="42.820961" lon="-0.427366">
        <ele>1866.4</ele>
        <time>2019-08-31T12:59:39Z</time>
      </trkpt>
      <trkpt lat="42.821032" lon="-0.427449">
        <ele>1868.3</ele>
        <time>2019-08-31T12:59:50Z</time>
      </trkpt>
      <trkpt lat="42.821112" lon="-0.427520">
        <ele>1869.8</ele>
        <time>2019-08-31T13:00:01Z</time>
      </trkpt>
      <trkpt lat="42.821190" lon="-0.427587">
        <ele>1871.6</ele>
        <time>2019-08-31T13:00:12Z</time>
      </trkpt>
      <trkpt lat="42.821265" lon="-0.427663">
        <ele>1873.6</ele>
        <time>2019-08-31T13:00:24Z</time>
      </trkpt>
      <trkpt lat="42.821342" lon="-0.427739">
        <ele>1875.4</ele>
        <time>2019-08-31T13:00:35Z</time>
      </trkpt>
      <trkpt lat="42.821419" lon="-0.427825">
        <ele>1877.0</ele>
        <time>2019-08-31T13:00:46Z</time>
      </trkpt>
      <trkpt lat="42.821498" lon="-0.427896">
        <ele>1878.7</ele>
        <time>2019-08-31T13:00:57Z</time>
      </trkpt>
      <trkpt lat="42.821572" lon="-0.427964">
        <ele>1880.9</ele>
        <time>2019-08-31T13:01:09Z</time>
      </trkpt>
      <trkpt lat="42.821656" lon="-0.427994">
        <ele>1883.8</ele>
        <time>2019-08-31T13:01:23Z</time>
      </trkpt>
      <trkpt lat="42.821735" lon="-0.427986">
        <ele>1886.4</ele>
        <time>2019-08-31T13:01:36Z</time>
      </trkpt>
      <trkpt lat="42.821820" lon="-0.427920">
        <ele>1888.0</ele>
        <time>2019-08-31T13:01:48Z</time>
      </trkpt>
      <trkpt lat="42.821902" lon="-0.427849">
        <ele>1888.9</ele>
        <time>2019-08-31T13:01:59Z</time>
      </trkpt>
      <trkpt lat="42.821964" lon="-0.427752">
        <ele>1890.2</ele>
        <time>2019-08-31T13:02:11Z</time>
      </trkpt>
      <trkpt lat="42.822026" lon="-0.427647">
        <ele>1891.9</ele>
        <time>2019-08-31T13:02:24Z</time>
      </trkpt>
      <trkpt lat="42.822089" lon="-0.427559">
        <ele>1894.2</ele>
        <time>2019-08-31T13:02:36Z</time>
      </trkpt>
      <trkpt lat="42.822151" lon="-0.427473">
        <ele>1897.0</ele>
        <time>2019-08-31T13:02:51Z</time>
      </trkpt>
      <trkpt lat="42.822204" lon="-0.427383">
        <ele>1899.2</ele>
        <time>2019-08-31T13:03:07Z</time>
      </trkpt>
      <trkpt lat="42.822269" lon="-0.427297">
        <ele>1901.9</ele>
        <time>2019-08-31T13:03:23Z</time>
      </trkpt>
      <trkpt lat="42.822334" lon="-0.427196">
        <ele>1904.1</ele>
        <time>2019-08-31T13:03:37Z</time>
      </trkpt>
      <trkpt lat="42.822395" lon="-0.427101">
        <ele>1906.9</ele>
        <time>2019-08-31T13:03:52Z</time>
      </trkpt>
      <trkpt lat="42.822468" lon="-0.427018">
        <ele>1909.7</ele>
        <time>2019-08-31T13:04:07Z</time>
      </trkpt>
      <trkpt lat="42.822523" lon="-0.426913">
        <ele>1911.9</ele>
        <time>2019-08-31T13:04:19Z</time>
      </trkpt>
      <trkpt lat="42.822588" lon="-0.426808">
        <ele>1914.0</ele>
        <time>2019-08-31T13:04:31Z</time>
      </trkpt>
      <trkpt lat="42.822656" lon="-0.426703">
        <ele>1915.4</ele>
        <time>2019-08-31T13:04:42Z</time>
      </trkpt>
      <trkpt lat="42.822699" lon="-0.426589">
        <ele>1916.5</ele>
        <time>2019-08-31T13:04:52Z</time>
      </trkpt>
      <trkpt lat="42.822724" lon="-0.426463">
        <ele>1918.1</ele>
        <time>2019-08-31T13:05:02Z</time>
      </trkpt>
      <trkpt lat="42.822764" lon="-0.426358">
        <ele>1919.8</ele>
        <time>2019-08-31T13:05:13Z</time>
      </trkpt>
      <trkpt lat="42.822797" lon="-0.426239">
        <ele>1921.7</ele>
        <time>2019-08-31T13:05:23Z</time>
      </trkpt>
      <trkpt lat="42.822880" lon="-0.426126">
        <ele>1923.9</ele>
        <time>2019-08-31T13:05:34Z</time>
      </trkpt>
      <trkpt lat="42.822894" lon="-0.426007">
        <ele>1925.5</ele>
        <time>2019-08-31T13:05:44Z</time>
      </trkpt>
      <trkpt lat="42.822917" lon="-0.425892">
        <ele>1926.9</ele>
        <time>2019-08-31T13:05:54Z</time>
      </trkpt>
      <trkpt lat="42.822942" lon="-0.425782">
        <ele>1928.4</ele>
        <time>2019-08-31T13:06:06Z</time>
      </trkpt>
      <trkpt lat="42.823015" lon="-0.425699">
        <ele>1930.1</ele>
        <time>2019-08-31T13:06:18Z</time>
      </trkpt>
      <trkpt lat="42.823101" lon="-0.425642">
        <ele>1932.1</ele>
        <time>2019-08-31T13:06:30Z</time>
      </trkpt>
      <trkpt lat="42.823122" lon="-0.425720">
        <ele>1934.4</ele>
        <time>2019-08-31T13:06:44Z</time>
      </trkpt>
      <trkpt lat="42.823115" lon="-0.425859">
        <ele>1937.3</ele>
        <time>2019-08-31T13:06:59Z</time>
      </trkpt>
      <trkpt lat="42.823108" lon="-0.425987">
        <ele>1939.1</ele>
        <time>2019-08-31T13:07:10Z</time>
      </trkpt>
      <trkpt lat="42.823109" lon="-0.426124">
        <ele>1940.3</ele>
        <time>2019-08-31T13:07:21Z</time>
      </trkpt>
      <trkpt lat="42.823090" lon="-0.426234">
        <ele>1941.7</ele>
        <time>2019-08-31T13:07:31Z</time>
      </trkpt>
      <trkpt lat="42.823067" lon="-0.426348">
        <ele>1943.1</ele>
        <time>2019-08-31T13:07:42Z</time>
      </trkpt>
      <trkpt lat="42.823070" lon="-0.426469">
        <ele>1944.5</ele>
        <time>2019-08-31T13:07:52Z</time>
      </trkpt>
      <trkpt lat="42.823078" lon="-0.426601">
        <ele>1945.6</ele>
        <time>2019-08-31T13:08:02Z</time>
      </trkpt>
      <trkpt lat="42.823085" lon="-0.426729">
        <ele>1947.1</ele>
        <time>2019-08-31T13:08:12Z</time>
      </trkpt>
      <trkpt lat="42.823092" lon="-0.426850">
        <ele>1949.2</ele>
        <time>2019-08-31T13:08:24Z</time>
      </trkpt>
      <trkpt lat="42.823081" lon="-0.426995">
        <ele>1951.2</ele>
        <time>2019-08-31T13:08:36Z</time>
      </trkpt>
      <trkpt lat="42.823075" lon="-0.427110">
        <ele>1953.1</ele>
        <time>2019-08-31T13:08:47Z</time>
      </trkpt>
      <trkpt lat="42.823052" lon="-0.427247">
        <ele>1954.4</ele>
        <time>2019-08-31T13:08:57Z</time>
      </trkpt>
      <trkpt lat="42.823053" lon="-0.427376">
        <ele>1955.6</ele>
        <time>2019-08-31T13:09:07Z</time>
      </trkpt>
      <trkpt lat="42.823042" lon="-0.427509">
        <ele>1957.7</ele>
        <time>2019-08-31T13:09:19Z</time>
      </trkpt>
      <trkpt lat="42.823044" lon="-0.427632">
        <ele>1959.2</ele>
        <time>2019-08-31T13:09:30Z</time>
      </trkpt>
      <trkpt lat="42.823046" lon="-0.427750">
        <ele>1961.8</ele>
        <time>2019-08-31T13:09:43Z</time>
      </trkpt>
      <trkpt lat="42.823013" lon="-0.427860">
        <ele>1963.5</ele>
        <time>2019-08-31T13:10:01Z</time>
      </trkpt>
      <trkpt lat="42.823021" lon="-0.427998">
        <ele>1965.0</ele>
        <time>2019-08-31T13:10:12Z</time>
      </trkpt>
      <trkpt lat="42.823037" lon="-0.428129">
        <ele>1966.2</ele>
        <time>2019-08-31T13:10:21Z</time>
      </trkpt>
      <trkpt lat="42.823078" lon="-0.428250">
        <ele>1968.2</ele>
        <time>2019-08-31T13:10:32Z</time>
      </trkpt>
      <trkpt lat="42.823115" lon="-0.428362">
        <ele>1970.0</ele>
        <time>2019-08-31T13:10:41Z</time>
      </trkpt>
      <trkpt lat="42.823132" lon="-0.428490">
        <ele>1971.6</ele>
        <time>2019-08-31T13:10:50Z</time>
      </trkpt>
      <trkpt lat="42.823170" lon="-0.428608">
        <ele>1973.3</ele>
        <time>2019-08-31T13:10:59Z</time>
      </trkpt>
      <trkpt lat="42.823209" lon="-0.428710">
        <ele>1975.1</ele>
        <time>2019-08-31T13:11:09Z</time>
      </trkpt>
      <trkpt lat="42.823243" lon="-0.428828">
        <ele>1977.2</ele>
        <time>2019-08-31T13:11:21Z</time>
      </trkpt>
      <trkpt lat="42.823265" lon="-0.428958">
        <ele>1979.2</ele>
        <time>2019-08-31T13:11:34Z</time>
      </trkpt>
      <trkpt lat="42.823291" lon="-0.429085">
        <ele>1980.8</ele>
        <time>2019-08-31T13:11:46Z</time>
      </trkpt>
      <trkpt lat="42.823353" lon="-0.429122">
        <ele>1983.0</ele>
        <time>2019-08-31T13:12:00Z</time>
      </trkpt>
      <trkpt lat="42.823393" lon="-0.428995">
        <ele>1984.8</ele>
        <time>2019-08-31T13:12:11Z</time>
      </trkpt>
      <trkpt lat="42.823422" lon="-0.428866">
        <ele>1986.7</ele>
        <time>2019-08-31T13:12:24Z</time>
      </trkpt>
      <trkpt lat="42.823461" lon="-0.428750">
        <ele>1988.5</ele>
        <time>2019-08-31T13:12:36Z</time>
      </trkpt>
      <trkpt lat="42.823490" lon="-0.428630">
        <ele>1990.3</ele>
        <time>2019-08-31T13:12:48Z</time>
      </trkpt>
      <trkpt lat="42.823526" lon="-0.428520">
        <ele>1991.7</ele>
        <time>2019-08-31T13:13:00Z</time>
      </trkpt>
      <trkpt lat="42.823592" lon="-0.428429">
        <ele>1993.3</ele>
        <time>2019-08-31T13:13:12Z</time>
      </trkpt>
      <trkpt lat="42.823660" lon="-0.428342">
        <ele>1994.9</ele>
        <time>2019-08-31T13:13:24Z</time>
      </trkpt>
      <trkpt lat="42.823722" lon="-0.428255">
        <ele>1997.2</ele>
        <time>2019-08-31T13:13:36Z</time>
      </trkpt>
      <trkpt lat="42.823803" lon="-0.428184">
        <ele>1998.8</ele>
        <time>2019-08-31T13:13:46Z</time>
      </trkpt>
      <trkpt lat="42.823868" lon="-0.428101">
        <ele>2000.4</ele>
        <time>2019-08-31T13:13:57Z</time>
      </trkpt>
      <trkpt lat="42.823923" lon="-0.428007">
        <ele>2002.1</ele>
        <time>2019-08-31T13:14:08Z</time>
      </trkpt>
      <trkpt lat="42.823997" lon="-0.427912">
        <ele>2003.7</ele>
        <time>2019-08-31T13:14:19Z</time>
      </trkpt>
      <trkpt lat="42.824062" lon="-0.427826">
        <ele>2004.8</ele>
        <time>2019-08-31T13:14:31Z</time>
      </trkpt>
      <trkpt lat="42.824126" lon="-0.427745">
        <ele>2006.6</ele>
        <time>2019-08-31T13:14:45Z</time>
      </trkpt>
      <trkpt lat="42.824200" lon="-0.427659">
        <ele>2009.1</ele>
        <time>2019-08-31T13:15:03Z</time>
      </trkpt>
      <trkpt lat="42.824289" lon="-0.427603">
        <ele>2012.8</ele>
        <time>2019-08-31T13:15:21Z</time>
      </trkpt>
      <trkpt lat="42.824360" lon="-0.427525">
        <ele>2017.4</ele>
        <time>2019-08-31T13:15:44Z</time>
      </trkpt>
      <trkpt lat="42.824442" lon="-0.427446">
        <ele>2021.0</ele>
        <time>2019-08-31T13:16:03Z</time>
      </trkpt>
      <trkpt lat="42.824495" lon="-0.427340">
        <ele>2023.7</ele>
        <time>2019-08-31T13:16:20Z</time>
      </trkpt>
      <trkpt lat="42.824573" lon="-0.427266">
        <ele>2027.0</ele>
        <time>2019-08-31T13:16:39Z</time>
      </trkpt>
      <trkpt lat="42.824631" lon="-0.427176">
        <ele>2030.3</ele>
        <time>2019-08-31T13:16:56Z</time>
      </trkpt>
      <trkpt lat="42.824693" lon="-0.427102">
        <ele>2033.8</ele>
        <time>2019-08-31T13:17:13Z</time>
      </trkpt>
      <trkpt lat="42.824764" lon="-0.427048">
        <ele>2037.0</ele>
        <time>2019-08-31T13:17:31Z</time>
      </trkpt>
      <trkpt lat="42.824840" lon="-0.426986">
        <ele>2040.7</ele>
        <time>2019-08-31T13:17:49Z</time>
      </trkpt>
      <trkpt lat="42.824935" lon="-0.426977">
        <ele>2044.3</ele>
        <time>2019-08-31T13:18:08Z</time>
      </trkpt>
      <trkpt lat="42.824993" lon="-0.426914">
        <ele>2046.8</ele>
        <time>2019-08-31T13:18:23Z</time>
      </trkpt>
      <trkpt lat="42.825022" lon="-0.426937">
        <ele>2047.4</ele>
        <time>2019-08-31T13:19:09Z</time>
      </trkpt>
      <trkpt lat="42.825034" lon="-0.426813">
        <ele>2047.9</ele>
        <time>2019-08-31T13:19:17Z</time>
      </trkpt>
      <trkpt lat="42.825081" lon="-0.426702">
        <ele>2049.2</ele>
        <time>2019-08-31T13:19:26Z</time>
      </trkpt>
      <trkpt lat="42.825132" lon="-0.426593">
        <ele>2050.7</ele>
        <time>2019-08-31T13:19:36Z</time>
      </trkpt>
      <trkpt lat="42.825195" lon="-0.426497">
        <ele>2053.0</ele>
        <time>2019-08-31T13:19:47Z</time>
      </trkpt>
      <trkpt lat="42.825279" lon="-0.426492">
        <ele>2054.9</ele>
        <time>2019-08-31T13:19:58Z</time>
      </trkpt>
      <trkpt lat="42.825370" lon="-0.426457">
        <ele>2057.5</ele>
        <time>2019-08-31T13:20:09Z</time>
      </trkpt>
      <trkpt lat="42.825455" lon="-0.426399">
        <ele>2060.0</ele>
        <time>2019-08-31T13:20:21Z</time>
      </trkpt>
      <trkpt lat="42.825531" lon="-0.426350">
        <ele>2063.0</ele>
        <time>2019-08-31T13:20:32Z</time>
      </trkpt>
      <trkpt lat="42.825622" lon="-0.426352">
        <ele>2065.2</ele>
        <time>2019-08-31T13:20:44Z</time>
      </trkpt>
      <trkpt lat="42.825695" lon="-0.426284">
        <ele>2067.0</ele>
        <time>2019-08-31T13:20:56Z</time>
      </trkpt>
      <trkpt lat="42.825760" lon="-0.426203">
        <ele>2069.9</ele>
        <time>2019-08-31T13:21:09Z</time>
      </trkpt>
      <trkpt lat="42.825822" lon="-0.426103">
        <ele>2072.7</ele>
        <time>2019-08-31T13:21:22Z</time>
      </trkpt>
      <trkpt lat="42.825855" lon="-0.425983">
        <ele>2074.9</ele>
        <time>2019-08-31T13:21:35Z</time>
      </trkpt>
      <trkpt lat="42.825900" lon="-0.425876">
        <ele>2076.8</ele>
        <time>2019-08-31T13:21:46Z</time>
      </trkpt>
      <trkpt lat="42.825905" lon="-0.425757">
        <ele>2078.5</ele>
        <time>2019-08-31T13:21:56Z</time>
      </trkpt>
      <trkpt lat="42.825910" lon="-0.425628">
        <ele>2080.3</ele>
        <time>2019-08-31T13:22:07Z</time>
      </trkpt>
      <trkpt lat="42.825938" lon="-0.425503">
        <ele>2081.7</ele>
        <time>2019-08-31T13:22:17Z</time>
      </trkpt>
      <trkpt lat="42.826008" lon="-0.425518">
        <ele>2084.3</ele>
        <time>2019-08-31T13:22:38Z</time>
      </trkpt>
      <trkpt lat="42.826089" lon="-0.425577">
        <ele>2085.4</ele>
        <time>2019-08-31T13:22:47Z</time>
      </trkpt>
      <trkpt lat="42.826165" lon="-0.425629">
        <ele>2087.1</ele>
        <time>2019-08-31T13:22:56Z</time>
      </trkpt>
      <trkpt lat="42.826251" lon="-0.425673">
        <ele>2088.3</ele>
        <time>2019-08-31T13:23:05Z</time>
      </trkpt>
      <trkpt lat="42.826339" lon="-0.425710">
        <ele>2089.9</ele>
        <time>2019-08-31T13:23:14Z</time>
      </trkpt>
      <trkpt lat="42.826427" lon="-0.425742">
        <ele>2091.7</ele>
        <time>2019-08-31T13:23:23Z</time>
      </trkpt>
      <trkpt lat="42.826527" lon="-0.425793">
        <ele>2093.1</ele>
        <time>2019-08-31T13:23:32Z</time>
      </trkpt>
      <trkpt lat="42.826606" lon="-0.425867">
        <ele>2093.3</ele>
        <time>2019-08-31T13:23:40Z</time>
      </trkpt>
      <trkpt lat="42.826689" lon="-0.425934">
        <ele>2092.6</ele>
        <time>2019-08-31T13:23:47Z</time>
      </trkpt>
      <trkpt lat="42.826782" lon="-0.425992">
        <ele>2092.2</ele>
        <time>2019-08-31T13:23:55Z</time>
      </trkpt>
      <trkpt lat="42.826858" lon="-0.426066">
        <ele>2092.3</ele>
        <time>2019-08-31T13:24:03Z</time>
      </trkpt>
      <trkpt lat="42.826901" lon="-0.426180">
        <ele>2091.5</ele>
        <time>2019-08-31T13:24:16Z</time>
      </trkpt>
      <trkpt lat="42.826958" lon="-0.426284">
        <ele>2091.0</ele>
        <time>2019-08-31T13:24:21Z</time>
      </trkpt>
      <trkpt lat="42.827041" lon="-0.426348">
        <ele>2090.0</ele>
        <time>2019-08-31T13:24:27Z</time>
      </trkpt>
      <trkpt lat="42.827124" lon="-0.426428">
        <ele>2090.0</ele>
        <time>2019-08-31T13:24:35Z</time>
      </trkpt>
      <trkpt lat="42.827196" lon="-0.426530">
        <ele>2090.2</ele>
        <time>2019-08-31T13:24:43Z</time>
      </trkpt>
      <trkpt lat="42.827255" lon="-0.426631">
        <ele>2089.9</ele>
        <time>2019-08-31T13:24:50Z</time>
      </trkpt>
      <trkpt lat="42.827343" lon="-0.426669">
        <ele>2088.7</ele>
        <time>2019-08-31T13:24:58Z</time>
      </trkpt>
      <trkpt lat="42.827366" lon="-0.426675">
        <ele>2089.3</ele>
        <time>2019-08-31T13:26:14Z</time>
      </trkpt>
      <trkpt lat="42.827424" lon="-0.426760">
        <ele>2089.3</ele>
        <time>2019-08-31T13:26:46Z</time>
      </trkpt>
      <trkpt lat="42.827436" lon="-0.426893">
        <ele>2088.2</ele>
        <time>2019-08-31T13:26:56Z</time>
      </trkpt>
      <trkpt lat="42.827495" lon="-0.426994">
        <ele>2087.1</ele>
        <time>2019-08-31T13:27:05Z</time>
      </trkpt>
      <trkpt lat="42.827567" lon="-0.427087">
        <ele>2085.7</ele>
        <time>2019-08-31T13:27:14Z</time>
      </trkpt>
      <trkpt lat="42.827638" lon="-0.427184">
        <ele>2084.7</ele>
        <time>2019-08-31T13:27:22Z</time>
      </trkpt>
      <trkpt lat="42.827705" lon="-0.427252">
        <ele>2084.4</ele>
        <time>2019-08-31T13:27:34Z</time>
      </trkpt>
      <trkpt lat="42.827799" lon="-0.427285">
        <ele>2084.5</ele>
        <time>2019-08-31T13:27:41Z</time>
      </trkpt>
      <trkpt lat="42.827890" lon="-0.427276">
        <ele>2084.6</ele>
        <time>2019-08-31T13:27:49Z</time>
      </trkpt>
      <trkpt lat="42.827980" lon="-0.427257">
        <ele>2084.8</ele>
        <time>2019-08-31T13:27:57Z</time>
      </trkpt>
      <trkpt lat="42.828061" lon="-0.427312">
        <ele>2085.0</ele>
        <time>2019-08-31T13:28:05Z</time>
      </trkpt>
      <trkpt lat="42.828101" lon="-0.427460">
        <ele>2084.8</ele>
        <time>2019-08-31T13:28:14Z</time>
      </trkpt>
      <trkpt lat="42.828138" lon="-0.427565">
        <ele>2083.8</ele>
        <time>2019-08-31T13:28:22Z</time>
      </trkpt>
      <trkpt lat="42.828233" lon="-0.427504">
        <ele>2082.5</ele>
        <time>2019-08-31T13:28:30Z</time>
      </trkpt>
      <trkpt lat="42.828314" lon="-0.427435">
        <ele>2082.4</ele>
        <time>2019-08-31T13:28:37Z</time>
      </trkpt>
      <trkpt lat="42.828412" lon="-0.427394">
        <ele>2082.4</ele>
        <time>2019-08-31T13:28:45Z</time>
      </trkpt>
      <trkpt lat="42.828508" lon="-0.427415">
        <ele>2082.4</ele>
        <time>2019-08-31T13:28:53Z</time>
      </trkpt>
      <trkpt lat="42.828617" lon="-0.427422">
        <ele>2081.9</ele>
        <time>2019-08-31T13:29:01Z</time>
      </trkpt>
      <trkpt lat="42.828712" lon="-0.427423">
        <ele>2080.9</ele>
        <time>2019-08-31T13:29:08Z</time>
      </trkpt>
      <trkpt lat="42.828803" lon="-0.427416">
        <ele>2079.9</ele>
        <time>2019-08-31T13:29:15Z</time>
      </trkpt>
      <trkpt lat="42.828898" lon="-0.427385">
        <ele>2078.8</ele>
        <time>2019-08-31T13:29:22Z</time>
      </trkpt>
      <trkpt lat="42.828988" lon="-0.427358">
        <ele>2077.8</ele>
        <time>2019-08-31T13:29:29Z</time>
      </trkpt>
      <trkpt lat="42.829056" lon="-0.427414">
        <ele>2077.1</ele>
        <time>2019-08-31T13:29:37Z</time>
      </trkpt>
      <trkpt lat="42.829107" lon="-0.427502">
        <ele>2076.5</ele>
        <time>2019-08-31T13:29:49Z</time>
      </trkpt>
      <trkpt lat="42.829184" lon="-0.427418">
        <ele>2075.1</ele>
        <time>2019-08-31T13:29:56Z</time>
      </trkpt>
      <trkpt lat="42.829273" lon="-0.427346">
        <ele>2074.6</ele>
        <time>2019-08-31T13:30:06Z</time>
      </trkpt>
      <trkpt lat="42.829353" lon="-0.427273">
        <ele>2074.1</ele>
        <time>2019-08-31T13:30:14Z</time>
      </trkpt>
      <trkpt lat="42.829425" lon="-0.427202">
        <ele>2073.4</ele>
        <time>2019-08-31T13:30:22Z</time>
      </trkpt>
      <trkpt lat="42.829517" lon="-0.427131">
        <ele>2072.3</ele>
        <time>2019-08-31T13:30:30Z</time>
      </trkpt>
      <trkpt lat="42.829568" lon="-0.427050">
        <ele>2071.4</ele>
        <time>2019-08-31T13:30:53Z</time>
      </trkpt>
      <trkpt lat="42.829632" lon="-0.426943">
        <ele>2070.9</ele>
        <time>2019-08-31T13:31:00Z</time>
      </trkpt>
      <trkpt lat="42.829676" lon="-0.426837">
        <ele>2070.7</ele>
        <time>2019-08-31T13:31:07Z</time>
      </trkpt>
      <trkpt lat="42.829742" lon="-0.426735">
        <ele>2069.1</ele>
        <time>2019-08-31T13:31:15Z</time>
      </trkpt>
      <trkpt lat="42.829828" lon="-0.426668">
        <ele>2068.3</ele>
        <time>2019-08-31T13:31:22Z</time>
      </trkpt>
      <trkpt lat="42.829913" lon="-0.426628">
        <ele>2067.4</ele>
        <time>2019-08-31T13:31:29Z</time>
      </trkpt>
      <trkpt lat="42.829989" lon="-0.426635">
        <ele>2066.9</ele>
        <time>2019-08-31T13:31:37Z</time>
      </trkpt>
      <trkpt lat="42.830067" lon="-0.426710">
        <ele>2066.4</ele>
        <time>2019-08-31T13:31:44Z</time>
      </trkpt>
      <trkpt lat="42.830131" lon="-0.426784">
        <ele>2065.5</ele>
        <time>2019-08-31T13:31:51Z</time>
      </trkpt>
      <trkpt lat="42.830215" lon="-0.426755">
        <ele>2064.2</ele>
        <time>2019-08-31T13:31:58Z</time>
      </trkpt>
      <trkpt lat="42.830302" lon="-0.426750">
        <ele>2063.2</ele>
        <time>2019-08-31T13:32:06Z</time>
      </trkpt>
      <trkpt lat="42.830383" lon="-0.426795">
        <ele>2062.0</ele>
        <time>2019-08-31T13:32:13Z</time>
      </trkpt>
      <trkpt lat="42.830473" lon="-0.426826">
        <ele>2060.8</ele>
        <time>2019-08-31T13:32:20Z</time>
      </trkpt>
      <trkpt lat="42.830564" lon="-0.426831">
        <ele>2059.8</ele>
        <time>2019-08-31T13:32:27Z</time>
      </trkpt>
      <trkpt lat="42.830661" lon="-0.426788">
        <ele>2059.9</ele>
        <time>2019-08-31T13:32:35Z</time>
      </trkpt>
      <trkpt lat="42.830751" lon="-0.426778">
        <ele>2058.9</ele>
        <time>2019-08-31T13:32:43Z</time>
      </trkpt>
      <trkpt lat="42.830840" lon="-0.426848">
        <ele>2057.8</ele>
        <time>2019-08-31T13:32:51Z</time>
      </trkpt>
      <trkpt lat="42.830923" lon="-0.426931">
        <ele>2056.8</ele>
        <time>2019-08-31T13:32:59Z</time>
      </trkpt>
      <trkpt lat="42.831015" lon="-0.426891">
        <ele>2056.2</ele>
        <time>2019-08-31T13:33:06Z</time>
      </trkpt>
      <trkpt lat="42.831108" lon="-0.426852">
        <ele>2055.9</ele>
        <time>2019-08-31T13:33:13Z</time>
      </trkpt>
      <trkpt lat="42.831197" lon="-0.426896">
        <ele>2055.3</ele>
        <time>2019-08-31T13:33:21Z</time>
      </trkpt>
      <trkpt lat="42.831293" lon="-0.426943">
        <ele>2054.0</ele>
        <time>2019-08-31T13:33:29Z</time>
      </trkpt>
      <trkpt lat="42.831379" lon="-0.426995">
        <ele>2053.3</ele>
        <time>2019-08-31T13:33:39Z</time>
      </trkpt>
      <trkpt lat="42.831452" lon="-0.427060">
        <ele>2052.3</ele>
        <time>2019-08-31T13:33:49Z</time>
      </trkpt>
      <trkpt lat="42.831542" lon="-0.427107">
        <ele>2052.5</ele>
        <time>2019-08-31T13:33:58Z</time>
      </trkpt>
      <trkpt lat="42.831626" lon="-0.427183">
        <ele>2053.1</ele>
        <time>2019-08-31T13:34:07Z</time>
      </trkpt>
      <trkpt lat="42.831708" lon="-0.427224">
        <ele>2052.4</ele>
        <time>2019-08-31T13:34:15Z</time>
      </trkpt>
      <trkpt lat="42.831810" lon="-0.427220">
        <ele>2051.6</ele>
        <time>2019-08-31T13:34:23Z</time>
      </trkpt>
      <trkpt lat="42.831896" lon="-0.427278">
        <ele>2051.1</ele>
        <time>2019-08-31T13:34:33Z</time>
      </trkpt>
      <trkpt lat="42.831994" lon="-0.427304">
        <ele>2049.1</ele>
        <time>2019-08-31T13:34:43Z</time>
      </trkpt>
      <trkpt lat="42.832098" lon="-0.427279">
        <ele>2047.7</ele>
        <time>2019-08-31T13:34:52Z</time>
      </trkpt>
      <trkpt lat="42.832191" lon="-0.427244">
        <ele>2046.7</ele>
        <time>2019-08-31T13:35:00Z</time>
      </trkpt>
      <trkpt lat="42.832293" lon="-0.427226">
        <ele>2046.3</ele>
        <time>2019-08-31T13:35:08Z</time>
      </trkpt>
      <trkpt lat="42.832385" lon="-0.427270">
        <ele>2046.0</ele>
        <time>2019-08-31T13:35:16Z</time>
      </trkpt>
      <trkpt lat="42.832459" lon="-0.427339">
        <ele>2046.1</ele>
        <time>2019-08-31T13:35:23Z</time>
      </trkpt>
      <trkpt lat="42.832558" lon="-0.427334">
        <ele>2046.0</ele>
        <time>2019-08-31T13:35:31Z</time>
      </trkpt>
      <trkpt lat="42.832656" lon="-0.427332">
        <ele>2045.4</ele>
        <time>2019-08-31T13:35:39Z</time>
      </trkpt>
      <trkpt lat="42.832754" lon="-0.427318">
        <ele>2045.0</ele>
        <time>2019-08-31T13:35:47Z</time>
      </trkpt>
      <trkpt lat="42.832857" lon="-0.427305">
        <ele>2044.3</ele>
        <time>2019-08-31T13:35:55Z</time>
      </trkpt>
      <trkpt lat="42.832957" lon="-0.427306">
        <ele>2043.9</ele>
        <time>2019-08-31T13:36:03Z</time>
      </trkpt>
      <trkpt lat="42.833051" lon="-0.427336">
        <ele>2043.9</ele>
        <time>2019-08-31T13:36:11Z</time>
      </trkpt>
      <trkpt lat="42.833139" lon="-0.427360">
        <ele>2043.9</ele>
        <time>2019-08-31T13:36:18Z</time>
      </trkpt>
      <trkpt lat="42.833226" lon="-0.427394">
        <ele>2043.7</ele>
        <time>2019-08-31T13:36:26Z</time>
      </trkpt>
      <trkpt lat="42.833305" lon="-0.427441">
        <ele>2043.6</ele>
        <time>2019-08-31T13:36:34Z</time>
      </trkpt>
      <trkpt lat="42.833394" lon="-0.427507">
        <ele>2043.4</ele>
        <time>2019-08-31T13:36:42Z</time>
      </trkpt>
      <trkpt lat="42.833482" lon="-0.427562">
        <ele>2042.9</ele>
        <time>2019-08-31T13:36:49Z</time>
      </trkpt>
      <trkpt lat="42.833570" lon="-0.427614">
        <ele>2042.7</ele>
        <time>2019-08-31T13:36:57Z</time>
      </trkpt>
      <trkpt lat="42.833668" lon="-0.427609">
        <ele>2042.7</ele>
        <time>2019-08-31T13:37:05Z</time>
      </trkpt>
      <trkpt lat="42.833766" lon="-0.427593">
        <ele>2042.6</ele>
        <time>2019-08-31T13:37:13Z</time>
      </trkpt>
      <trkpt lat="42.833861" lon="-0.427516">
        <ele>2042.6</ele>
        <time>2019-08-31T13:37:22Z</time>
      </trkpt>
      <trkpt lat="42.833954" lon="-0.427540">
        <ele>2043.0</ele>
        <time>2019-08-31T13:37:30Z</time>
      </trkpt>
      <trkpt lat="42.834040" lon="-0.427599">
        <ele>2042.8</ele>
        <time>2019-08-31T13:37:38Z</time>
      </trkpt>
      <trkpt lat="42.834108" lon="-0.427491">
        <ele>2042.8</ele>
        <time>2019-08-31T13:37:46Z</time>
      </trkpt>
      <trkpt lat="42.834173" lon="-0.427393">
        <ele>2042.9</ele>
        <time>2019-08-31T13:37:54Z</time>
      </trkpt>
      <trkpt lat="42.834257" lon="-0.427334">
        <ele>2041.7</ele>
        <time>2019-08-31T13:38:02Z</time>
      </trkpt>
      <trkpt lat="42.834347" lon="-0.427282">
        <ele>2040.4</ele>
        <time>2019-08-31T13:38:10Z</time>
      </trkpt>
      <trkpt lat="42.834437" lon="-0.427213">
        <ele>2039.2</ele>
        <time>2019-08-31T13:38:18Z</time>
      </trkpt>
      <trkpt lat="42.834529" lon="-0.427152">
        <ele>2039.8</ele>
        <time>2019-08-31T13:38:25Z</time>
      </trkpt>
      <trkpt lat="42.834619" lon="-0.427156">
        <ele>2039.9</ele>
        <time>2019-08-31T13:38:33Z</time>
      </trkpt>
      <trkpt lat="42.834706" lon="-0.427172">
        <ele>2038.7</ele>
        <time>2019-08-31T13:38:42Z</time>
      </trkpt>
      <trkpt lat="42.834797" lon="-0.427175">
        <ele>2037.2</ele>
        <time>2019-08-31T13:38:50Z</time>
      </trkpt>
      <trkpt lat="42.834886" lon="-0.427144">
        <ele>2035.9</ele>
        <time>2019-08-31T13:38:58Z</time>
      </trkpt>
      <trkpt lat="42.834969" lon="-0.427089">
        <ele>2034.1</ele>
        <time>2019-08-31T13:39:08Z</time>
      </trkpt>
      <trkpt lat="42.835067" lon="-0.427054">
        <ele>2032.1</ele>
        <time>2019-08-31T13:39:17Z</time>
      </trkpt>
      <trkpt lat="42.835153" lon="-0.427023">
        <ele>2031.1</ele>
        <time>2019-08-31T13:39:26Z</time>
      </trkpt>
      <trkpt lat="42.835236" lon="-0.427057">
        <ele>2031.0</ele>
        <time>2019-08-31T13:39:36Z</time>
      </trkpt>
      <trkpt lat="42.835315" lon="-0.426982">
        <ele>2029.5</ele>
        <time>2019-08-31T13:39:45Z</time>
      </trkpt>
      <trkpt lat="42.835392" lon="-0.426946">
        <ele>2028.8</ele>
        <time>2019-08-31T13:39:55Z</time>
      </trkpt>
      <trkpt lat="42.835447" lon="-0.426860">
        <ele>2028.9</ele>
        <time>2019-08-31T13:40:04Z</time>
      </trkpt>
      <trkpt lat="42.835510" lon="-0.426945">
        <ele>2030.1</ele>
        <time>2019-08-31T13:40:21Z</time>
      </trkpt>
      <trkpt lat="42.835524" lon="-0.426970">
        <ele>2029.6</ele>
        <time>2019-08-31T13:40:56Z</time>
      </trkpt>
      <trkpt lat="42.835524" lon="-0.426885">
        <ele>2030.0</ele>
        <time>2019-08-31T13:41:24Z</time>
     	   <name>Refuge</name>
	</trkpt>
      <trkpt lat="42.835557" lon="-0.426810">
        <ele>2025.6</ele>
        <time>2019-09-01T03:08:37Z</time>
      </trkpt>
      <trkpt lat="42.835626" lon="-0.426918">
        <ele>2010.7</ele>
        <time>2019-09-01T03:09:49Z</time>
      </trkpt>
      <trkpt lat="42.835703" lon="-0.427071">
        <ele>2007.4</ele>
        <time>2019-09-01T03:10:02Z</time>
      </trkpt>
      <trkpt lat="42.835729" lon="-0.427180">
        <ele>2003.6</ele>
        <time>2019-09-01T03:10:12Z</time>
      </trkpt>
      <trkpt lat="42.835771" lon="-0.427292">
        <ele>2099.9</ele>
        <time>2019-09-01T03:10:21Z</time>
      </trkpt>
      <trkpt lat="42.835850" lon="-0.427324">
        <ele>2097.2</ele>
        <time>2019-09-01T03:10:29Z</time>
      </trkpt>
      <trkpt lat="42.835937" lon="-0.427359">
        <ele>2093.4</ele>
        <time>2019-09-01T03:10:40Z</time>
      </trkpt>
      <trkpt lat="42.836035" lon="-0.427437">
        <ele>2090.8</ele>
        <time>2019-09-01T03:10:48Z</time>
      </trkpt>
      <trkpt lat="42.836113" lon="-0.427546">
        <ele>2088.9</ele>
        <time>2019-09-01T03:10:56Z</time>
      </trkpt>
      <trkpt lat="42.836205" lon="-0.427635">
        <ele>2087.1</ele>
        <time>2019-09-01T03:11:04Z</time>
      </trkpt>
      <trkpt lat="42.836286" lon="-0.427712">
        <ele>2085.1</ele>
        <time>2019-09-01T03:11:12Z</time>
      </trkpt>
      <trkpt lat="42.836354" lon="-0.427832">
        <ele>2084.2</ele>
        <time>2019-09-01T03:11:21Z</time>
      </trkpt>
      <trkpt lat="42.836415" lon="-0.427926">
        <ele>2083.1</ele>
        <time>2019-09-01T03:11:30Z</time>
      </trkpt>
      <trkpt lat="42.836508" lon="-0.427907">
        <ele>2081.4</ele>
        <time>2019-09-01T03:11:39Z</time>
      </trkpt>
      <trkpt lat="42.836603" lon="-0.427822">
        <ele>2079.3</ele>
        <time>2019-09-01T03:11:58Z</time>
      </trkpt>
      <trkpt lat="42.836671" lon="-0.427823">
        <ele>2078.0</ele>
        <time>2019-09-01T03:12:15Z</time>
      </trkpt>
      <trkpt lat="42.836714" lon="-0.427963">
        <ele>2174.8</ele>
        <time>2019-09-01T03:12:35Z</time>
      </trkpt>
      <trkpt lat="42.836763" lon="-0.428074">
        <ele>2170.7</ele>
        <time>2019-09-01T03:12:53Z</time>
      </trkpt>
      <trkpt lat="42.836814" lon="-0.428188">
        <ele>2165.8</ele>
        <time>2019-09-01T03:13:10Z</time>
      </trkpt>
      <trkpt lat="42.836860" lon="-0.428289">
        <ele>2161.7</ele>
        <time>2019-09-01T03:13:28Z</time>
      </trkpt>
      <trkpt lat="42.836929" lon="-0.428377">
        <ele>2158.3</ele>
        <time>2019-09-01T03:13:43Z</time>
      </trkpt>
      <trkpt lat="42.836989" lon="-0.428447">
        <ele>2154.2</ele>
        <time>2019-09-01T03:14:02Z</time>
      </trkpt>
      <trkpt lat="42.837053" lon="-0.428563">
        <ele>2151.1</ele>
        <time>2019-09-01T03:14:19Z</time>
      </trkpt>
      <trkpt lat="42.837106" lon="-0.428679">
        <ele>2148.2</ele>
        <time>2019-09-01T03:14:35Z</time>
      </trkpt>
      <trkpt lat="42.837086" lon="-0.428810">
        <ele>2145.4</ele>
        <time>2019-09-01T03:14:55Z</time>
      </trkpt>
      <trkpt lat="42.837096" lon="-0.428938">
        <ele>2142.4</ele>
        <time>2019-09-01T03:15:15Z</time>
      </trkpt>
      <trkpt lat="42.837078" lon="-0.429073">
        <ele>2137.6</ele>
        <time>2019-09-01T03:15:32Z</time>
      </trkpt>
      <trkpt lat="42.837141" lon="-0.429193">
        <ele>2132.0</ele>
        <time>2019-09-01T03:15:50Z</time>
      </trkpt>
      <trkpt lat="42.837211" lon="-0.429284">
        <ele>2128.3</ele>
        <time>2019-09-01T03:16:06Z</time>
      </trkpt>
      <trkpt lat="42.837291" lon="-0.429196">
        <ele>2124.6</ele>
        <time>2019-09-01T03:16:22Z</time>
      </trkpt>
      <trkpt lat="42.837389" lon="-0.429143">
        <ele>2123.1</ele>
        <time>2019-09-01T03:16:36Z</time>
      </trkpt>
      <trkpt lat="42.837501" lon="-0.429111">
        <ele>2121.0</ele>
        <time>2019-09-01T03:16:54Z</time>
      </trkpt>
      <trkpt lat="42.837604" lon="-0.429097">
        <ele>2118.5</ele>
        <time>2019-09-01T03:17:10Z</time>
      </trkpt>
      <trkpt lat="42.837704" lon="-0.429115">
        <ele>2117.3</ele>
        <time>2019-09-01T03:17:24Z</time>
      </trkpt>
      <trkpt lat="42.837811" lon="-0.429138">
        <ele>2114.4</ele>
        <time>2019-09-01T03:17:41Z</time>
      </trkpt>
      <trkpt lat="42.837911" lon="-0.429102">
        <ele>2112.1</ele>
        <time>2019-09-01T03:17:58Z</time>
      </trkpt>
      <trkpt lat="42.838018" lon="-0.429020">
        <ele>2110.3</ele>
        <time>2019-09-01T03:18:15Z</time>
      </trkpt>
      <trkpt lat="42.838104" lon="-0.428951">
        <ele>2107.7</ele>
        <time>2019-09-01T03:18:30Z</time>
      </trkpt>
      <trkpt lat="42.838176" lon="-0.429026">
        <ele>2104.6</ele>
        <time>2019-09-01T03:18:48Z</time>
      </trkpt>
      <trkpt lat="42.838226" lon="-0.429169">
        <ele>2101.9</ele>
        <time>2019-09-01T03:19:01Z</time>
      </trkpt>
      <trkpt lat="42.838281" lon="-0.429308">
        <ele>2298.6</ele>
        <time>2019-09-01T03:19:14Z</time>
      </trkpt>
      <trkpt lat="42.838336" lon="-0.429452">
        <ele>2294.0</ele>
        <time>2019-09-01T03:19:36Z</time>
      </trkpt>
      <trkpt lat="42.838396" lon="-0.429566">
        <ele>2290.8</ele>
        <time>2019-09-01T03:19:48Z</time>
      </trkpt>
      <trkpt lat="42.838444" lon="-0.429690">
        <ele>2288.0</ele>
        <time>2019-09-01T03:19:59Z</time>
      </trkpt>
      <trkpt lat="42.838472" lon="-0.429807">
        <ele>2284.8</ele>
        <time>2019-09-01T03:20:10Z</time>
      </trkpt>
      <trkpt lat="42.838507" lon="-0.429956">
        <ele>2279.0</ele>
        <time>2019-09-01T03:20:33Z</time>
      </trkpt>
      <trkpt lat="42.838564" lon="-0.430093">
        <ele>2272.2</ele>
        <time>2019-09-01T03:21:00Z</time>
      </trkpt>
      <trkpt lat="42.838566" lon="-0.430208">
        <ele>2271.5</ele>
        <time>2019-09-01T03:21:18Z</time>
      </trkpt>
      <trkpt lat="42.838651" lon="-0.430256">
        <ele>2271.8</ele>
        <time>2019-09-01T03:21:33Z</time>
      </trkpt>
      <trkpt lat="42.838699" lon="-0.430365">
        <ele>2268.6</ele>
        <time>2019-09-01T03:21:54Z</time>
      </trkpt>
      <trkpt lat="42.838798" lon="-0.430417">
        <ele>2264.4</ele>
        <time>2019-09-01T03:22:14Z</time>
      </trkpt>
      <trkpt lat="42.838893" lon="-0.430419">
        <ele>2260.0</ele>
        <time>2019-09-01T03:22:31Z</time>
      </trkpt>
      <trkpt lat="42.838997" lon="-0.430506">
        <ele>2259.2</ele>
        <time>2019-09-01T03:22:43Z</time>
      </trkpt>
      <trkpt lat="42.839099" lon="-0.430561">
        <ele>2258.7</ele>
        <time>2019-09-01T03:22:57Z</time>
      </trkpt>
      <trkpt lat="42.839201" lon="-0.430621">
        <ele>2258.2</ele>
        <time>2019-09-01T03:23:13Z</time>
      </trkpt>
      <trkpt lat="42.839323" lon="-0.430688">
        <ele>2257.6</ele>
        <time>2019-09-01T03:23:32Z</time>
      </trkpt>
      <trkpt lat="42.839438" lon="-0.430721">
        <ele>2256.2</ele>
        <time>2019-09-01T03:23:49Z</time>
      </trkpt>
      <trkpt lat="42.839556" lon="-0.430775">
        <ele>2254.6</ele>
        <time>2019-09-01T03:24:02Z</time>
      </trkpt>
      <trkpt lat="42.839651" lon="-0.430729">
        <ele>2254.2</ele>
        <time>2019-09-01T03:24:14Z</time>
      </trkpt>
      <trkpt lat="42.839759" lon="-0.430798">
        <ele>2253.5</ele>
        <time>2019-09-01T03:24:29Z</time>
      </trkpt>
      <trkpt lat="42.839874" lon="-0.430787">
        <ele>2251.9</ele>
        <time>2019-09-01T03:24:40Z</time>
      </trkpt>
      <trkpt lat="42.839968" lon="-0.430775">
        <ele>2250.3</ele>
        <time>2019-09-01T03:24:49Z</time>
      </trkpt>
      <trkpt lat="42.840065" lon="-0.430700">
        <ele>2248.2</ele>
        <time>2019-09-01T03:24:58Z</time>
      </trkpt>
      <trkpt lat="42.840145" lon="-0.430632">
        <ele>2246.1</ele>
        <time>2019-09-01T03:25:07Z</time>
      </trkpt>
      <trkpt lat="42.840254" lon="-0.430602">
        <ele>2243.9</ele>
        <time>2019-09-01T03:25:20Z</time>
      </trkpt>
      <trkpt lat="42.840350" lon="-0.430546">
        <ele>2243.2</ele>
        <time>2019-09-01T03:25:33Z</time>
      </trkpt>
      <trkpt lat="42.840472" lon="-0.430505">
        <ele>2243.3</ele>
        <time>2019-09-01T03:25:47Z</time>
      </trkpt>
      <trkpt lat="42.840613" lon="-0.430423">
        <ele>2241.9</ele>
        <time>2019-09-01T03:26:05Z</time>
      </trkpt>
      <trkpt lat="42.840642" lon="-0.430404">
        <ele>2239.3</ele>
        <time>2019-09-01T03:26:30Z</time>
      </trkpt>
      <trkpt lat="42.840634" lon="-0.430401">
        <ele>2232.6</ele>
        <time>2019-09-01T03:27:20Z</time>
      </trkpt>
      <trkpt lat="42.840657" lon="-0.430418">
        <ele>2229.8</ele>
        <time>2019-09-01T03:27:43Z</time>
      </trkpt>
      <trkpt lat="42.840598" lon="-0.430452">
        <ele>2227.1</ele>
        <time>2019-09-01T03:28:06Z</time>
      </trkpt>
      <trkpt lat="42.840622" lon="-0.430447">
        <ele>2223.7</ele>
        <time>2019-09-01T03:28:43Z</time>
      </trkpt>
      <trkpt lat="42.840672" lon="-0.430344">
        <ele>2221.6</ele>
        <time>2019-09-01T03:28:57Z</time>
      </trkpt>
      <trkpt lat="42.840758" lon="-0.430301">
        <ele>2220.9</ele>
        <time>2019-09-01T03:29:15Z</time>
      </trkpt>
      <trkpt lat="42.840839" lon="-0.430239">
        <ele>2220.6</ele>
        <time>2019-09-01T03:29:29Z</time>
      </trkpt>
      <trkpt lat="42.840910" lon="-0.430159">
        <ele>2220.4</ele>
        <time>2019-09-01T03:29:42Z</time>
      </trkpt>
      <trkpt lat="42.840990" lon="-0.430080">
        <ele>2219.1</ele>
        <time>2019-09-01T03:29:55Z</time>
      </trkpt>
      <trkpt lat="42.841074" lon="-0.430023">
        <ele>2218.1</ele>
        <time>2019-09-01T03:30:06Z</time>
      </trkpt>
      <trkpt lat="42.841146" lon="-0.429942">
        <ele>2218.0</ele>
        <time>2019-09-01T03:30:16Z</time>
      </trkpt>
      <trkpt lat="42.841217" lon="-0.429842">
        <ele>2218.4</ele>
        <time>2019-09-01T03:30:29Z</time>
      </trkpt>
      <trkpt lat="42.841282" lon="-0.429744">
        <ele>2218.5</ele>
        <time>2019-09-01T03:30:39Z</time>
      </trkpt>
      <trkpt lat="42.841343" lon="-0.429651">
        <ele>2218.0</ele>
        <time>2019-09-01T03:30:48Z</time>
      </trkpt>
      <trkpt lat="42.841402" lon="-0.429557">
        <ele>2217.8</ele>
        <time>2019-09-01T03:30:57Z</time>
      </trkpt>
      <trkpt lat="42.841494" lon="-0.429512">
        <ele>2217.3</ele>
        <time>2019-09-01T03:31:07Z</time>
      </trkpt>
      <trkpt lat="42.841573" lon="-0.429456">
        <ele>2216.8</ele>
        <time>2019-09-01T03:31:23Z</time>
      </trkpt>
      <trkpt lat="42.841615" lon="-0.429350">
        <ele>2216.4</ele>
        <time>2019-09-01T03:31:39Z</time>
      </trkpt>
      <trkpt lat="42.841663" lon="-0.429241">
        <ele>2216.0</ele>
        <time>2019-09-01T03:31:55Z</time>
      </trkpt>
      <trkpt lat="42.841676" lon="-0.429124">
        <ele>2215.1</ele>
        <time>2019-09-01T03:32:07Z</time>
      </trkpt>
      <trkpt lat="42.841737" lon="-0.429024">
        <ele>2214.5</ele>
        <time>2019-09-01T03:32:20Z</time>
      </trkpt>
      <trkpt lat="42.841799" lon="-0.428954">
        <ele>2213.8</ele>
        <time>2019-09-01T03:32:35Z</time>
      </trkpt>
      <trkpt lat="42.841863" lon="-0.428876">
        <ele>2213.3</ele>
        <time>2019-09-01T03:32:49Z</time>
      </trkpt>
      <trkpt lat="42.841925" lon="-0.428790">
        <ele>2213.4</ele>
        <time>2019-09-01T03:33:03Z</time>
      </trkpt>
      <trkpt lat="42.841983" lon="-0.428720">
        <ele>2213.4</ele>
        <time>2019-09-01T03:33:17Z</time>
      </trkpt>
      <trkpt lat="42.842036" lon="-0.428632">
        <ele>2212.1</ele>
        <time>2019-09-01T03:33:30Z</time>
      </trkpt>
      <trkpt lat="42.842095" lon="-0.428554">
        <ele>2209.9</ele>
        <time>2019-09-01T03:33:51Z</time>
      </trkpt>
      <trkpt lat="42.842172" lon="-0.428489">
        <ele>2208.7</ele>
        <time>2019-09-01T03:34:02Z</time>
      </trkpt>
      <trkpt lat="42.842250" lon="-0.428430">
        <ele>2208.4</ele>
        <time>2019-09-01T03:34:14Z</time>
      </trkpt>
      <trkpt lat="42.842319" lon="-0.428358">
        <ele>2207.4</ele>
        <time>2019-09-01T03:34:25Z</time>
      </trkpt>
      <trkpt lat="42.842378" lon="-0.428274">
        <ele>2206.2</ele>
        <time>2019-09-01T03:34:36Z</time>
      </trkpt>
      <trkpt lat="42.842448" lon="-0.428216">
        <ele>2205.5</ele>
        <time>2019-09-01T03:34:45Z</time>
      </trkpt>
      <trkpt lat="42.842520" lon="-0.428129">
        <ele>2204.8</ele>
        <time>2019-09-01T03:34:54Z</time>
      </trkpt>
      <trkpt lat="42.842541" lon="-0.427998">
        <ele>2203.4</ele>
        <time>2019-09-01T03:35:02Z</time>
      </trkpt>
      <trkpt lat="42.842561" lon="-0.427872">
        <ele>2202.4</ele>
        <time>2019-09-01T03:35:10Z</time>
      </trkpt>
      <trkpt lat="42.842593" lon="-0.427736">
        <ele>2201.4</ele>
        <time>2019-09-01T03:35:19Z</time>
      </trkpt>
      <trkpt lat="42.842629" lon="-0.427630">
        <ele>2200.7</ele>
        <time>2019-09-01T03:35:27Z</time>
      </trkpt>
      <trkpt lat="42.842660" lon="-0.427508">
        <ele>2200.3</ele>
        <time>2019-09-01T03:35:35Z</time>
      </trkpt>
      <trkpt lat="42.842670" lon="-0.427366">
        <ele>2200.0</ele>
        <time>2019-09-01T03:35:43Z</time>
      </trkpt>
      <trkpt lat="42.842696" lon="-0.427254">
        <ele>2199.8</ele>
        <time>2019-09-01T03:35:51Z</time>
      </trkpt>
      <trkpt lat="42.842743" lon="-0.427152">
        <ele>2199.9</ele>
        <time>2019-09-01T03:35:59Z</time>
      </trkpt>
      <trkpt lat="42.842794" lon="-0.427028">
        <ele>2200.0</ele>
        <time>2019-09-01T03:36:08Z</time>
      </trkpt>
      <trkpt lat="42.842850" lon="-0.426920">
        <ele>2199.2</ele>
        <time>2019-09-01T03:36:16Z</time>
      </trkpt>
      <trkpt lat="42.842918" lon="-0.426848">
        <ele>2198.8</ele>
        <time>2019-09-01T03:36:25Z</time>
      </trkpt>
      <trkpt lat="42.843003" lon="-0.426783">
        <ele>2199.4</ele>
        <time>2019-09-01T03:36:35Z</time>
      </trkpt>
      <trkpt lat="42.843078" lon="-0.426715">
        <ele>2199.1</ele>
        <time>2019-09-01T03:36:46Z</time>
      </trkpt>
      <trkpt lat="42.843149" lon="-0.426640">
        <ele>2199.3</ele>
        <time>2019-09-01T03:36:56Z</time>
      </trkpt>
      <trkpt lat="42.843222" lon="-0.426567">
        <ele>2199.2</ele>
        <time>2019-09-01T03:37:06Z</time>
      </trkpt>
      <trkpt lat="42.843307" lon="-0.426491">
        <ele>2199.3</ele>
        <time>2019-09-01T03:37:17Z</time>
      </trkpt>
      <trkpt lat="42.843382" lon="-0.426398">
        <ele>2199.8</ele>
        <time>2019-09-01T03:37:28Z</time>
      </trkpt>
      <trkpt lat="42.843440" lon="-0.426288">
        <ele>2199.8</ele>
        <time>2019-09-01T03:37:38Z</time>
      </trkpt>
      <trkpt lat="42.843512" lon="-0.426199">
        <ele>2200.4</ele>
        <time>2019-09-01T03:37:49Z</time>
      </trkpt>
      <trkpt lat="42.843578" lon="-0.426118">
        <ele>2201.0</ele>
        <time>2019-09-01T03:38:00Z</time>
      </trkpt>
      <trkpt lat="42.843647" lon="-0.426038">
        <ele>2202.1</ele>
        <time>2019-09-01T03:38:11Z</time>
      </trkpt>
      <trkpt lat="42.843741" lon="-0.426001">
        <ele>2203.2</ele>
        <time>2019-09-01T03:38:22Z</time>
      </trkpt>
      <trkpt lat="42.843816" lon="-0.425953">
        <ele>2203.6</ele>
        <time>2019-09-01T03:38:31Z</time>
      </trkpt>
      <trkpt lat="42.843896" lon="-0.425892">
        <ele>2203.7</ele>
        <time>2019-09-01T03:38:41Z</time>
      </trkpt>
      <trkpt lat="42.843987" lon="-0.425845">
        <ele>2204.3</ele>
        <time>2019-09-01T03:38:52Z</time>
      </trkpt>
      <trkpt lat="42.844032" lon="-0.425743">
        <ele>2204.5</ele>
        <time>2019-09-01T03:39:04Z</time>
      </trkpt>
      <trkpt lat="42.844048" lon="-0.425629">
        <ele>2205.7</ele>
        <time>2019-09-01T03:39:15Z</time>
      </trkpt>
      <trkpt lat="42.844132" lon="-0.425569">
        <ele>2206.8</ele>
        <time>2019-09-01T03:39:25Z</time>
      </trkpt>
      <trkpt lat="42.844214" lon="-0.425520">
        <ele>2207.1</ele>
        <time>2019-09-01T03:39:36Z</time>
      </trkpt>
      <trkpt lat="42.844284" lon="-0.425456">
        <ele>2207.4</ele>
        <time>2019-09-01T03:39:47Z</time>
      </trkpt>
      <trkpt lat="42.844319" lon="-0.425345">
        <ele>2208.3</ele>
        <time>2019-09-01T03:39:59Z</time>
      </trkpt>
      <trkpt lat="42.844380" lon="-0.425253">
        <ele>2209.2</ele>
        <time>2019-09-01T03:40:11Z</time>
      </trkpt>
      <trkpt lat="42.844438" lon="-0.425152">
        <ele>2210.6</ele>
        <time>2019-09-01T03:40:22Z</time>
      </trkpt>
      <trkpt lat="42.844506" lon="-0.425071">
        <ele>2211.2</ele>
        <time>2019-09-01T03:40:32Z</time>
      </trkpt>
      <trkpt lat="42.844585" lon="-0.425003">
        <ele>2212.3</ele>
        <time>2019-09-01T03:40:45Z</time>
      </trkpt>
      <trkpt lat="42.844635" lon="-0.424892">
        <ele>2214.0</ele>
        <time>2019-09-01T03:40:59Z</time>
      </trkpt>
      <trkpt lat="42.844696" lon="-0.424807">
        <ele>2215.2</ele>
        <time>2019-09-01T03:41:11Z</time>
      </trkpt>
      <trkpt lat="42.844773" lon="-0.424742">
        <ele>2216.6</ele>
        <time>2019-09-01T03:41:23Z</time>
      </trkpt>
      <trkpt lat="42.844863" lon="-0.424720">
        <ele>2217.8</ele>
        <time>2019-09-01T03:41:36Z</time>
      </trkpt>
      <trkpt lat="42.844955" lon="-0.424712">
        <ele>2218.3</ele>
        <time>2019-09-01T03:41:48Z</time>
      </trkpt>
      <trkpt lat="42.845052" lon="-0.424709">
        <ele>2219.2</ele>
        <time>2019-09-01T03:42:00Z</time>
      </trkpt>
      <trkpt lat="42.845143" lon="-0.424708">
        <ele>2220.0</ele>
        <time>2019-09-01T03:42:15Z</time>
      </trkpt>
      <trkpt lat="42.845235" lon="-0.424691">
        <ele>2221.5</ele>
        <time>2019-09-01T03:42:30Z</time>
      </trkpt>
      <trkpt lat="42.845327" lon="-0.424774">
        <ele>2221.9</ele>
        <time>2019-09-01T03:42:42Z</time>
      </trkpt>
      <trkpt lat="42.845398" lon="-0.424724">
        <ele>2222.2</ele>
        <time>2019-09-01T03:42:55Z</time>
      </trkpt>
      <trkpt lat="42.845497" lon="-0.424746">
        <ele>2222.8</ele>
        <time>2019-09-01T03:43:08Z</time>
      </trkpt>
      <trkpt lat="42.845587" lon="-0.424768">
        <ele>2223.0</ele>
        <time>2019-09-01T03:43:18Z</time>
      </trkpt>
      <trkpt lat="42.845637" lon="-0.424680">
        <ele>2223.2</ele>
        <time>2019-09-01T03:43:28Z</time>
      </trkpt>
      <trkpt lat="42.845728" lon="-0.424636">
        <ele>2223.8</ele>
        <time>2019-09-01T03:43:39Z</time>
      </trkpt>
      <trkpt lat="42.845799" lon="-0.424559">
        <ele>2224.0</ele>
        <time>2019-09-01T03:43:50Z</time>
      </trkpt>
      <trkpt lat="42.845885" lon="-0.424492">
        <ele>2224.9</ele>
        <time>2019-09-01T03:44:01Z</time>
      </trkpt>
      <trkpt lat="42.845960" lon="-0.424423">
        <ele>2225.8</ele>
        <time>2019-09-01T03:44:14Z</time>
      </trkpt>
      <trkpt lat="42.846039" lon="-0.424353">
        <ele>2227.2</ele>
        <time>2019-09-01T03:44:26Z</time>
      </trkpt>
      <trkpt lat="42.846121" lon="-0.424297">
        <ele>2227.5</ele>
        <time>2019-09-01T03:44:36Z</time>
      </trkpt>
      <trkpt lat="42.846204" lon="-0.424226">
        <ele>2227.9</ele>
        <time>2019-09-01T03:44:48Z</time>
      </trkpt>
      <trkpt lat="42.846291" lon="-0.424153">
        <ele>2228.6</ele>
        <time>2019-09-01T03:45:00Z</time>
      </trkpt>
      <trkpt lat="42.846364" lon="-0.424083">
        <ele>2229.0</ele>
        <time>2019-09-01T03:45:12Z</time>
      </trkpt>
      <trkpt lat="42.846426" lon="-0.424008">
        <ele>2230.4</ele>
        <time>2019-09-01T03:45:23Z</time>
      </trkpt>
      <trkpt lat="42.846488" lon="-0.423936">
        <ele>2230.5</ele>
        <time>2019-09-01T03:45:34Z</time>
      </trkpt>
      <trkpt lat="42.846569" lon="-0.423860">
        <ele>2230.9</ele>
        <time>2019-09-01T03:45:44Z</time>
      </trkpt>
      <trkpt lat="42.846649" lon="-0.423791">
        <ele>2231.7</ele>
        <time>2019-09-01T03:45:55Z</time>
      </trkpt>
      <trkpt lat="42.846711" lon="-0.423706">
        <ele>2233.1</ele>
        <time>2019-09-01T03:46:06Z</time>
      </trkpt>
      <trkpt lat="42.846789" lon="-0.423649">
        <ele>2234.3</ele>
        <time>2019-09-01T03:46:17Z</time>
      </trkpt>
      <trkpt lat="42.846870" lon="-0.423581">
        <ele>2234.9</ele>
        <time>2019-09-01T03:46:27Z</time>
      </trkpt>
      <trkpt lat="42.846935" lon="-0.423503">
        <ele>2235.5</ele>
        <time>2019-09-01T03:46:37Z</time>
      </trkpt>
      <trkpt lat="42.846996" lon="-0.423423">
        <ele>2236.9</ele>
        <time>2019-09-01T03:46:49Z</time>
        <name>Col Suzon</name>
      </trkpt>
      <trkpt lat="42.847036" lon="-0.423511">
        <ele>2237.7</ele>
        <time>2019-09-01T03:47:09Z</time>
      </trkpt>
      <trkpt lat="42.847060" lon="-0.423638">
        <ele>2240.2</ele>
        <time>2019-09-01T03:47:31Z</time>
      </trkpt>
      <trkpt lat="42.847018" lon="-0.423722">
        <ele>2239.6</ele>
        <time>2019-09-01T03:48:51Z</time>
      </trkpt>
      <trkpt lat="42.846963" lon="-0.423831">
        <ele>2237.9</ele>
        <time>2019-09-01T03:49:03Z</time>
      </trkpt>
      <trkpt lat="42.846923" lon="-0.423929">
        <ele>2237.5</ele>
        <time>2019-09-01T03:49:14Z</time>
      </trkpt>
      <trkpt lat="42.846883" lon="-0.424029">
        <ele>2239.1</ele>
        <time>2019-09-01T03:49:27Z</time>
      </trkpt>
      <trkpt lat="42.846863" lon="-0.424143">
        <ele>2240.6</ele>
        <time>2019-09-01T03:49:44Z</time>
      </trkpt>
      <trkpt lat="42.846860" lon="-0.424251">
        <ele>2242.3</ele>
        <time>2019-09-01T03:50:04Z</time>
      </trkpt>
      <trkpt lat="42.846855" lon="-0.424375">
        <ele>2243.9</ele>
        <time>2019-09-01T03:50:16Z</time>
      </trkpt>
      <trkpt lat="42.846831" lon="-0.424490">
        <ele>2245.1</ele>
        <time>2019-09-01T03:50:26Z</time>
      </trkpt>
      <trkpt lat="42.846780" lon="-0.424605">
        <ele>2245.3</ele>
        <time>2019-09-01T03:50:37Z</time>
      </trkpt>
      <trkpt lat="42.846742" lon="-0.424708">
        <ele>2244.6</ele>
        <time>2019-09-01T03:50:51Z</time>
      </trkpt>
      <trkpt lat="42.846698" lon="-0.424831">
        <ele>2245.7</ele>
        <time>2019-09-01T03:51:02Z</time>
      </trkpt>
      <trkpt lat="42.846647" lon="-0.424937">
        <ele>2246.3</ele>
        <time>2019-09-01T03:51:11Z</time>
      </trkpt>
      <trkpt lat="42.846604" lon="-0.425051">
        <ele>2246.7</ele>
        <time>2019-09-01T03:51:21Z</time>
      </trkpt>
      <trkpt lat="42.846543" lon="-0.425161">
        <ele>2246.8</ele>
        <time>2019-09-01T03:51:31Z</time>
      </trkpt>
      <trkpt lat="42.846480" lon="-0.425271">
        <ele>2246.7</ele>
        <time>2019-09-01T03:51:41Z</time>
      </trkpt>
      <trkpt lat="42.846429" lon="-0.425377">
        <ele>2246.9</ele>
        <time>2019-09-01T03:51:51Z</time>
      </trkpt>
      <trkpt lat="42.846399" lon="-0.425494">
        <ele>2248.6</ele>
        <time>2019-09-01T03:52:02Z</time>
      </trkpt>
      <trkpt lat="42.846334" lon="-0.425596">
        <ele>2249.5</ele>
        <time>2019-09-01T03:52:13Z</time>
      </trkpt>
      <trkpt lat="42.846274" lon="-0.425697">
        <ele>2249.5</ele>
        <time>2019-09-01T03:52:24Z</time>
      </trkpt>
      <trkpt lat="42.846209" lon="-0.425793">
        <ele>2250.3</ele>
        <time>2019-09-01T03:52:38Z</time>
      </trkpt>
      <trkpt lat="42.846162" lon="-0.425880">
        <ele>2250.7</ele>
        <time>2019-09-01T03:53:10Z</time>
      </trkpt>
      <trkpt lat="42.846097" lon="-0.425981">
        <ele>2251.1</ele>
        <time>2019-09-01T03:53:23Z</time>
      </trkpt>
      <trkpt lat="42.846056" lon="-0.426088">
        <ele>2253.2</ele>
        <time>2019-09-01T03:53:38Z</time>
      </trkpt>
      <trkpt lat="42.846003" lon="-0.426187">
        <ele>2255.8</ele>
        <time>2019-09-01T03:53:54Z</time>
      </trkpt>
      <trkpt lat="42.845958" lon="-0.426288">
        <ele>2257.3</ele>
        <time>2019-09-01T03:54:16Z</time>
      </trkpt>
      <trkpt lat="42.845917" lon="-0.426394">
        <ele>2258.6</ele>
        <time>2019-09-01T03:54:34Z</time>
      </trkpt>
      <trkpt lat="42.845867" lon="-0.426496">
        <ele>2261.1</ele>
        <time>2019-09-01T03:54:53Z</time>
      </trkpt>
      <trkpt lat="42.845817" lon="-0.426603">
        <ele>2263.1</ele>
        <time>2019-09-01T03:55:12Z</time>
      </trkpt>
      <trkpt lat="42.845763" lon="-0.426702">
        <ele>2265.2</ele>
        <time>2019-09-01T03:55:28Z</time>
      </trkpt>
      <trkpt lat="42.845709" lon="-0.426801">
        <ele>2266.8</ele>
        <time>2019-09-01T03:55:40Z</time>
      </trkpt>
      <trkpt lat="42.845648" lon="-0.426892">
        <ele>2268.1</ele>
        <time>2019-09-01T03:55:59Z</time>
      </trkpt>
      <trkpt lat="42.845628" lon="-0.426973">
        <ele>2266.5</ele>
        <time>2019-09-01T03:57:15Z</time>
      </trkpt>
      <trkpt lat="42.845595" lon="-0.427087">
        <ele>2265.7</ele>
        <time>2019-09-01T03:57:27Z</time>
      </trkpt>
      <trkpt lat="42.845589" lon="-0.427212">
        <ele>2264.1</ele>
        <time>2019-09-01T03:57:38Z</time>
      </trkpt>
      <trkpt lat="42.845585" lon="-0.427334">
        <ele>2262.3</ele>
        <time>2019-09-01T03:57:47Z</time>
      </trkpt>
      <trkpt lat="42.845593" lon="-0.427461">
        <ele>2261.7</ele>
        <time>2019-09-01T03:57:57Z</time>
      </trkpt>
      <trkpt lat="42.845594" lon="-0.427584">
        <ele>2261.8</ele>
        <time>2019-09-01T03:58:07Z</time>
      </trkpt>
      <trkpt lat="42.845617" lon="-0.427714">
        <ele>2262.0</ele>
        <time>2019-09-01T03:58:21Z</time>
      </trkpt>
      <trkpt lat="42.845669" lon="-0.427827">
        <ele>2262.6</ele>
        <time>2019-09-01T03:58:35Z</time>
      </trkpt>
      <trkpt lat="42.845723" lon="-0.427934">
        <ele>2262.4</ele>
        <time>2019-09-01T03:58:48Z</time>
      </trkpt>
      <trkpt lat="42.845790" lon="-0.428033">
        <ele>2261.7</ele>
        <time>2019-09-01T03:59:04Z</time>
      </trkpt>
      <trkpt lat="42.845887" lon="-0.428101">
        <ele>2261.0</ele>
        <time>2019-09-01T03:59:16Z</time>
      </trkpt>
      <trkpt lat="42.845963" lon="-0.428164">
        <ele>2260.3</ele>
        <time>2019-09-01T03:59:28Z</time>
      </trkpt>
      <trkpt lat="42.846046" lon="-0.428220">
        <ele>2259.0</ele>
        <time>2019-09-01T03:59:51Z</time>
      </trkpt>
      <trkpt lat="42.846130" lon="-0.428281">
        <ele>2257.8</ele>
        <time>2019-09-01T04:00:02Z</time>
      </trkpt>
      <trkpt lat="42.846206" lon="-0.428349">
        <ele>2257.0</ele>
        <time>2019-09-01T04:00:12Z</time>
      </trkpt>
      <trkpt lat="42.846250" lon="-0.428429">
        <ele>2257.0</ele>
        <time>2019-09-01T04:00:24Z</time>
      </trkpt>
      <trkpt lat="42.846287" lon="-0.428535">
        <ele>2257.2</ele>
        <time>2019-09-01T04:00:34Z</time>
      </trkpt>
      <trkpt lat="42.846288" lon="-0.428660">
        <ele>2257.2</ele>
        <time>2019-09-01T04:00:45Z</time>
      </trkpt>
      <trkpt lat="42.846337" lon="-0.428774">
        <ele>2257.4</ele>
        <time>2019-09-01T04:01:00Z</time>
      </trkpt>
      <trkpt lat="42.846387" lon="-0.428880">
        <ele>2257.0</ele>
        <time>2019-09-01T04:01:13Z</time>
      </trkpt>
      <trkpt lat="42.846443" lon="-0.428979">
        <ele>2257.4</ele>
        <time>2019-09-01T04:01:29Z</time>
      </trkpt>
      <trkpt lat="42.846480" lon="-0.429093">
        <ele>2257.4</ele>
        <time>2019-09-01T04:01:43Z</time>
      </trkpt>
      <trkpt lat="42.846554" lon="-0.429190">
        <ele>2257.4</ele>
        <time>2019-09-01T04:02:01Z</time>
      </trkpt>
      <trkpt lat="42.846626" lon="-0.429276">
        <ele>2257.5</ele>
        <time>2019-09-01T04:02:14Z</time>
      </trkpt>
      <trkpt lat="42.846699" lon="-0.429359">
        <ele>2257.3</ele>
        <time>2019-09-01T04:02:30Z</time>
      </trkpt>
      <trkpt lat="42.846763" lon="-0.429442">
        <ele>2256.9</ele>
        <time>2019-09-01T04:02:40Z</time>
      </trkpt>
      <trkpt lat="42.846825" lon="-0.429537">
        <ele>2255.4</ele>
        <time>2019-09-01T04:02:51Z</time>
      </trkpt>
      <trkpt lat="42.846851" lon="-0.429658">
        <ele>2254.6</ele>
        <time>2019-09-01T04:03:11Z</time>
      </trkpt>
      <trkpt lat="42.846932" lon="-0.429724">
        <ele>2255.5</ele>
        <time>2019-09-01T04:03:28Z</time>
      </trkpt>
      <trkpt lat="42.847030" lon="-0.429805">
        <ele>2254.9</ele>
        <time>2019-09-01T04:03:42Z</time>
      </trkpt>
      <trkpt lat="42.847103" lon="-0.429881">
        <ele>2254.7</ele>
        <time>2019-09-01T04:03:53Z</time>
      </trkpt>
      <trkpt lat="42.847191" lon="-0.429945">
        <ele>2255.5</ele>
        <time>2019-09-01T04:04:11Z</time>
      </trkpt>
      <trkpt lat="42.847276" lon="-0.429957">
        <ele>2256.6</ele>
        <time>2019-09-01T04:04:23Z</time>
      </trkpt>
      <trkpt lat="42.847364" lon="-0.429986">
        <ele>2257.8</ele>
        <time>2019-09-01T04:04:40Z</time>
      </trkpt>
      <trkpt lat="42.847428" lon="-0.430065">
        <ele>2259.0</ele>
        <time>2019-09-01T04:04:56Z</time>
      </trkpt>
      <trkpt lat="42.847482" lon="-0.430151">
        <ele>2259.7</ele>
        <time>2019-09-01T04:05:19Z</time>
      </trkpt>
      <trkpt lat="42.847549" lon="-0.430226">
        <ele>2261.4</ele>
        <time>2019-09-01T04:05:38Z</time>
      </trkpt>
      <trkpt lat="42.847638" lon="-0.430288">
        <ele>2262.1</ele>
        <time>2019-09-01T04:06:01Z</time>
      </trkpt>
      <trkpt lat="42.847710" lon="-0.430359">
        <ele>2262.5</ele>
        <time>2019-09-01T04:06:13Z</time>
      </trkpt>
      <trkpt lat="42.847787" lon="-0.430415">
        <ele>2263.6</ele>
        <time>2019-09-01T04:06:25Z</time>
      </trkpt>
      <trkpt lat="42.847868" lon="-0.430474">
        <ele>2263.2</ele>
        <time>2019-09-01T04:06:41Z</time>
      </trkpt>
      <trkpt lat="42.847945" lon="-0.430512">
        <ele>2263.0</ele>
        <time>2019-09-01T04:07:49Z</time>
      </trkpt>
      <trkpt lat="42.848022" lon="-0.430555">
        <ele>2262.2</ele>
        <time>2019-09-01T04:08:09Z</time>
      </trkpt>
      <trkpt lat="42.848118" lon="-0.430560">
        <ele>2260.9</ele>
        <time>2019-09-01T04:08:25Z</time>
      </trkpt>
      <trkpt lat="42.848207" lon="-0.430556">
        <ele>2262.0</ele>
        <time>2019-09-01T04:08:49Z</time>
      </trkpt>
      <trkpt lat="42.848285" lon="-0.430590">
        <ele>2262.4</ele>
        <time>2019-09-01T04:09:10Z</time>
      </trkpt>
      <trkpt lat="42.848372" lon="-0.430632">
        <ele>2264.8</ele>
        <time>2019-09-01T04:09:50Z</time>
      </trkpt>
      <trkpt lat="42.848461" lon="-0.430665">
        <ele>2267.9</ele>
        <time>2019-09-01T04:10:28Z</time>
      </trkpt>
      <trkpt lat="42.848512" lon="-0.430774">
        <ele>2269.8</ele>
        <time>2019-09-01T04:10:42Z</time>
      </trkpt>
      <trkpt lat="42.848593" lon="-0.430839">
        <ele>2271.3</ele>
        <time>2019-09-01T04:11:01Z</time>
      </trkpt>
      <trkpt lat="42.848654" lon="-0.430895">
        <ele>2272.4</ele>
        <time>2019-09-01T04:11:36Z</time>
      </trkpt>
      <trkpt lat="42.848672" lon="-0.430982">
        <ele>2278.9</ele>
        <time>2019-09-01T04:12:34Z</time>
      </trkpt>
      <trkpt lat="42.848718" lon="-0.431031">
        <ele>2284.4</ele>
        <time>2019-09-01T04:13:14Z</time>
      </trkpt>
      <trkpt lat="42.848727" lon="-0.431131">
        <ele>2284.4</ele>
        <time>2019-09-01T04:14:12Z</time>
        <name>Breche Moundelhs</name>
      </trkpt>
      <trkpt lat="42.848714" lon="-0.431243">
        <ele>2279.0</ele>
        <time>2019-09-01T04:14:43Z</time>
      </trkpt>
      <trkpt lat="42.848734" lon="-0.431319">
        <ele>2273.8</ele>
        <time>2019-09-01T04:15:16Z</time>
      </trkpt>
      <trkpt lat="42.848749" lon="-0.431394">
        <ele>2271.3</ele>
        <time>2019-09-01T04:15:32Z</time>
      </trkpt>
      <trkpt lat="42.848764" lon="-0.431503">
        <ele>2268.3</ele>
        <time>2019-09-01T04:15:52Z</time>
      </trkpt>
      <trkpt lat="42.848754" lon="-0.431629">
        <ele>2265.6</ele>
        <time>2019-09-01T04:16:37Z</time>
      </trkpt>
      <trkpt lat="42.848727" lon="-0.431723">
        <ele>2261.6</ele>
        <time>2019-09-01T04:17:11Z</time>
      </trkpt>
      <trkpt lat="42.848704" lon="-0.431819">
        <ele>2259.6</ele>
        <time>2019-09-01T04:17:39Z</time>
      </trkpt>
      <trkpt lat="42.848683" lon="-0.431897">
        <ele>2255.9</ele>
        <time>2019-09-01T04:18:04Z</time>
      </trkpt>
      <trkpt lat="42.848668" lon="-0.431961">
        <ele>2253.4</ele>
        <time>2019-09-01T04:18:22Z</time>
      </trkpt>
      <trkpt lat="42.848659" lon="-0.432058">
        <ele>2248.8</ele>
        <time>2019-09-01T04:18:45Z</time>
      </trkpt>
      <trkpt lat="42.848669" lon="-0.432173">
        <ele>2243.3</ele>
        <time>2019-09-01T04:19:17Z</time>
      </trkpt>
      <trkpt lat="42.848650" lon="-0.432290">
        <ele>2240.2</ele>
        <time>2019-09-01T04:19:36Z</time>
      </trkpt>
      <trkpt lat="42.848642" lon="-0.432398">
        <ele>2236.1</ele>
        <time>2019-09-01T04:19:57Z</time>
      </trkpt>
      <trkpt lat="42.848611" lon="-0.432481">
        <ele>2231.3</ele>
        <time>2019-09-01T04:20:27Z</time>
      </trkpt>
      <trkpt lat="42.848567" lon="-0.432536">
        <ele>2227.8</ele>
        <time>2019-09-01T04:20:53Z</time>
      </trkpt>
      <trkpt lat="42.848571" lon="-0.432616">
        <ele>2222.6</ele>
        <time>2019-09-01T04:21:21Z</time>
      </trkpt>
      <trkpt lat="42.848549" lon="-0.432733">
        <ele>2220.9</ele>
        <time>2019-09-01T04:21:32Z</time>
      </trkpt>
      <trkpt lat="42.848534" lon="-0.432814">
        <ele>2222.2</ele>
        <time>2019-09-01T04:21:58Z</time>
      </trkpt>
      <trkpt lat="42.848521" lon="-0.432937">
        <ele>2221.4</ele>
        <time>2019-09-01T04:22:13Z</time>
      </trkpt>
      <trkpt lat="42.848482" lon="-0.433062">
        <ele>2221.0</ele>
        <time>2019-09-01T04:22:34Z</time>
      </trkpt>
      <trkpt lat="42.848464" lon="-0.433171">
        <ele>2220.4</ele>
        <time>2019-09-01T04:22:54Z</time>
      </trkpt>
      <trkpt lat="42.848415" lon="-0.433247">
        <ele>2223.3</ele>
        <time>2019-09-01T04:23:21Z</time>
      </trkpt>
      <trkpt lat="42.848363" lon="-0.433312">
        <ele>2224.0</ele>
        <time>2019-09-01T04:24:06Z</time>
      </trkpt>
      <trkpt lat="42.848338" lon="-0.433417">
        <ele>2225.4</ele>
        <time>2019-09-01T04:24:27Z</time>
      </trkpt>
      <trkpt lat="42.848337" lon="-0.433535">
        <ele>2227.0</ele>
        <time>2019-09-01T04:25:00Z</time>
      </trkpt>
      <trkpt lat="42.848327" lon="-0.433653">
        <ele>2229.0</ele>
        <time>2019-09-01T04:25:22Z</time>
      </trkpt>
      <trkpt lat="42.848313" lon="-0.433770">
        <ele>2227.1</ele>
        <time>2019-09-01T04:25:49Z</time>
      </trkpt>
      <trkpt lat="42.848289" lon="-0.433884">
        <ele>2225.1</ele>
        <time>2019-09-01T04:26:41Z</time>
      </trkpt>
      <trkpt lat="42.848266" lon="-0.433984">
        <ele>2226.6</ele>
        <time>2019-09-01T04:27:20Z</time>
      </trkpt>
      <trkpt lat="42.848251" lon="-0.434090">
        <ele>2228.6</ele>
        <time>2019-09-01T04:27:49Z</time>
      </trkpt>
      <trkpt lat="42.848250" lon="-0.434216">
        <ele>2228.6</ele>
        <time>2019-09-01T04:28:08Z</time>
      </trkpt>
      <trkpt lat="42.848261" lon="-0.434338">
        <ele>2228.2</ele>
        <time>2019-09-01T04:28:49Z</time>
      </trkpt>
      <trkpt lat="42.848257" lon="-0.434457">
        <ele>2228.6</ele>
        <time>2019-09-01T04:29:08Z</time>
      </trkpt>
      <trkpt lat="42.848263" lon="-0.434568">
        <ele>2227.2</ele>
        <time>2019-09-01T04:29:23Z</time>
      </trkpt>
      <trkpt lat="42.848256" lon="-0.434688">
        <ele>2227.5</ele>
        <time>2019-09-01T04:29:36Z</time>
      </trkpt>
      <trkpt lat="42.848245" lon="-0.434804">
        <ele>2226.3</ele>
        <time>2019-09-01T04:29:50Z</time>
      </trkpt>
      <trkpt lat="42.848225" lon="-0.434934">
        <ele>2228.4</ele>
        <time>2019-09-01T04:30:11Z</time>
      </trkpt>
      <trkpt lat="42.848245" lon="-0.435043">
        <ele>2229.6</ele>
        <time>2019-09-01T04:30:46Z</time>
      </trkpt>
      <trkpt lat="42.848205" lon="-0.435086">
        <ele>2232.8</ele>
        <time>2019-09-01T04:31:25Z</time>
      </trkpt>
      <trkpt lat="42.848181" lon="-0.435176">
        <ele>2234.0</ele>
        <time>2019-09-01T04:32:24Z</time>
      </trkpt>
      <trkpt lat="42.848251" lon="-0.435318">
        <ele>2243.4</ele>
        <time>2019-09-01T04:33:42Z</time>
      </trkpt>
      <trkpt lat="42.848271" lon="-0.435398">
        <ele>2246.5</ele>
        <time>2019-09-01T04:34:09Z</time>
      </trkpt>
      <trkpt lat="42.848223" lon="-0.435492">
        <ele>2248.4</ele>
        <time>2019-09-01T04:34:44Z</time>
      </trkpt>
      <trkpt lat="42.848176" lon="-0.435515">
        <ele>2252.9</ele>
        <time>2019-09-01T04:35:22Z</time>
        <name>Breche Autrichiens</name>
      </trkpt>
      <trkpt lat="42.848149" lon="-0.435430">
        <ele>2258.1</ele>
        <time>2019-09-01T05:20:05Z</time>
      </trkpt>
      <trkpt lat="42.848130" lon="-0.435445">
        <ele>2255.9</ele>
        <time>2019-09-01T05:30:35Z</time>
      </trkpt>
      <trkpt lat="42.848107" lon="-0.435472">
        <ele>2255.2</ele>
        <time>2019-09-01T05:31:35Z</time>
      </trkpt>
      <trkpt lat="42.848090" lon="-0.435443">
        <ele>2254.5</ele>
        <time>2019-09-01T05:36:05Z</time>
      </trkpt>
      <trkpt lat="42.848079" lon="-0.435467">
        <ele>2257.3</ele>
        <time>2019-09-01T05:36:38Z</time>
      </trkpt>
      <trkpt lat="42.848029" lon="-0.435475">
        <ele>2261.9</ele>
        <time>2019-09-01T05:37:40Z</time>
      </trkpt>
      <trkpt lat="42.848026" lon="-0.435484">
        <ele>2264.0</ele>
        <time>2019-09-01T05:38:49Z</time>
      </trkpt>
      <trkpt lat="42.847960" lon="-0.435492">
        <ele>2266.2</ele>
        <time>2019-09-01T05:40:13Z</time>
      </trkpt>
      <trkpt lat="42.847939" lon="-0.435478">
        <ele>2267.7</ele>
        <time>2019-09-01T05:41:30Z</time>
      </trkpt>
      <trkpt lat="42.847822" lon="-0.435571">
        <ele>2272.5</ele>
        <time>2019-09-01T05:42:28Z</time>
      </trkpt>
      <trkpt lat="42.847803" lon="-0.435646">
        <ele>2273.5</ele>
        <time>2019-09-01T05:42:47Z</time>
      </trkpt>
      <trkpt lat="42.847787" lon="-0.435675">
        <ele>2285.3</ele>
        <time>2019-09-01T06:00:22Z</time>
      </trkpt>
      <trkpt lat="42.847742" lon="-0.435702">
        <ele>2287.6</ele>
        <time>2019-09-01T06:00:50Z</time>
      </trkpt>
      <trkpt lat="42.847680" lon="-0.435707">
        <ele>2291.4</ele>
        <time>2019-09-01T06:02:35Z</time>
      </trkpt>
      <trkpt lat="42.847605" lon="-0.435784">
        <ele>2293.9</ele>
        <time>2019-09-01T06:03:06Z</time>
      </trkpt>
      <trkpt lat="42.847569" lon="-0.435852">
        <ele>2298.1</ele>
        <time>2019-09-01T06:03:37Z</time>
      </trkpt>
      <trkpt lat="42.847573" lon="-0.435846">
        <ele>2297.7</ele>
        <time>2019-09-01T06:04:27Z</time>
      </trkpt>
      <trkpt lat="42.847550" lon="-0.435898">
        <ele>2296.8</ele>
        <time>2019-09-01T06:05:16Z</time>
      </trkpt>
      <trkpt lat="42.847470" lon="-0.435943">
        <ele>2297.1</ele>
        <time>2019-09-01T06:05:55Z</time>
      </trkpt>
      <trkpt lat="42.847419" lon="-0.435947">
        <ele>2300.2</ele>
        <time>2019-09-01T06:06:29Z</time>
      </trkpt>
      <trkpt lat="42.847376" lon="-0.435987">
        <ele>2302.1</ele>
        <time>2019-09-01T06:08:22Z</time>
      </trkpt>
      <trkpt lat="42.847329" lon="-0.435964">
        <ele>2306.5</ele>
        <time>2019-09-01T06:08:55Z</time>
      </trkpt>
      <trkpt lat="42.847272" lon="-0.436006">
        <ele>2308.9</ele>
        <time>2019-09-01T06:09:45Z</time>
      </trkpt>
      <trkpt lat="42.847212" lon="-0.436046">
        <ele>2315.2</ele>
        <time>2019-09-01T06:11:04Z</time>
      </trkpt>
      <trkpt lat="42.847209" lon="-0.436063">
        <ele>2315.5</ele>
        <time>2019-09-01T06:12:33Z</time>
      </trkpt>
      <trkpt lat="42.847169" lon="-0.436157">
        <ele>2322.3</ele>
        <time>2019-09-01T06:18:17Z</time>
      </trkpt>
      <trkpt lat="42.847175" lon="-0.436150">
        <ele>2321.9</ele>
        <time>2019-09-01T06:19:04Z</time>
      </trkpt>
      <trkpt lat="42.847174" lon="-0.436170">
        <ele>2322.9</ele>
        <time>2019-09-01T06:19:45Z</time>
      </trkpt>
      <trkpt lat="42.847195" lon="-0.436190">
        <ele>2322.5</ele>
        <time>2019-09-01T06:20:17Z</time>
      </trkpt>
      <trkpt lat="42.847164" lon="-0.436205">
        <ele>2329.1</ele>
        <time>2019-09-01T06:24:52Z</time>
      </trkpt>
      <trkpt lat="42.847143" lon="-0.436224">
        <ele>2330.1</ele>
        <time>2019-09-01T06:25:23Z</time>
      </trkpt>
      <trkpt lat="42.847147" lon="-0.436255">
        <ele>2330.6</ele>
        <time>2019-09-01T06:26:11Z</time>
      </trkpt>
      <trkpt lat="42.847093" lon="-0.436406">
        <ele>2340.4</ele>
        <time>2019-09-01T06:28:36Z</time>
      </trkpt>
      <trkpt lat="42.847026" lon="-0.436510">
        <ele>2340.7</ele>
        <time>2019-09-01T06:30:31Z</time>
      </trkpt>
      <trkpt lat="42.846960" lon="-0.436534">
        <ele>2344.3</ele>
        <time>2019-09-01T06:31:00Z</time>
      </trkpt>
      <trkpt lat="42.846935" lon="-0.436531">
        <ele>2344.5</ele>
        <time>2019-09-01T06:31:50Z</time>
      </trkpt>
      <trkpt lat="42.846944" lon="-0.436554">
        <ele>2345.1</ele>
        <time>2019-09-01T06:32:45Z</time>
      </trkpt>
      <trkpt lat="42.846914" lon="-0.436638">
        <ele>2352.4</ele>
        <time>2019-09-01T06:47:14Z</time>
      </trkpt>
      <trkpt lat="42.846897" lon="-0.436670">
        <ele>2355.1</ele>
        <time>2019-09-01T06:48:04Z</time>
      </trkpt>
      <trkpt lat="42.846834" lon="-0.436648">
        <ele>2357.6</ele>
        <time>2019-09-01T06:48:37Z</time>
      </trkpt>
      <trkpt lat="42.846807" lon="-0.436710">
        <ele>2360.1</ele>
        <time>2019-09-01T06:48:54Z</time>
      </trkpt>
      <trkpt lat="42.846791" lon="-0.436705">
        <ele>2363.5</ele>
        <time>2019-09-01T06:49:18Z</time>
      </trkpt>
      <trkpt lat="42.846735" lon="-0.436697">
        <ele>2368.1</ele>
        <time>2019-09-01T06:49:54Z</time>
      </trkpt>
      <trkpt lat="42.846709" lon="-0.436726">
        <ele>2371.0</ele>
        <time>2019-09-01T06:50:23Z</time>
      </trkpt>
      <trkpt lat="42.846615" lon="-0.436767">
        <ele>2374.6</ele>
        <time>2019-09-01T06:50:47Z</time>
      </trkpt>
      <trkpt lat="42.846593" lon="-0.436726">
        <ele>2379.3</ele>
        <time>2019-09-01T06:51:13Z</time>
      </trkpt>
      <trkpt lat="42.846584" lon="-0.436707">
        <ele>2381.9</ele>
        <time>2019-09-01T06:51:48Z</time>
      </trkpt>
      <trkpt lat="42.846542" lon="-0.436752">
        <ele>2386.1</ele>
        <time>2019-09-01T06:52:16Z</time>
      </trkpt>
      <trkpt lat="42.846546" lon="-0.436775">
        <ele>2386.8</ele>
        <time>2019-09-01T06:52:55Z</time>
      </trkpt>
      <trkpt lat="42.846532" lon="-0.436797">
        <ele>2388.6</ele>
        <time>2019-09-01T06:53:22Z</time>
      </trkpt>
      <trkpt lat="42.846511" lon="-0.436790">
        <ele>2389.3</ele>
        <time>2019-09-01T06:53:54Z</time>
      </trkpt>
      <trkpt lat="42.846489" lon="-0.436771">
        <ele>2390.5</ele>
        <time>2019-09-01T06:54:54Z</time>
      </trkpt>
      <trkpt lat="42.846461" lon="-0.436794">
        <ele>2396.8</ele>
        <time>2019-09-01T06:56:38Z</time>
      </trkpt>
      <trkpt lat="42.846449" lon="-0.436826">
        <ele>2399.2</ele>
        <time>2019-09-01T06:57:25Z</time>
      </trkpt>
      <trkpt lat="42.846362" lon="-0.436860">
        <ele>2402.2</ele>
        <time>2019-09-01T06:57:47Z</time>
      </trkpt>
      <trkpt lat="42.846312" lon="-0.436926">
        <ele>2406.5</ele>
        <time>2019-09-01T06:58:07Z</time>
      </trkpt>
      <trkpt lat="42.846283" lon="-0.436918">
        <ele>2411.5</ele>
        <time>2019-09-01T07:00:28Z</time>
      </trkpt>
      <trkpt lat="42.846270" lon="-0.436904">
        <ele>2418.9</ele>
        <time>2019-09-01T07:02:17Z</time>
      </trkpt>
      <trkpt lat="42.846259" lon="-0.436863">
        <ele>2421.6</ele>
        <time>2019-09-01T07:02:41Z</time>
      </trkpt>
      <trkpt lat="42.846210" lon="-0.436873">
        <ele>2421.4</ele>
        <time>2019-09-01T07:03:01Z</time>
      </trkpt>
      <trkpt lat="42.846164" lon="-0.436974">
        <ele>2423.7</ele>
        <time>2019-09-01T07:03:21Z</time>
      </trkpt>
      <trkpt lat="42.846131" lon="-0.437039">
        <ele>2427.1</ele>
        <time>2019-09-01T07:03:48Z</time>
      </trkpt>
      <trkpt lat="42.846115" lon="-0.437073">
        <ele>2427.3</ele>
        <time>2019-09-01T07:04:09Z</time>
      </trkpt>
      <trkpt lat="42.846080" lon="-0.437099">
        <ele>2440.5</ele>
        <time>2019-09-01T07:14:15Z</time>
      </trkpt>
      <trkpt lat="42.846047" lon="-0.437192">
        <ele>2441.6</ele>
        <time>2019-09-01T07:14:35Z</time>
      </trkpt>
      <trkpt lat="42.846055" lon="-0.437224">
        <ele>2442.3</ele>
        <time>2019-09-01T07:15:36Z</time>
      </trkpt>
      <trkpt lat="42.846049" lon="-0.437311">
        <ele>2442.6</ele>
        <time>2019-09-01T07:15:53Z</time>
      </trkpt>
      <trkpt lat="42.846060" lon="-0.437332">
        <ele>2445.1</ele>
        <time>2019-09-01T07:16:29Z</time>
      </trkpt>
      <trkpt lat="42.846040" lon="-0.437376">
        <ele>2455.4</ele>
        <time>2019-09-01T07:18:29Z</time>
      </trkpt>
      <trkpt lat="42.846017" lon="-0.437483">
        <ele>2457.4</ele>
        <time>2019-09-01T07:18:45Z</time>
      </trkpt>
      <trkpt lat="42.845969" lon="-0.437503">
        <ele>2474.5</ele>
        <time>2019-09-01T07:22:51Z</time>
      </trkpt>
      <trkpt lat="42.845940" lon="-0.437586">
        <ele>2474.6</ele>
        <time>2019-09-01T07:23:15Z</time>
      </trkpt>
      <trkpt lat="42.845950" lon="-0.437628">
        <ele>2475.2</ele>
        <time>2019-09-01T07:24:05Z</time>
        <name>Gendarme</name>
      </trkpt>
      <trkpt lat="42.845968" lon="-0.437648">
        <ele>2479.2</ele>
        <time>2019-09-01T07:24:37Z</time>
      </trkpt>
      <trkpt lat="42.845990" lon="-0.437684">
        <ele>2481.3</ele>
        <time>2019-09-01T07:25:22Z</time>
      </trkpt>
      <trkpt lat="42.846016" lon="-0.437685">
        <ele>2493.0</ele>
        <time>2019-09-01T07:42:13Z</time>
      </trkpt>
      <trkpt lat="42.846013" lon="-0.437735">
        <ele>2493.1</ele>
        <time>2019-09-01T07:43:11Z</time>
      </trkpt>
      <trkpt lat="42.845996" lon="-0.437810">
        <ele>2492.3</ele>
        <time>2019-09-01T07:43:40Z</time>
      </trkpt>
      <trkpt lat="42.845943" lon="-0.437808">
        <ele>2493.4</ele>
        <time>2019-09-01T07:44:23Z</time>
      </trkpt>
      <trkpt lat="42.845932" lon="-0.437866">
        <ele>2497.5</ele>
        <time>2019-09-01T07:46:50Z</time>
      </trkpt>
      <trkpt lat="42.845886" lon="-0.437917">
        <ele>2500.0</ele>
        <time>2019-09-01T07:47:28Z</time>
      </trkpt>
      <trkpt lat="42.845883" lon="-0.437949">
        <ele>2501.0</ele>
        <time>2019-09-01T07:47:56Z</time>
      </trkpt>
      <trkpt lat="42.845814" lon="-0.437980">
        <ele>2509.0</ele>
        <time>2019-09-01T07:55:18Z</time>
      </trkpt>
      <trkpt lat="42.845807" lon="-0.438007">
        <ele>2509.9</ele>
        <time>2019-09-01T07:57:49Z</time>
      </trkpt>
      <trkpt lat="42.845831" lon="-0.438090">
        <ele>2511.4</ele>
        <time>2019-09-01T07:59:33Z</time>
      </trkpt>
      <trkpt lat="42.845803" lon="-0.438123">
        <ele>2514.4</ele>
        <time>2019-09-01T08:04:20Z</time>
      </trkpt>
      <trkpt lat="42.845766" lon="-0.438187">
        <ele>2517.2</ele>
        <time>2019-09-01T08:06:17Z</time>
      </trkpt>
      <trkpt lat="42.845756" lon="-0.438209">
        <ele>2518.6</ele>
        <time>2019-09-01T08:08:36Z</time>
      </trkpt>
      <trkpt lat="42.845686" lon="-0.438238">
        <ele>2524.4</ele>
        <time>2019-09-01T08:11:15Z</time>
      </trkpt>
      <trkpt lat="42.845607" lon="-0.438191">
        <ele>2536.1</ele>
        <time>2019-09-01T08:32:13Z</time>
      </trkpt>
      <trkpt lat="42.845493" lon="-0.438189">
        <ele>2538.5</ele>
        <time>2019-09-01T09:13:41Z</time>
      </trkpt>
      <trkpt lat="42.845482" lon="-0.438263">
        <ele>2539.4</ele>
        <time>2019-09-01T09:14:07Z</time>
      </trkpt>
      <trkpt lat="42.845397" lon="-0.438295">
        <ele>2542.6</ele>
        <time>2019-09-01T09:14:26Z</time>
      </trkpt>
      <trkpt lat="42.845372" lon="-0.438288">
        <ele>2544.2</ele>
        <time>2019-09-01T09:15:34Z</time>
      </trkpt>
      <trkpt lat="42.845370" lon="-0.438346">
        <ele>2547.3</ele>
        <time>2019-09-01T09:16:04Z</time>
      </trkpt>
      <trkpt lat="42.845344" lon="-0.438383">
        <ele>2549.0</ele>
        <time>2019-09-01T09:17:06Z</time>
      </trkpt>
      <trkpt lat="42.845392" lon="-0.438495">
        <ele>2553.6</ele>
        <time>2019-09-01T09:17:54Z</time>
      </trkpt>
      <trkpt lat="42.845384" lon="-0.438528">
        <ele>2555.6</ele>
        <time>2019-09-01T09:18:27Z</time>
      </trkpt>
      <trkpt lat="42.845312" lon="-0.438581">
        <ele>2560.6</ele>
        <time>2019-09-01T09:19:01Z</time>
      </trkpt>
      <trkpt lat="42.845296" lon="-0.438704">
        <ele>2564.1</ele>
        <time>2019-09-01T09:19:26Z</time>
      </trkpt>
      <trkpt lat="42.845213" lon="-0.438706">
        <ele>2569.7</ele>
        <time>2019-09-01T09:19:56Z</time>
      </trkpt>
      <trkpt lat="42.845197" lon="-0.438819">
        <ele>2572.3</ele>
        <time>2019-09-01T09:20:20Z</time>
      </trkpt>
      <trkpt lat="42.845134" lon="-0.438851">
        <ele>2583.9</ele>
        <time>2019-09-01T09:33:55Z</time>
        <name>Bif. embaradere</name>
      </trkpt>
      <trkpt lat="42.845071" lon="-0.438796">
        <ele>2588.2</ele>
        <time>2019-09-01T09:34:21Z</time>
      </trkpt>
      <trkpt lat="42.845038" lon="-0.438755">
        <ele>2593.4</ele>
        <time>2019-09-01T09:35:04Z</time>
      </trkpt>
      <trkpt lat="42.844993" lon="-0.438768">
        <ele>2597.3</ele>
        <time>2019-09-01T09:36:01Z</time>
      </trkpt>
      <trkpt lat="42.844945" lon="-0.438723">
        <ele>2601.9</ele>
        <time>2019-09-01T09:36:44Z</time>
      </trkpt>
      <trkpt lat="42.844902" lon="-0.438673">
        <ele>2609.3</ele>
        <time>2019-09-01T09:39:01Z</time>
      </trkpt>
      <trkpt lat="42.844891" lon="-0.438617">
        <ele>2615.3</ele>
        <time>2019-09-01T09:39:52Z</time>
      </trkpt>
      <trkpt lat="42.844845" lon="-0.438548">
        <ele>2616.8</ele>
        <time>2019-09-01T09:40:30Z</time>
      </trkpt>
      <trkpt lat="42.844821" lon="-0.438481">
        <ele>2620.2</ele>
        <time>2019-09-01T09:41:12Z</time>
      </trkpt>
      <trkpt lat="42.844776" lon="-0.438476">
        <ele>2625.7</ele>
        <time>2019-09-01T09:43:04Z</time>
      </trkpt>
      <trkpt lat="42.844765" lon="-0.438442">
        <ele>2633.0</ele>
        <time>2019-09-01T09:48:02Z</time>
      </trkpt>
      <trkpt lat="42.844726" lon="-0.438387">
        <ele>2634.8</ele>
        <time>2019-09-01T09:51:50Z</time>
      </trkpt>
      <trkpt lat="42.844659" lon="-0.438284">
        <ele>2639.6</ele>
        <time>2019-09-01T09:52:15Z</time>
      </trkpt>
      <trkpt lat="42.844603" lon="-0.438208">
        <ele>2644.1</ele>
        <time>2019-09-01T09:52:44Z</time>
      </trkpt>
      <trkpt lat="42.844582" lon="-0.438108">
        <ele>2647.7</ele>
        <time>2019-09-01T09:53:47Z</time>
      </trkpt>
      <trkpt lat="42.844544" lon="-0.438033">
        <ele>2650.3</ele>
        <time>2019-09-01T09:54:07Z</time>
      </trkpt>
      <trkpt lat="42.844520" lon="-0.437994">
        <ele>2651.7</ele>
        <time>2019-09-01T09:54:41Z</time>
      </trkpt>
      <trkpt lat="42.844467" lon="-0.437888">
        <ele>2652.4</ele>
        <time>2019-09-01T09:55:16Z</time>
      </trkpt>
      <trkpt lat="42.844470" lon="-0.437797">
        <ele>2656.1</ele>
        <time>2019-09-01T09:55:46Z</time>
      </trkpt>
      <trkpt lat="42.844495" lon="-0.437747">
        <ele>2666.1</ele>
        <time>2019-09-01T09:59:22Z</time>
      </trkpt>
      <trkpt lat="42.844521" lon="-0.437702">
        <ele>2665.8</ele>
        <time>2019-09-01T09:59:51Z</time>
      </trkpt>
      <trkpt lat="42.844531" lon="-0.437614">
        <ele>2669.1</ele>
        <time>2019-09-01T10:00:28Z</time>
      </trkpt>
      <trkpt lat="42.844517" lon="-0.437610">
        <ele>2671.5</ele>
        <time>2019-09-01T10:00:54Z</time>
      </trkpt>
      <trkpt lat="42.844439" lon="-0.437587">
        <ele>2673.8</ele>
        <time>2019-09-01T10:01:33Z</time>
      </trkpt>
      <trkpt lat="42.844445" lon="-0.437551">
        <ele>2674.8</ele>
        <time>2019-09-01T10:01:59Z</time>
      </trkpt>
      <trkpt lat="42.844484" lon="-0.437481">
        <ele>2681.1</ele>
        <time>2019-09-01T10:03:29Z</time>
      </trkpt>
      <trkpt lat="42.844500" lon="-0.437425">
        <ele>2684.1</ele>
        <time>2019-09-01T10:03:58Z</time>
      </trkpt>
      <trkpt lat="42.844541" lon="-0.437331">
        <ele>2686.6</ele>
        <time>2019-09-01T10:04:21Z</time>
      </trkpt>
      <trkpt lat="42.844484" lon="-0.437331">
        <ele>2693.2</ele>
        <time>2019-09-01T10:05:20Z</time>
      </trkpt>
      <trkpt lat="42.844496" lon="-0.437304">
        <ele>2693.3</ele>
        <time>2019-09-01T10:06:04Z</time>
      </trkpt>
      <trkpt lat="42.844513" lon="-0.437290">
        <ele>2695.7</ele>
        <time>2019-09-01T10:06:52Z</time>
      </trkpt>
      <trkpt lat="42.844549" lon="-0.437236">
        <ele>2698.3</ele>
        <time>2019-09-01T10:07:26Z</time>
      </trkpt>
      <trkpt lat="42.844609" lon="-0.437168">
        <ele>2701.6</ele>
        <time>2019-09-01T10:08:00Z</time>
      </trkpt>
      <trkpt lat="42.844685" lon="-0.437137">
        <ele>2704.6</ele>
        <time>2019-09-01T10:08:33Z</time>
      </trkpt>
      <trkpt lat="42.844713" lon="-0.437147">
        <ele>2707.5</ele>
        <time>2019-09-01T10:09:07Z</time>
      </trkpt>
      <trkpt lat="42.844743" lon="-0.437244">
        <ele>2710.4</ele>
        <time>2019-09-01T10:13:38Z</time>
      </trkpt>
      <trkpt lat="42.844739" lon="-0.437190">
        <ele>2712.3</ele>
        <time>2019-09-01T10:15:47Z</time>
      </trkpt>
      <trkpt lat="42.844790" lon="-0.437183">
        <ele>2714.0</ele>
        <time>2019-09-01T10:18:30Z</time>
      </trkpt>
      <trkpt lat="42.844766" lon="-0.437141">
        <ele>2712.8</ele>
        <time>2019-09-01T10:19:02Z</time>
      </trkpt>
      <trkpt lat="42.844795" lon="-0.437132">
        <ele>2710.5</ele>
        <time>2019-09-01T10:19:44Z</time>
      </trkpt>
      <trkpt lat="42.844867" lon="-0.437090">
        <ele>2707.2</ele>
        <time>2019-09-01T10:20:19Z</time>
      </trkpt>
      <trkpt lat="42.844820" lon="-0.437032">
        <ele>2707.9</ele>
        <time>2019-09-01T10:21:53Z</time>
      </trkpt>
      <trkpt lat="42.844790" lon="-0.436985">
        <ele>2709.7</ele>
        <time>2019-09-01T10:22:33Z</time>
      </trkpt>
      <trkpt lat="42.844822" lon="-0.436960">
        <ele>2709.2</ele>
        <time>2019-09-01T10:23:00Z</time>
      </trkpt>
      <trkpt lat="42.844788" lon="-0.436907">
        <ele>2709.2</ele>
        <time>2019-09-01T10:23:23Z</time>
      </trkpt>
      <trkpt lat="42.844763" lon="-0.436878">
        <ele>2709.9</ele>
        <time>2019-09-01T10:23:54Z</time>
      </trkpt>
      <trkpt lat="42.844759" lon="-0.436874">
        <ele>2712.2</ele>
        <time>2019-09-01T10:24:36Z</time>
      </trkpt>
      <trkpt lat="42.844708" lon="-0.436857">
        <ele>2713.0</ele>
        <time>2019-09-01T10:26:28Z</time>
      </trkpt>
      <trkpt lat="42.844671" lon="-0.436850">
        <ele>2714.1</ele>
        <time>2019-09-01T10:26:57Z</time>
      </trkpt>
      <trkpt lat="42.844649" lon="-0.436866">
        <ele>2714.2</ele>
        <time>2019-09-01T10:27:26Z</time>
      </trkpt>
      <trkpt lat="42.844643" lon="-0.436830">
        <ele>2715.9</ele>
        <time>2019-09-01T10:27:53Z</time>
      </trkpt>
      <trkpt lat="42.844649" lon="-0.436805">
        <ele>2722.5</ele>
        <time>2019-09-01T10:29:48Z</time>
      </trkpt>
      <trkpt lat="42.844608" lon="-0.436792">
        <ele>2722.3</ele>
        <time>2019-09-01T10:30:10Z</time>
      </trkpt>
      <trkpt lat="42.844613" lon="-0.436757">
        <ele>2725.3</ele>
        <time>2019-09-01T10:30:42Z</time>
      </trkpt>
      <trkpt lat="42.844644" lon="-0.436734">
        <ele>2727.0</ele>
        <time>2019-09-01T10:31:06Z</time>
      </trkpt>
      <trkpt lat="42.844651" lon="-0.436739">
        <ele>2731.8</ele>
        <time>2019-09-01T10:44:31Z</time>
      </trkpt>
      <trkpt lat="42.844678" lon="-0.436727">
        <ele>2732.9</ele>
        <time>2019-09-01T10:45:30Z</time>
      </trkpt>
      <trkpt lat="42.844653" lon="-0.436655">
        <ele>2748.2</ele>
        <time>2019-09-01T10:51:15Z</time>
      </trkpt>
      <trkpt lat="42.844658" lon="-0.436578">
        <ele>2752.2</ele>
        <time>2019-09-01T10:52:21Z</time>
      </trkpt>
      <trkpt lat="42.844651" lon="-0.436563">
        <ele>2753.4</ele>
        <time>2019-09-01T10:52:49Z</time>
      </trkpt>
      <trkpt lat="42.844711" lon="-0.436525">
        <ele>2755.3</ele>
        <time>2019-09-01T10:53:37Z</time>
      </trkpt>
      <trkpt lat="42.844718" lon="-0.436473">
        <ele>2758.6</ele>
        <time>2019-09-01T10:54:41Z</time>
        <name>Sortie</name>
      </trkpt>
      <trkpt lat="42.844704" lon="-0.436468">
        <ele>2761.1</ele>
        <time>2019-09-01T11:03:13Z</time>
      </trkpt>
      <trkpt lat="42.844695" lon="-0.436460">
        <ele>2762.8</ele>
        <time>2019-09-01T11:06:11Z</time>
      </trkpt>
      <trkpt lat="42.844643" lon="-0.436432">
        <ele>2765.5</ele>
        <time>2019-09-01T11:08:32Z</time>
      </trkpt>
      <trkpt lat="42.844611" lon="-0.436430">
        <ele>2767.8</ele>
        <time>2019-09-01T11:14:51Z</time>
      </trkpt>
      <trkpt lat="42.844459" lon="-0.436499">
        <ele>2775.5</ele>
        <time>2019-09-01T11:15:24Z</time>
      </trkpt>
      <trkpt lat="42.844394" lon="-0.436543">
        <ele>2780.7</ele>
        <time>2019-09-01T11:15:47Z</time>
      </trkpt>
      <trkpt lat="42.844331" lon="-0.436619">
        <ele>2785.7</ele>
        <time>2019-09-01T11:16:08Z</time>
      </trkpt>
      <trkpt lat="42.844271" lon="-0.436692">
        <ele>2790.1</ele>
        <time>2019-09-01T11:16:31Z</time>
      </trkpt>
      <trkpt lat="42.844272" lon="-0.436791">
        <ele>2794.7</ele>
        <time>2019-09-01T11:17:00Z</time>
      </trkpt>
      <trkpt lat="42.844273" lon="-0.436896">
        <ele>2800.6</ele>
        <time>2019-09-01T11:17:32Z</time>
      </trkpt>
      <trkpt lat="42.844215" lon="-0.436913">
        <ele>2802.1</ele>
        <time>2019-09-01T11:17:51Z</time>
      </trkpt>
      <trkpt lat="42.844125" lon="-0.436961">
        <ele>2806.5</ele>
        <time>2019-09-01T11:18:13Z</time>
      </trkpt>
      <trkpt lat="42.844068" lon="-0.437029">
        <ele>2809.5</ele>
        <time>2019-09-01T11:18:35Z</time>
      </trkpt>
      <trkpt lat="42.844003" lon="-0.437105">
        <ele>2814.3</ele>
        <time>2019-09-01T11:18:54Z</time>
      </trkpt>
      <trkpt lat="42.843905" lon="-0.437129">
        <ele>2817.3</ele>
        <time>2019-09-01T11:19:18Z</time>
      </trkpt>
      <trkpt lat="42.843834" lon="-0.437079">
        <ele>2817.2</ele>
        <time>2019-09-01T11:19:46Z</time>
      </trkpt>
      <trkpt lat="42.843783" lon="-0.437006">
        <ele>2817.1</ele>
        <time>2019-09-01T11:20:10Z</time>
      </trkpt>
      <trkpt lat="42.843681" lon="-0.437041">
        <ele>2818.2</ele>
        <time>2019-09-01T11:20:28Z</time>
      </trkpt>
      <trkpt lat="42.843576" lon="-0.437078">
        <ele>2822.7</ele>
        <time>2019-09-01T11:20:45Z</time>
      </trkpt>
      <trkpt lat="42.843561" lon="-0.437166">
        <ele>2826.6</ele>
        <time>2019-09-01T11:21:03Z</time>
      </trkpt>
      <trkpt lat="42.843593" lon="-0.437259">
        <ele>2830.1</ele>
        <time>2019-09-01T11:21:27Z</time>
      </trkpt>
      <trkpt lat="42.843545" lon="-0.437359">
        <ele>2833.6</ele>
        <time>2019-09-01T11:21:45Z</time>
      </trkpt>
      <trkpt lat="42.843563" lon="-0.437471">
        <ele>2837.7</ele>
        <time>2019-09-01T11:22:07Z</time>
      </trkpt>
      <trkpt lat="42.843575" lon="-0.437579">
        <ele>2839.7</ele>
        <time>2019-09-01T11:22:36Z</time>
      </trkpt>
      <trkpt lat="42.843590" lon="-0.437712">
        <ele>2843.7</ele>
        <time>2019-09-01T11:22:54Z</time>
      </trkpt>
      <trkpt lat="42.843650" lon="-0.437824">
        <ele>2847.1</ele>
        <time>2019-09-01T11:23:10Z</time>
      </trkpt>
      <trkpt lat="42.843619" lon="-0.437865">
        <ele>2850.7</ele>
        <time>2019-09-01T11:23:30Z</time>
      </trkpt>
      <trkpt lat="42.843543" lon="-0.437927">
        <ele>2855.6</ele>
        <time>2019-09-01T11:23:53Z</time>
      </trkpt>
      <trkpt lat="42.843535" lon="-0.438032">
        <ele>2859.3</ele>
        <time>2019-09-01T11:24:13Z</time>
      </trkpt>
      <trkpt lat="42.843451" lon="-0.438057">
        <ele>2860.3</ele>
        <time>2019-09-01T11:24:42Z</time>
      </trkpt>
      <trkpt lat="42.843359" lon="-0.438097">
        <ele>2859.5</ele>
        <time>2019-09-01T11:25:10Z</time>
      </trkpt>
      <trkpt lat="42.843290" lon="-0.438094">
        <ele>2864.5</ele>
        <time>2019-09-01T11:25:32Z</time>
      </trkpt>
      <trkpt lat="42.843235" lon="-0.438110">
        <ele>2864.6</ele>
        <time>2019-09-01T11:25:55Z</time>
      </trkpt>
      <trkpt lat="42.843233" lon="-0.438126">
        <ele>2859.9</ele>
        <time>2019-09-01T11:26:26Z</time>
      </trkpt>
      <trkpt lat="42.843126" lon="-0.438075">
        <ele>2861.4</ele>
        <time>2019-09-01T11:26:42Z</time>
      </trkpt>
      <trkpt lat="42.843043" lon="-0.438107">
        <ele>2867.3</ele>
        <time>2019-09-01T11:27:13Z</time>
      </trkpt>
      <trkpt lat="42.843008" lon="-0.438063">
        <ele>2872.0</ele>
        <time>2019-09-01T11:28:41Z</time>
        <name>Pic d Ossau</name>
      </trkpt>
      <trkpt lat="42.843025" lon="-0.438052">
        <ele>2872.6</ele>
        <time>2019-09-01T11:29:54Z</time>
      </trkpt>
      <trkpt lat="42.843028" lon="-0.438056">
        <ele>2872.9</ele>
        <time>2019-09-01T11:31:58Z</time>
      </trkpt>
      <trkpt lat="42.843031" lon="-0.438140">
        <ele>2870.6</ele>
        <time>2019-09-01T11:32:20Z</time>
      </trkpt>
      <trkpt lat="42.843118" lon="-0.438082">
        <ele>2867.3</ele>
        <time>2019-09-01T11:32:46Z</time>
      </trkpt>
      <trkpt lat="42.843197" lon="-0.438099">
        <ele>2861.9</ele>
        <time>2019-09-01T11:33:05Z</time>
      </trkpt>
      <trkpt lat="42.843245" lon="-0.438143">
        <ele>2861.7</ele>
        <time>2019-09-01T11:33:27Z</time>
      </trkpt>
      <trkpt lat="42.843313" lon="-0.438073">
        <ele>2866.0</ele>
        <time>2019-09-01T11:33:52Z</time>
      </trkpt>
      <trkpt lat="42.843343" lon="-0.438104">
        <ele>2863.3</ele>
        <time>2019-09-01T11:34:09Z</time>
      </trkpt>
      <trkpt lat="42.843411" lon="-0.438079">
        <ele>2861.6</ele>
        <time>2019-09-01T11:34:30Z</time>
      </trkpt>
      <trkpt lat="42.843461" lon="-0.438045">
        <ele>2859.8</ele>
        <time>2019-09-01T11:35:15Z</time>
      </trkpt>
      <trkpt lat="42.843573" lon="-0.438009">
        <ele>2863.0</ele>
        <time>2019-09-01T11:35:31Z</time>
      </trkpt>
      <trkpt lat="42.843554" lon="-0.437927">
        <ele>2860.5</ele>
        <time>2019-09-01T11:35:48Z</time>
      </trkpt>
      <trkpt lat="42.843628" lon="-0.437903">
        <ele>2857.8</ele>
        <time>2019-09-01T11:36:09Z</time>
      </trkpt>
      <trkpt lat="42.843680" lon="-0.437823">
        <ele>2855.2</ele>
        <time>2019-09-01T11:36:25Z</time>
      </trkpt>
      <trkpt lat="42.843674" lon="-0.437748">
        <ele>2853.1</ele>
        <time>2019-09-01T11:36:35Z</time>
      </trkpt>
      <trkpt lat="42.843761" lon="-0.437691">
        <ele>2850.0</ele>
        <time>2019-09-01T11:36:50Z</time>
      </trkpt>
      <trkpt lat="42.843805" lon="-0.437610">
        <ele>2846.3</ele>
        <time>2019-09-01T11:37:02Z</time>
      </trkpt>
      <trkpt lat="42.843806" lon="-0.437478">
        <ele>2841.1</ele>
        <time>2019-09-01T11:37:16Z</time>
      </trkpt>
      <trkpt lat="42.843747" lon="-0.437401">
        <ele>2837.3</ele>
        <time>2019-09-01T11:37:25Z</time>
      </trkpt>
      <trkpt lat="42.843731" lon="-0.437275">
        <ele>2832.6</ele>
        <time>2019-09-01T11:37:39Z</time>
      </trkpt>
      <trkpt lat="42.843739" lon="-0.437140">
        <ele>2826.5</ele>
        <time>2019-09-01T11:37:58Z</time>
      </trkpt>
      <trkpt lat="42.843749" lon="-0.436988">
        <ele>2822.5</ele>
        <time>2019-09-01T11:38:13Z</time>
      </trkpt>
      <trkpt lat="42.843777" lon="-0.436958">
        <ele>2822.2</ele>
        <time>2019-09-01T11:38:36Z</time>
      </trkpt>
      <trkpt lat="42.843836" lon="-0.436969">
        <ele>2817.0</ele>
        <time>2019-09-01T11:39:03Z</time>
      </trkpt>
      <trkpt lat="42.843861" lon="-0.436956">
        <ele>2788.9</ele>
        <time>2019-09-01T11:39:37Z</time>
      </trkpt>
      <trkpt lat="42.843888" lon="-0.436839">
        <ele>2786.7</ele>
        <time>2019-09-01T11:40:03Z</time>
      </trkpt>
      <trkpt lat="42.843927" lon="-0.436728">
        <ele>2783.4</ele>
        <time>2019-09-01T11:40:21Z</time>
      </trkpt>
      <trkpt lat="42.843939" lon="-0.436631">
        <ele>2781.8</ele>
        <time>2019-09-01T11:40:39Z</time>
      </trkpt>
      <trkpt lat="42.843969" lon="-0.436558">
        <ele>2776.2</ele>
        <time>2019-09-01T11:40:57Z</time>
      </trkpt>
      <trkpt lat="42.843928" lon="-0.436466">
        <ele>2776.6</ele>
        <time>2019-09-01T11:41:18Z</time>
      </trkpt>
      <trkpt lat="42.843939" lon="-0.436345">
        <ele>2771.6</ele>
        <time>2019-09-01T11:41:36Z</time>
      </trkpt>
      <trkpt lat="42.844000" lon="-0.436272">
        <ele>2763.6</ele>
        <time>2019-09-01T11:41:53Z</time>
      </trkpt>
      <trkpt lat="42.844060" lon="-0.436229">
        <ele>2757.2</ele>
        <time>2019-09-01T11:42:12Z</time>
      </trkpt>
      <trkpt lat="42.844091" lon="-0.436153">
        <ele>2752.2</ele>
        <time>2019-09-01T11:42:31Z</time>
      </trkpt>
      <trkpt lat="42.844077" lon="-0.436078">
        <ele>2750.7</ele>
        <time>2019-09-01T11:42:52Z</time>
      </trkpt>
      <trkpt lat="42.844056" lon="-0.435980">
        <ele>2749.5</ele>
        <time>2019-09-01T11:47:09Z</time>
      </trkpt>
      <trkpt lat="42.844052" lon="-0.435934">
        <ele>2748.0</ele>
        <time>2019-09-01T11:48:38Z</time>
      </trkpt>
      <trkpt lat="42.844077" lon="-0.435768">
        <ele>2738.6</ele>
        <time>2019-09-01T12:06:00Z</time>
      </trkpt>
      <trkpt lat="42.844075" lon="-0.435617">
        <ele>2730.1</ele>
        <time>2019-09-01T12:08:45Z</time>
      </trkpt>
      <trkpt lat="42.844144" lon="-0.435546">
        <ele>2720.7</ele>
        <time>2019-09-01T12:11:28Z</time>
      </trkpt>
      <trkpt lat="42.844161" lon="-0.435463">
        <ele>2714.8</ele>
        <time>2019-09-01T12:12:00Z</time>
      </trkpt>
      <trkpt lat="42.844206" lon="-0.435378">
        <ele>2705.4</ele>
        <time>2019-09-01T12:13:50Z</time>
      </trkpt>
      <trkpt lat="42.844257" lon="-0.435339">
        <ele>2698.2</ele>
        <time>2019-09-01T12:16:00Z</time>
      </trkpt>
      <trkpt lat="42.844357" lon="-0.435351">
        <ele>2689.2</ele>
        <time>2019-09-01T12:18:06Z</time>
      </trkpt>
      <trkpt lat="42.844406" lon="-0.435288">
        <ele>2681.1</ele>
        <time>2019-09-01T12:18:49Z</time>
      </trkpt>
      <trkpt lat="42.844396" lon="-0.435111">
        <ele>2673.0</ele>
        <time>2019-09-01T12:19:28Z</time>
      </trkpt>
      <trkpt lat="42.844425" lon="-0.434994">
        <ele>2664.2</ele>
        <time>2019-09-01T12:20:01Z</time>
      </trkpt>
      <trkpt lat="42.844473" lon="-0.434854">
        <ele>2662.4</ele>
        <time>2019-09-01T12:20:27Z</time>
      </trkpt>
      <trkpt lat="42.844511" lon="-0.434774">
        <ele>2665.2</ele>
        <time>2019-09-01T12:22:01Z</time>
      </trkpt>
      <trkpt lat="42.844594" lon="-0.434655">
        <ele>2663.4</ele>
        <time>2019-09-01T12:22:44Z</time>
      </trkpt>
      <trkpt lat="42.844702" lon="-0.434619">
        <ele>2664.6</ele>
        <time>2019-09-01T12:23:42Z</time>
      </trkpt>
      <trkpt lat="42.844800" lon="-0.434585">
        <ele>2666.9</ele>
        <time>2019-09-01T12:23:58Z</time>
      </trkpt>
      <trkpt lat="42.844884" lon="-0.434587">
        <ele>2662.0</ele>
        <time>2019-09-01T12:24:17Z</time>
        <name>Croix de fer</name>
      </trkpt>
      <trkpt lat="42.844968" lon="-0.434623">
        <ele>2667.3</ele>
        <time>2019-09-01T12:25:21Z</time>
      </trkpt>
      <trkpt lat="42.845032" lon="-0.434622">
        <ele>2663.8</ele>
        <time>2019-09-01T12:25:42Z</time>
      </trkpt>
      <trkpt lat="42.845099" lon="-0.434667">
        <ele>2660.1</ele>
        <time>2019-09-01T12:26:30Z</time>
      </trkpt>
      <trkpt lat="42.845093" lon="-0.434709">
        <ele>2658.2</ele>
        <time>2019-09-01T12:28:11Z</time>
      </trkpt>
      <trkpt lat="42.845113" lon="-0.434731">
        <ele>2656.9</ele>
        <time>2019-09-01T12:28:43Z</time>
      </trkpt>
      <trkpt lat="42.845135" lon="-0.434685">
        <ele>2653.9</ele>
        <time>2019-09-01T12:29:29Z</time>
      </trkpt>
      <trkpt lat="42.845168" lon="-0.434740">
        <ele>2650.5</ele>
        <time>2019-09-01T12:30:15Z</time>
      </trkpt>
      <trkpt lat="42.845214" lon="-0.434754">
        <ele>2645.2</ele>
        <time>2019-09-01T12:30:46Z</time>
      </trkpt>
      <trkpt lat="42.845250" lon="-0.434704">
        <ele>2642.3</ele>
        <time>2019-09-01T12:31:17Z</time>
      </trkpt>
      <trkpt lat="42.845320" lon="-0.434713">
        <ele>2640.6</ele>
        <time>2019-09-01T12:31:49Z</time>
      </trkpt>
      <trkpt lat="42.845335" lon="-0.434704">
        <ele>2630.4</ele>
        <time>2019-09-01T12:34:21Z</time>
      </trkpt>
      <trkpt lat="42.845331" lon="-0.434656">
        <ele>2626.3</ele>
        <time>2019-09-01T12:35:18Z</time>
      </trkpt>
      <trkpt lat="42.845333" lon="-0.434624">
        <ele>2624.7</ele>
        <time>2019-09-01T12:35:49Z</time>
      </trkpt>
      <trkpt lat="42.845367" lon="-0.434605">
        <ele>2621.3</ele>
        <time>2019-09-01T12:37:19Z</time>
      </trkpt>
      <trkpt lat="42.845402" lon="-0.434617">
        <ele>2619.0</ele>
        <time>2019-09-01T12:38:33Z</time>
      </trkpt>
      <trkpt lat="42.845454" lon="-0.434630">
        <ele>2612.1</ele>
        <time>2019-09-01T12:39:12Z</time>
      </trkpt>
      <trkpt lat="42.845472" lon="-0.434635">
        <ele>2609.6</ele>
        <time>2019-09-01T12:39:49Z</time>
      </trkpt>
      <trkpt lat="42.845511" lon="-0.434609">
        <ele>2606.1</ele>
        <time>2019-09-01T12:40:13Z</time>
      </trkpt>
      <trkpt lat="42.845567" lon="-0.434616">
        <ele>2606.2</ele>
        <time>2019-09-01T12:40:46Z</time>
      </trkpt>
      <trkpt lat="42.845576" lon="-0.434639">
        <ele>2603.1</ele>
        <time>2019-09-01T12:42:09Z</time>
      </trkpt>
      <trkpt lat="42.845595" lon="-0.434688">
        <ele>2603.4</ele>
        <time>2019-09-01T12:43:55Z</time>
      </trkpt>
      <trkpt lat="42.845636" lon="-0.434701">
        <ele>2600.9</ele>
        <time>2019-09-01T12:44:34Z</time>
      </trkpt>
      <trkpt lat="42.845701" lon="-0.434713">
        <ele>2596.8</ele>
        <time>2019-09-01T12:45:09Z</time>
      </trkpt>
      <trkpt lat="42.845782" lon="-0.434724">
        <ele>2592.7</ele>
        <time>2019-09-01T12:45:45Z</time>
      </trkpt>
      <trkpt lat="42.845824" lon="-0.434704">
        <ele>2588.9</ele>
        <time>2019-09-01T12:46:14Z</time>
      </trkpt>
      <trkpt lat="42.845793" lon="-0.434616">
        <ele>2584.1</ele>
        <time>2019-09-01T12:46:59Z</time>
      </trkpt>
      <trkpt lat="42.845794" lon="-0.434548">
        <ele>2580.0</ele>
        <time>2019-09-01T12:47:49Z</time>
      </trkpt>
      <trkpt lat="42.845811" lon="-0.434478">
        <ele>2576.1</ele>
        <time>2019-09-01T12:48:25Z</time>
      </trkpt>
      <trkpt lat="42.845885" lon="-0.434511">
        <ele>2570.4</ele>
        <time>2019-09-01T12:49:24Z</time>
      </trkpt>
      <trkpt lat="42.845906" lon="-0.434475">
        <ele>2566.9</ele>
        <time>2019-09-01T12:49:49Z</time>
      </trkpt>
      <trkpt lat="42.845922" lon="-0.434428">
        <ele>2563.0</ele>
        <time>2019-09-01T12:50:20Z</time>
      </trkpt>
      <trkpt lat="42.845976" lon="-0.434429">
        <ele>2558.2</ele>
        <time>2019-09-01T12:51:09Z</time>
      </trkpt>
      <trkpt lat="42.846025" lon="-0.434416">
        <ele>2555.2</ele>
        <time>2019-09-01T12:51:34Z</time>
      </trkpt>
      <trkpt lat="42.846064" lon="-0.434396">
        <ele>2550.1</ele>
        <time>2019-09-01T12:52:08Z</time>
      </trkpt>
      <trkpt lat="42.846054" lon="-0.434344">
        <ele>2547.2</ele>
        <time>2019-09-01T12:52:44Z</time>
      </trkpt>
      <trkpt lat="42.846036" lon="-0.434274">
        <ele>2544.6</ele>
        <time>2019-09-01T12:53:12Z</time>
      </trkpt>
      <trkpt lat="42.846014" lon="-0.434185">
        <ele>2540.7</ele>
        <time>2019-09-01T12:53:28Z</time>
      </trkpt>
      <trkpt lat="42.846014" lon="-0.434074">
        <ele>2537.3</ele>
        <time>2019-09-01T12:53:45Z</time>
      </trkpt>
      <trkpt lat="42.845971" lon="-0.433983">
        <ele>2534.0</ele>
        <time>2019-09-01T12:53:57Z</time>
      </trkpt>
      <trkpt lat="42.845940" lon="-0.433874">
        <ele>2530.3</ele>
        <time>2019-09-01T12:54:11Z</time>
      </trkpt>
      <trkpt lat="42.845912" lon="-0.433757">
        <ele>2527.1</ele>
        <time>2019-09-01T12:54:24Z</time>
      </trkpt>
      <trkpt lat="42.845957" lon="-0.433677">
        <ele>2523.3</ele>
        <time>2019-09-01T12:54:39Z</time>
      </trkpt>
      <trkpt lat="42.845991" lon="-0.433577">
        <ele>2520.4</ele>
        <time>2019-09-01T12:54:52Z</time>
      </trkpt>
      <trkpt lat="42.845985" lon="-0.433514">
        <ele>2515.8</ele>
        <time>2019-09-01T12:59:00Z</time>
      </trkpt>
      <trkpt lat="42.845896" lon="-0.433501">
        <ele>2513.2</ele>
        <time>2019-09-01T12:59:20Z</time>
      </trkpt>
      <trkpt lat="42.845809" lon="-0.433446">
        <ele>2511.9</ele>
        <time>2019-09-01T12:59:35Z</time>
      </trkpt>
      <trkpt lat="42.845758" lon="-0.433355">
        <ele>2509.1</ele>
        <time>2019-09-01T12:59:50Z</time>
      </trkpt>
      <trkpt lat="42.845696" lon="-0.433262">
        <ele>2505.5</ele>
        <time>2019-09-01T13:00:06Z</time>
      </trkpt>
      <trkpt lat="42.845632" lon="-0.433183">
        <ele>2501.8</ele>
        <time>2019-09-01T13:00:41Z</time>
      </trkpt>
      <trkpt lat="42.845585" lon="-0.433089">
        <ele>2497.8</ele>
        <time>2019-09-01T13:01:00Z</time>
      </trkpt>
      <trkpt lat="42.845664" lon="-0.433057">
        <ele>2491.3</ele>
        <time>2019-09-01T13:02:01Z</time>
      </trkpt>
      <trkpt lat="42.845642" lon="-0.433000">
        <ele>2486.4</ele>
        <time>2019-09-01T13:03:13Z</time>
      </trkpt>
      <trkpt lat="42.845639" lon="-0.432918">
        <ele>2478.7</ele>
        <time>2019-09-01T13:13:21Z</time>
      </trkpt>
      <trkpt lat="42.845669" lon="-0.432884">
        <ele>2473.8</ele>
        <time>2019-09-01T13:14:10Z</time>
      </trkpt>
      <trkpt lat="42.845686" lon="-0.432786">
        <ele>2472.5</ele>
        <time>2019-09-01T13:14:26Z</time>
      </trkpt>
      <trkpt lat="42.845639" lon="-0.432707">
        <ele>2471.1</ele>
        <time>2019-09-01T13:14:55Z</time>
      </trkpt>
      <trkpt lat="42.845648" lon="-0.432635">
        <ele>2465.0</ele>
        <time>2019-09-01T13:15:57Z</time>
      </trkpt>
      <trkpt lat="42.845678" lon="-0.432614">
        <ele>2462.4</ele>
        <time>2019-09-01T13:25:37Z</time>
      </trkpt>
      <trkpt lat="42.845671" lon="-0.432546">
        <ele>2458.6</ele>
        <time>2019-09-01T13:27:17Z</time>
      </trkpt>
      <trkpt lat="42.845669" lon="-0.432439">
        <ele>2447.8</ele>
        <time>2019-09-01T13:27:44Z</time>
      </trkpt>
      <trkpt lat="42.845664" lon="-0.432390">
        <ele>2441.7</ele>
        <time>2019-09-01T13:28:20Z</time>
        <name>second rappel</name>
      </trkpt>
      <trkpt lat="42.845625" lon="-0.432426">
        <ele>2439.2</ele>
        <time>2019-09-01T13:32:40Z</time>
      </trkpt>
      <trkpt lat="42.845603" lon="-0.432429">
        <ele>2432.7</ele>
        <time>2019-09-01T13:49:32Z</time>
      </trkpt>
      <trkpt lat="42.845565" lon="-0.432378">
        <ele>2432.3</ele>
        <time>2019-09-01T13:50:41Z</time>
      </trkpt>
      <trkpt lat="42.845573" lon="-0.432287">
        <ele>2430.1</ele>
        <time>2019-09-01T13:50:55Z</time>
      </trkpt>
      <trkpt lat="42.845514" lon="-0.432235">
        <ele>2424.6</ele>
        <time>2019-09-01T13:51:21Z</time>
      </trkpt>
      <trkpt lat="42.845466" lon="-0.432165">
        <ele>2420.6</ele>
        <time>2019-09-01T13:51:39Z</time>
      </trkpt>
      <trkpt lat="42.845415" lon="-0.432128">
        <ele>2416.3</ele>
        <time>2019-09-01T13:52:03Z</time>
      </trkpt>
      <trkpt lat="42.845424" lon="-0.432026">
        <ele>2413.3</ele>
        <time>2019-09-01T13:52:15Z</time>
      </trkpt>
      <trkpt lat="42.845368" lon="-0.431971">
        <ele>2409.0</ele>
        <time>2019-09-01T13:52:30Z</time>
      </trkpt>
      <trkpt lat="42.845371" lon="-0.431879">
        <ele>2402.5</ele>
        <time>2019-09-01T13:53:32Z</time>
      </trkpt>
      <trkpt lat="42.845357" lon="-0.431833">
        <ele>2399.4</ele>
        <time>2019-09-01T13:53:50Z</time>
      </trkpt>
      <trkpt lat="42.845453" lon="-0.431788">
        <ele>2397.6</ele>
        <time>2019-09-01T13:54:01Z</time>
      </trkpt>
      <trkpt lat="42.845524" lon="-0.431693">
        <ele>2388.4</ele>
        <time>2019-09-01T13:55:17Z</time>
      </trkpt>
      <trkpt lat="42.845472" lon="-0.431658">
        <ele>2383.9</ele>
        <time>2019-09-01T13:55:42Z</time>
      </trkpt>
      <trkpt lat="42.845451" lon="-0.431623">
        <ele>2378.6</ele>
        <time>2019-09-01T13:56:10Z</time>
      </trkpt>
      <trkpt lat="42.845449" lon="-0.431553">
        <ele>2374.2</ele>
        <time>2019-09-01T13:56:44Z</time>
      </trkpt>
      <trkpt lat="42.845458" lon="-0.431441">
        <ele>2369.9</ele>
        <time>2019-09-01T13:57:05Z</time>
      </trkpt>
      <trkpt lat="42.845422" lon="-0.431431">
        <ele>2368.5</ele>
        <time>2019-09-01T13:58:31Z</time>
      </trkpt>
      <trkpt lat="42.845360" lon="-0.431346">
        <ele>2369.3</ele>
        <time>2019-09-01T13:58:55Z</time>
      </trkpt>
      <trkpt lat="42.845343" lon="-0.431250">
        <ele>2358.9</ele>
        <time>2019-09-01T14:09:15Z</time>
      </trkpt>
      <trkpt lat="42.845342" lon="-0.431158">
        <ele>2352.0</ele>
        <time>2019-09-01T14:09:49Z</time>
      </trkpt>
      <trkpt lat="42.845346" lon="-0.431149">
        <ele>2347.3</ele>
        <time>2019-09-01T14:10:49Z</time>
      </trkpt>
      <trkpt lat="42.845384" lon="-0.431109">
        <ele>2340.3</ele>
        <time>2019-09-01T14:11:26Z</time>
      </trkpt>
      <trkpt lat="42.845426" lon="-0.431093">
        <ele>2332.6</ele>
        <time>2019-09-01T14:30:46Z</time>
      </trkpt>
      <trkpt lat="42.845445" lon="-0.431094">
        <ele>2332.2</ele>
        <time>2019-09-01T14:32:50Z</time>
        <name>1er rappel</name>
      </trkpt>
      <trkpt lat="42.845433" lon="-0.431004">
        <ele>2329.6</ele>
        <time>2019-09-01T14:33:09Z</time>
      </trkpt>
      <trkpt lat="42.845464" lon="-0.430928">
        <ele>2326.4</ele>
        <time>2019-09-01T14:33:25Z</time>
      </trkpt>
      <trkpt lat="42.845469" lon="-0.430815">
        <ele>2323.3</ele>
        <time>2019-09-01T14:33:41Z</time>
      </trkpt>
      <trkpt lat="42.845427" lon="-0.430712">
        <ele>2320.2</ele>
        <time>2019-09-01T14:33:55Z</time>
      </trkpt>
      <trkpt lat="42.845381" lon="-0.430649">
        <ele>2317.7</ele>
        <time>2019-09-01T14:34:06Z</time>
      </trkpt>
      <trkpt lat="42.845394" lon="-0.430547">
        <ele>2314.7</ele>
        <time>2019-09-01T14:34:17Z</time>
      </trkpt>
      <trkpt lat="42.845403" lon="-0.430436">
        <ele>2311.5</ele>
        <time>2019-09-01T14:34:30Z</time>
      </trkpt>
      <trkpt lat="42.845387" lon="-0.430337">
        <ele>2308.5</ele>
        <time>2019-09-01T14:34:41Z</time>
      </trkpt>
      <trkpt lat="42.845375" lon="-0.430265">
        <ele>2305.9</ele>
        <time>2019-09-01T14:34:51Z</time>
      </trkpt>
      <trkpt lat="42.845378" lon="-0.430187">
        <ele>2302.5</ele>
        <time>2019-09-01T14:35:03Z</time>
      </trkpt>
      <trkpt lat="42.845419" lon="-0.430117">
        <ele>2299.0</ele>
        <time>2019-09-01T14:35:15Z</time>
      </trkpt>
      <trkpt lat="42.845415" lon="-0.429998">
        <ele>2296.0</ele>
        <time>2019-09-01T14:35:27Z</time>
      </trkpt>
      <trkpt lat="42.845418" lon="-0.429903">
        <ele>2292.3</ele>
        <time>2019-09-01T14:35:39Z</time>
      </trkpt>
      <trkpt lat="42.845398" lon="-0.429772">
        <ele>2289.9</ele>
        <time>2019-09-01T14:35:49Z</time>
      </trkpt>
      <trkpt lat="42.845363" lon="-0.429672">
        <ele>2287.5</ele>
        <time>2019-09-01T14:35:58Z</time>
      </trkpt>
      <trkpt lat="42.845332" lon="-0.429573">
        <ele>2284.7</ele>
        <time>2019-09-01T14:36:10Z</time>
      </trkpt>
      <trkpt lat="42.845337" lon="-0.429458">
        <ele>2282.3</ele>
        <time>2019-09-01T14:36:21Z</time>
      </trkpt>
      <trkpt lat="42.845341" lon="-0.429356">
        <ele>2279.5</ele>
        <time>2019-09-01T14:36:33Z</time>
      </trkpt>
      <trkpt lat="42.845338" lon="-0.429254">
        <ele>2275.7</ele>
        <time>2019-09-01T14:36:46Z</time>
      </trkpt>
      <trkpt lat="42.845331" lon="-0.429155">
        <ele>2272.7</ele>
        <time>2019-09-01T14:36:59Z</time>
      </trkpt>
      <trkpt lat="42.845284" lon="-0.429065">
        <ele>2270.1</ele>
        <time>2019-09-01T14:37:11Z</time>
      </trkpt>
      <trkpt lat="42.845296" lon="-0.428984">
        <ele>2267.4</ele>
        <time>2019-09-01T14:37:22Z</time>
      </trkpt>
      <trkpt lat="42.845343" lon="-0.428899">
        <ele>2264.9</ele>
        <time>2019-09-01T14:37:33Z</time>
      </trkpt>
      <trkpt lat="42.845261" lon="-0.428866">
        <ele>2262.5</ele>
        <time>2019-09-01T14:37:45Z</time>
      </trkpt>
      <trkpt lat="42.845203" lon="-0.428826">
        <ele>2258.8</ele>
        <time>2019-09-01T14:38:01Z</time>
      </trkpt>
      <trkpt lat="42.845181" lon="-0.428771">
        <ele>2255.4</ele>
        <time>2019-09-01T14:38:16Z</time>
      </trkpt>
      <trkpt lat="42.845164" lon="-0.428661">
        <ele>2252.3</ele>
        <time>2019-09-01T14:38:31Z</time>
      </trkpt>
      <trkpt lat="42.845167" lon="-0.428540">
        <ele>2248.4</ele>
        <time>2019-09-01T14:38:44Z</time>
      </trkpt>
      <trkpt lat="42.845138" lon="-0.428451">
        <ele>2244.4</ele>
        <time>2019-09-01T14:39:00Z</time>
      </trkpt>
      <trkpt lat="42.845121" lon="-0.428344">
        <ele>2238.9</ele>
        <time>2019-09-01T14:39:18Z</time>
      </trkpt>
      <trkpt lat="42.845133" lon="-0.428257">
        <ele>2235.4</ele>
        <time>2019-09-01T14:39:29Z</time>
      </trkpt>
      <trkpt lat="42.845153" lon="-0.428137">
        <ele>2231.8</ele>
        <time>2019-09-01T14:39:41Z</time>
      </trkpt>
      <trkpt lat="42.845169" lon="-0.428016">
        <ele>2228.5</ele>
        <time>2019-09-01T14:39:52Z</time>
      </trkpt>
      <trkpt lat="42.845190" lon="-0.427887">
        <ele>2225.3</ele>
        <time>2019-09-01T14:40:02Z</time>
      </trkpt>
      <trkpt lat="42.845228" lon="-0.427775">
        <ele>2222.1</ele>
        <time>2019-09-01T14:40:14Z</time>
      </trkpt>
      <trkpt lat="42.845266" lon="-0.427659">
        <ele>2218.5</ele>
        <time>2019-09-01T14:40:30Z</time>
      </trkpt>
      <trkpt lat="42.845300" lon="-0.427551">
        <ele>2215.7</ele>
        <time>2019-09-01T14:40:43Z</time>
      </trkpt>
      <trkpt lat="42.845339" lon="-0.427466">
        <ele>2212.6</ele>
        <time>2019-09-01T14:40:58Z</time>
      </trkpt>
      <trkpt lat="42.845358" lon="-0.427345">
        <ele>2209.1</ele>
        <time>2019-09-01T14:41:14Z</time>
      </trkpt>
      <trkpt lat="42.845386" lon="-0.427255">
        <ele>2205.9</ele>
        <time>2019-09-01T14:41:26Z</time>
      </trkpt>
      <trkpt lat="42.845443" lon="-0.427155">
        <ele>2203.6</ele>
        <time>2019-09-01T14:41:36Z</time>
      </trkpt>
      <trkpt lat="42.845509" lon="-0.427054">
        <ele>2201.4</ele>
        <time>2019-09-01T14:41:47Z</time>
      </trkpt>
      <trkpt lat="42.845570" lon="-0.426959">
        <ele>2199.1</ele>
        <time>2019-09-01T14:41:58Z</time>
      </trkpt>
      <trkpt lat="42.845636" lon="-0.426872">
        <ele>2197.7</ele>
        <time>2019-09-01T14:42:07Z</time>
      </trkpt>
      <trkpt lat="42.845687" lon="-0.426770">
        <ele>2196.0</ele>
        <time>2019-09-01T14:42:17Z</time>
      </trkpt>
      <trkpt lat="42.845754" lon="-0.426665">
        <ele>2194.3</ele>
        <time>2019-09-01T14:42:28Z</time>
      </trkpt>
      <trkpt lat="42.845810" lon="-0.426558">
        <ele>2192.3</ele>
        <time>2019-09-01T14:42:39Z</time>
      </trkpt>
      <trkpt lat="42.845844" lon="-0.426437">
        <ele>2189.3</ele>
        <time>2019-09-01T14:42:52Z</time>
      </trkpt>
      <trkpt lat="42.845907" lon="-0.426332">
        <ele>2186.6</ele>
        <time>2019-09-01T14:43:04Z</time>
      </trkpt>
      <trkpt lat="42.845964" lon="-0.426229">
        <ele>2183.3</ele>
        <time>2019-09-01T14:43:15Z</time>
      </trkpt>
      <trkpt lat="42.846024" lon="-0.426129">
        <ele>2180.6</ele>
        <time>2019-09-01T14:43:27Z</time>
      </trkpt>
      <trkpt lat="42.846076" lon="-0.426030">
        <ele>2177.4</ele>
        <time>2019-09-01T14:43:39Z</time>
      </trkpt>
      <trkpt lat="42.846117" lon="-0.425912">
        <ele>2175.1</ele>
        <time>2019-09-01T14:43:49Z</time>
      </trkpt>
      <trkpt lat="42.846173" lon="-0.425809">
        <ele>2172.8</ele>
        <time>2019-09-01T14:43:59Z</time>
      </trkpt>
      <trkpt lat="42.846230" lon="-0.425711">
        <ele>2171.1</ele>
        <time>2019-09-01T14:44:09Z</time>
      </trkpt>
      <trkpt lat="42.846283" lon="-0.425608">
        <ele>2169.4</ele>
        <time>2019-09-01T14:44:18Z</time>
      </trkpt>
      <trkpt lat="42.846342" lon="-0.425512">
        <ele>2168.1</ele>
        <time>2019-09-01T14:44:26Z</time>
      </trkpt>
      <trkpt lat="42.846388" lon="-0.425402">
        <ele>2166.9</ele>
        <time>2019-09-01T14:44:34Z</time>
      </trkpt>
      <trkpt lat="42.846443" lon="-0.425285">
        <ele>2166.0</ele>
        <time>2019-09-01T14:44:43Z</time>
      </trkpt>
      <trkpt lat="42.846489" lon="-0.425170">
        <ele>2164.9</ele>
        <time>2019-09-01T14:44:52Z</time>
      </trkpt>
      <trkpt lat="42.846551" lon="-0.425066">
        <ele>2163.8</ele>
        <time>2019-09-01T14:45:01Z</time>
      </trkpt>
      <trkpt lat="42.846603" lon="-0.424968">
        <ele>2163.3</ele>
        <time>2019-09-01T14:45:10Z</time>
      </trkpt>
      <trkpt lat="42.846650" lon="-0.424862">
        <ele>2163.0</ele>
        <time>2019-09-01T14:45:19Z</time>
      </trkpt>
      <trkpt lat="42.846700" lon="-0.424756">
        <ele>2162.3</ele>
        <time>2019-09-01T14:45:28Z</time>
      </trkpt>
      <trkpt lat="42.846716" lon="-0.424638">
        <ele>2160.7</ele>
        <time>2019-09-01T14:45:38Z</time>
      </trkpt>
      <trkpt lat="42.846777" lon="-0.424525">
        <ele>2158.8</ele>
        <time>2019-09-01T14:45:47Z</time>
      </trkpt>
      <trkpt lat="42.846810" lon="-0.424415">
        <ele>2158.8</ele>
        <time>2019-09-01T14:45:56Z</time>
      </trkpt>
      <trkpt lat="42.846817" lon="-0.424280">
        <ele>2158.3</ele>
        <time>2019-09-01T14:46:04Z</time>
      </trkpt>
      <trkpt lat="42.846819" lon="-0.424161">
        <ele>2156.4</ele>
        <time>2019-09-01T14:46:13Z</time>
      </trkpt>
      <trkpt lat="42.846849" lon="-0.424037">
        <ele>2153.4</ele>
        <time>2019-09-01T14:46:22Z</time>
      </trkpt>
      <trkpt lat="42.846883" lon="-0.423928">
        <ele>2150.9</ele>
        <time>2019-09-01T14:46:30Z</time>
      </trkpt>
      <trkpt lat="42.846926" lon="-0.423811">
        <ele>2148.3</ele>
        <time>2019-09-01T14:46:39Z</time>
      </trkpt>
      <trkpt lat="42.846969" lon="-0.423682">
        <ele>2145.0</ele>
        <time>2019-09-01T14:46:48Z</time>
      </trkpt>
      <trkpt lat="42.846987" lon="-0.423560">
        <ele>2142.2</ele>
        <time>2019-09-01T14:46:57Z</time>
      </trkpt>
      <trkpt lat="42.847014" lon="-0.423429">
        <ele>2140.0</ele>
        <time>2019-09-01T14:47:09Z</time>
      </trkpt>
      <trkpt lat="42.847004" lon="-0.423406">
        <ele>2138.9</ele>
        <time>2019-09-01T14:50:32Z</time>
      </trkpt>
      <trkpt lat="42.846942" lon="-0.423504">
        <ele>2138.5</ele>
        <time>2019-09-01T14:50:47Z</time>
      </trkpt>
      <trkpt lat="42.846879" lon="-0.423593">
        <ele>2137.2</ele>
        <time>2019-09-01T14:50:54Z</time>
      </trkpt>
      <trkpt lat="42.846815" lon="-0.423686">
        <ele>2136.0</ele>
        <time>2019-09-01T14:51:01Z</time>
      </trkpt>
      <trkpt lat="42.846762" lon="-0.423767">
        <ele>2134.2</ele>
        <time>2019-09-01T14:51:09Z</time>
      </trkpt>
      <trkpt lat="42.846681" lon="-0.423856">
        <ele>2132.4</ele>
        <time>2019-09-01T14:51:17Z</time>
      </trkpt>
      <trkpt lat="42.846604" lon="-0.423930">
        <ele>2130.7</ele>
        <time>2019-09-01T14:51:24Z</time>
      </trkpt>
      <trkpt lat="42.846529" lon="-0.424007">
        <ele>2128.8</ele>
        <time>2019-09-01T14:51:31Z</time>
      </trkpt>
      <trkpt lat="42.846447" lon="-0.424081">
        <ele>2127.2</ele>
        <time>2019-09-01T14:51:38Z</time>
      </trkpt>
      <trkpt lat="42.846368" lon="-0.424161">
        <ele>2126.0</ele>
        <time>2019-09-01T14:51:45Z</time>
      </trkpt>
      <trkpt lat="42.846283" lon="-0.424227">
        <ele>2124.5</ele>
        <time>2019-09-01T14:51:52Z</time>
      </trkpt>
      <trkpt lat="42.846206" lon="-0.424311">
        <ele>2122.6</ele>
        <time>2019-09-01T14:52:00Z</time>
      </trkpt>
      <trkpt lat="42.846098" lon="-0.424373">
        <ele>2121.5</ele>
        <time>2019-09-01T14:52:08Z</time>
      </trkpt>
      <trkpt lat="42.846008" lon="-0.424438">
        <ele>2120.2</ele>
        <time>2019-09-01T14:52:16Z</time>
      </trkpt>
      <trkpt lat="42.845926" lon="-0.424511">
        <ele>2118.5</ele>
        <time>2019-09-01T14:52:24Z</time>
      </trkpt>
      <trkpt lat="42.845853" lon="-0.424599">
        <ele>2116.5</ele>
        <time>2019-09-01T14:52:31Z</time>
      </trkpt>
      <trkpt lat="42.845775" lon="-0.424661">
        <ele>2115.2</ele>
        <time>2019-09-01T14:52:38Z</time>
      </trkpt>
      <trkpt lat="42.845693" lon="-0.424696">
        <ele>2114.0</ele>
        <time>2019-09-01T14:52:45Z</time>
      </trkpt>
      <trkpt lat="42.845645" lon="-0.424797">
        <ele>2112.8</ele>
        <time>2019-09-01T14:52:53Z</time>
      </trkpt>
      <trkpt lat="42.845533" lon="-0.424799">
        <ele>2111.7</ele>
        <time>2019-09-01T14:53:01Z</time>
      </trkpt>
      <trkpt lat="42.845429" lon="-0.424787">
        <ele>2111.1</ele>
        <time>2019-09-01T14:53:08Z</time>
      </trkpt>
      <trkpt lat="42.845333" lon="-0.424832">
        <ele>2109.4</ele>
        <time>2019-09-01T14:53:16Z</time>
      </trkpt>
      <trkpt lat="42.845239" lon="-0.424767">
        <ele>2107.7</ele>
        <time>2019-09-01T14:53:24Z</time>
      </trkpt>
      <trkpt lat="42.845156" lon="-0.424781">
        <ele>2106.5</ele>
        <time>2019-09-01T14:53:31Z</time>
      </trkpt>
      <trkpt lat="42.845069" lon="-0.424792">
        <ele>2104.9</ele>
        <time>2019-09-01T14:53:38Z</time>
      </trkpt>
      <trkpt lat="42.844971" lon="-0.424778">
        <ele>2102.7</ele>
        <time>2019-09-01T14:53:45Z</time>
      </trkpt>
      <trkpt lat="42.844882" lon="-0.424797">
        <ele>2101.2</ele>
        <time>2019-09-01T14:53:52Z</time>
      </trkpt>
      <trkpt lat="42.844788" lon="-0.424800">
        <ele>2099.4</ele>
        <time>2019-09-01T14:53:59Z</time>
      </trkpt>
      <trkpt lat="42.844702" lon="-0.424852">
        <ele>2097.5</ele>
        <time>2019-09-01T14:54:06Z</time>
      </trkpt>
      <trkpt lat="42.844643" lon="-0.424946">
        <ele>2095.4</ele>
        <time>2019-09-01T14:54:13Z</time>
      </trkpt>
      <trkpt lat="42.844598" lon="-0.425038">
        <ele>2093.6</ele>
        <time>2019-09-01T14:54:20Z</time>
      </trkpt>
      <trkpt lat="42.844525" lon="-0.425118">
        <ele>2091.2</ele>
        <time>2019-09-01T14:54:27Z</time>
      </trkpt>
      <trkpt lat="42.844451" lon="-0.425189">
        <ele>2089.0</ele>
        <time>2019-09-01T14:54:34Z</time>
      </trkpt>
      <trkpt lat="42.844400" lon="-0.425289">
        <ele>2086.9</ele>
        <time>2019-09-01T14:54:41Z</time>
      </trkpt>
      <trkpt lat="42.844320" lon="-0.425379">
        <ele>2085.1</ele>
        <time>2019-09-01T14:54:49Z</time>
      </trkpt>
      <trkpt lat="42.844266" lon="-0.425480">
        <ele>2083.4</ele>
        <time>2019-09-01T14:54:56Z</time>
      </trkpt>
      <trkpt lat="42.844203" lon="-0.425561">
        <ele>2081.3</ele>
        <time>2019-09-01T14:55:03Z</time>
      </trkpt>
      <trkpt lat="42.844113" lon="-0.425618">
        <ele>2079.8</ele>
        <time>2019-09-01T14:55:10Z</time>
      </trkpt>
      <trkpt lat="42.844026" lon="-0.425685">
        <ele>2078.3</ele>
        <time>2019-09-01T14:55:17Z</time>
      </trkpt>
      <trkpt lat="42.844027" lon="-0.425804">
        <ele>2076.6</ele>
        <time>2019-09-01T14:55:24Z</time>
      </trkpt>
      <trkpt lat="42.843965" lon="-0.425903">
        <ele>2074.5</ele>
        <time>2019-09-01T14:55:31Z</time>
      </trkpt>
      <trkpt lat="42.843878" lon="-0.425966">
        <ele>2073.0</ele>
        <time>2019-09-01T14:55:38Z</time>
      </trkpt>
      <trkpt lat="42.843787" lon="-0.426006">
        <ele>2071.4</ele>
        <time>2019-09-01T14:55:45Z</time>
      </trkpt>
      <trkpt lat="42.843695" lon="-0.426059">
        <ele>2069.8</ele>
        <time>2019-09-01T14:55:52Z</time>
      </trkpt>
      <trkpt lat="42.843608" lon="-0.426136">
        <ele>2068.4</ele>
        <time>2019-09-01T14:55:59Z</time>
      </trkpt>
      <trkpt lat="42.843533" lon="-0.426219">
        <ele>2066.6</ele>
        <time>2019-09-01T14:56:07Z</time>
      </trkpt>
      <trkpt lat="42.843468" lon="-0.426322">
        <ele>2064.9</ele>
        <time>2019-09-01T14:56:14Z</time>
      </trkpt>
      <trkpt lat="42.843414" lon="-0.426418">
        <ele>2063.3</ele>
        <time>2019-09-01T14:56:20Z</time>
      </trkpt>
      <trkpt lat="42.843333" lon="-0.426494">
        <ele>2061.7</ele>
        <time>2019-09-01T14:56:28Z</time>
      </trkpt>
      <trkpt lat="42.843257" lon="-0.426568">
        <ele>2060.4</ele>
        <time>2019-09-01T14:56:35Z</time>
      </trkpt>
      <trkpt lat="42.843172" lon="-0.426656">
        <ele>2058.8</ele>
        <time>2019-09-01T14:56:43Z</time>
      </trkpt>
      <trkpt lat="42.843106" lon="-0.426755">
        <ele>2057.4</ele>
        <time>2019-09-01T14:56:50Z</time>
      </trkpt>
      <trkpt lat="42.843031" lon="-0.426838">
        <ele>2056.4</ele>
        <time>2019-09-01T14:56:57Z</time>
      </trkpt>
      <trkpt lat="42.842963" lon="-0.426934">
        <ele>2055.6</ele>
        <time>2019-09-01T14:57:04Z</time>
      </trkpt>
      <trkpt lat="42.842888" lon="-0.427016">
        <ele>2054.5</ele>
        <time>2019-09-01T14:57:11Z</time>
      </trkpt>
      <trkpt lat="42.842814" lon="-0.427120">
        <ele>2053.2</ele>
        <time>2019-09-01T14:57:19Z</time>
      </trkpt>
      <trkpt lat="42.842767" lon="-0.427221">
        <ele>2053.0</ele>
        <time>2019-09-01T14:57:26Z</time>
      </trkpt>
      <trkpt lat="42.842716" lon="-0.427333">
        <ele>2052.4</ele>
        <time>2019-09-01T14:57:33Z</time>
      </trkpt>
      <trkpt lat="42.842689" lon="-0.427454">
        <ele>2051.9</ele>
        <time>2019-09-01T14:57:40Z</time>
      </trkpt>
      <trkpt lat="42.842668" lon="-0.427568">
        <ele>2051.6</ele>
        <time>2019-09-01T14:57:47Z</time>
      </trkpt>
      <trkpt lat="42.842634" lon="-0.427711">
        <ele>2051.1</ele>
        <time>2019-09-01T14:57:54Z</time>
      </trkpt>
      <trkpt lat="42.842595" lon="-0.427851">
        <ele>2050.3</ele>
        <time>2019-09-01T14:58:01Z</time>
      </trkpt>
      <trkpt lat="42.842568" lon="-0.427969">
        <ele>2050.0</ele>
        <time>2019-09-01T14:58:08Z</time>
      </trkpt>
      <trkpt lat="42.842553" lon="-0.428089">
        <ele>2050.1</ele>
        <time>2019-09-01T14:58:15Z</time>
      </trkpt>
      <trkpt lat="42.842518" lon="-0.428208">
        <ele>2050.5</ele>
        <time>2019-09-01T14:58:22Z</time>
      </trkpt>
      <trkpt lat="42.842460" lon="-0.428314">
        <ele>2050.9</ele>
        <time>2019-09-01T14:58:29Z</time>
      </trkpt>
      <trkpt lat="42.842384" lon="-0.428394">
        <ele>2051.1</ele>
        <time>2019-09-01T14:58:39Z</time>
      </trkpt>
      <trkpt lat="42.842294" lon="-0.428491">
        <ele>2051.3</ele>
        <time>2019-09-01T14:58:50Z</time>
      </trkpt>
      <trkpt lat="42.842209" lon="-0.428567">
        <ele>2051.3</ele>
        <time>2019-09-01T14:59:03Z</time>
      </trkpt>
      <trkpt lat="42.842124" lon="-0.428609">
        <ele>2050.7</ele>
        <time>2019-09-01T14:59:17Z</time>
      </trkpt>
      <trkpt lat="42.842063" lon="-0.428707">
        <ele>2050.5</ele>
        <time>2019-09-01T14:59:28Z</time>
      </trkpt>
      <trkpt lat="42.842010" lon="-0.428812">
        <ele>2050.5</ele>
        <time>2019-09-01T14:59:38Z</time>
      </trkpt>
      <trkpt lat="42.841944" lon="-0.428881">
        <ele>2050.6</ele>
        <time>2019-09-01T14:59:49Z</time>
      </trkpt>
      <trkpt lat="42.841890" lon="-0.428967">
        <ele>2049.7</ele>
        <time>2019-09-01T15:00:00Z</time>
      </trkpt>
      <trkpt lat="42.841833" lon="-0.429061">
        <ele>2048.2</ele>
        <time>2019-09-01T15:00:12Z</time>
      </trkpt>
      <trkpt lat="42.841766" lon="-0.429141">
        <ele>2047.1</ele>
        <time>2019-09-01T15:00:24Z</time>
      </trkpt>
      <trkpt lat="42.841713" lon="-0.429244">
        <ele>2046.4</ele>
        <time>2019-09-01T15:00:35Z</time>
      </trkpt>
      <trkpt lat="42.841661" lon="-0.429336">
        <ele>2045.6</ele>
        <time>2019-09-01T15:00:48Z</time>
      </trkpt>
      <trkpt lat="42.841593" lon="-0.429427">
        <ele>2044.4</ele>
        <time>2019-09-01T15:01:02Z</time>
      </trkpt>
      <trkpt lat="42.841510" lon="-0.429494">
        <ele>2043.3</ele>
        <time>2019-09-01T15:01:15Z</time>
      </trkpt>
      <trkpt lat="42.841419" lon="-0.429552">
        <ele>2042.5</ele>
        <time>2019-09-01T15:01:23Z</time>
      </trkpt>
      <trkpt lat="42.841351" lon="-0.429632">
        <ele>2041.5</ele>
        <time>2019-09-01T15:01:31Z</time>
      </trkpt>
      <trkpt lat="42.841294" lon="-0.429722">
        <ele>2040.7</ele>
        <time>2019-09-01T15:01:38Z</time>
      </trkpt>
      <trkpt lat="42.841239" lon="-0.429805">
        <ele>2040.2</ele>
        <time>2019-09-01T15:01:45Z</time>
      </trkpt>
      <trkpt lat="42.841168" lon="-0.429876">
        <ele>2039.3</ele>
        <time>2019-09-01T15:01:53Z</time>
      </trkpt>
      <trkpt lat="42.841100" lon="-0.429980">
        <ele>2037.4</ele>
        <time>2019-09-01T15:02:01Z</time>
      </trkpt>
      <trkpt lat="42.841018" lon="-0.430067">
        <ele>2035.9</ele>
        <time>2019-09-01T15:02:08Z</time>
      </trkpt>
      <trkpt lat="42.840953" lon="-0.430176">
        <ele>2034.8</ele>
        <time>2019-09-01T15:02:17Z</time>
      </trkpt>
      <trkpt lat="42.840898" lon="-0.430237">
        <ele>2034.9</ele>
        <time>2019-09-01T15:02:27Z</time>
      </trkpt>
      <trkpt lat="42.840805" lon="-0.430283">
        <ele>2034.3</ele>
        <time>2019-09-01T15:02:40Z</time>
      </trkpt>
      <trkpt lat="42.840710" lon="-0.430337">
        <ele>2032.6</ele>
        <time>2019-09-01T15:02:54Z</time>
      </trkpt>
      <trkpt lat="42.840640" lon="-0.430408">
        <ele>2031.5</ele>
        <time>2019-09-01T15:03:06Z</time>
      </trkpt>
      <trkpt lat="42.840569" lon="-0.430500">
        <ele>2031.5</ele>
        <time>2019-09-01T15:03:20Z</time>
      </trkpt>
      <trkpt lat="42.840512" lon="-0.430597">
        <ele>2031.2</ele>
        <time>2019-09-01T15:03:30Z</time>
      </trkpt>
      <trkpt lat="42.840415" lon="-0.430650">
        <ele>2030.3</ele>
        <time>2019-09-01T15:03:39Z</time>
      </trkpt>
      <trkpt lat="42.840329" lon="-0.430681">
        <ele>2029.5</ele>
        <time>2019-09-01T15:03:46Z</time>
      </trkpt>
      <trkpt lat="42.840225" lon="-0.430715">
        <ele>2028.5</ele>
        <time>2019-09-01T15:03:54Z</time>
      </trkpt>
      <trkpt lat="42.840137" lon="-0.430758">
        <ele>2027.8</ele>
        <time>2019-09-01T15:04:03Z</time>
      </trkpt>
      <trkpt lat="42.840066" lon="-0.430840">
        <ele>2028.4</ele>
        <time>2019-09-01T15:04:12Z</time>
      </trkpt>
      <trkpt lat="42.839969" lon="-0.430837">
        <ele>2029.5</ele>
        <time>2019-09-01T15:04:20Z</time>
      </trkpt>
      <trkpt lat="42.839869" lon="-0.430876">
        <ele>2030.5</ele>
        <time>2019-09-01T15:04:30Z</time>
      </trkpt>
      <trkpt lat="42.839771" lon="-0.430832">
        <ele>2030.9</ele>
        <time>2019-09-01T15:04:40Z</time>
      </trkpt>
      <trkpt lat="42.839674" lon="-0.430814">
        <ele>2030.8</ele>
        <time>2019-09-01T15:04:51Z</time>
      </trkpt>
      <trkpt lat="42.839590" lon="-0.430825">
        <ele>2029.6</ele>
        <time>2019-09-01T15:04:59Z</time>
      </trkpt>
      <trkpt lat="42.839497" lon="-0.430794">
        <ele>2028.6</ele>
        <time>2019-09-01T15:05:07Z</time>
      </trkpt>
      <trkpt lat="42.839404" lon="-0.430757">
        <ele>2028.3</ele>
        <time>2019-09-01T15:05:17Z</time>
      </trkpt>
      <trkpt lat="42.839313" lon="-0.430725">
        <ele>2027.5</ele>
        <time>2019-09-01T15:05:29Z</time>
      </trkpt>
      <trkpt lat="42.839221" lon="-0.430677">
        <ele>2025.9</ele>
        <time>2019-09-01T15:05:39Z</time>
      </trkpt>
      <trkpt lat="42.839133" lon="-0.430610">
        <ele>2024.4</ele>
        <time>2019-09-01T15:05:47Z</time>
      </trkpt>
      <trkpt lat="42.839035" lon="-0.430587">
        <ele>2022.9</ele>
        <time>2019-09-01T15:05:56Z</time>
      </trkpt>
      <trkpt lat="42.838954" lon="-0.430508">
        <ele>2021.8</ele>
        <time>2019-09-01T15:06:05Z</time>
      </trkpt>
      <trkpt lat="42.838877" lon="-0.430484">
        <ele>2021.3</ele>
        <time>2019-09-01T15:06:17Z</time>
      </trkpt>
      <trkpt lat="42.838803" lon="-0.430473">
        <ele>2022.7</ele>
        <time>2019-09-01T15:06:32Z</time>
      </trkpt>
      <trkpt lat="42.838717" lon="-0.430414">
        <ele>2023.9</ele>
        <time>2019-09-01T15:06:44Z</time>
      </trkpt>
      <trkpt lat="42.838667" lon="-0.430315">
        <ele>2024.9</ele>
        <time>2019-09-01T15:06:56Z</time>
      </trkpt>
      <trkpt lat="42.838599" lon="-0.430284">
        <ele>2025.1</ele>
        <time>2019-09-01T15:07:08Z</time>
      </trkpt>
      <trkpt lat="42.838589" lon="-0.430168">
        <ele>2023.1</ele>
        <time>2019-09-01T15:07:24Z</time>
      </trkpt>
      <trkpt lat="42.838564" lon="-0.430063">
        <ele>2021.6</ele>
        <time>2019-09-01T15:07:34Z</time>
      </trkpt>
      <trkpt lat="42.838527" lon="-0.429976">
        <ele>2022.2</ele>
        <time>2019-09-01T15:07:50Z</time>
      </trkpt>
      <trkpt lat="42.838491" lon="-0.429881">
        <ele>2024.6</ele>
        <time>2019-09-01T15:08:07Z</time>
      </trkpt>
      <trkpt lat="42.838458" lon="-0.429765">
        <ele>2026.1</ele>
        <time>2019-09-01T15:08:19Z</time>
      </trkpt>
      <trkpt lat="42.838419" lon="-0.429645">
        <ele>2027.3</ele>
        <time>2019-09-01T15:08:30Z</time>
      </trkpt>
      <trkpt lat="42.838378" lon="-0.429543">
        <ele>2028.4</ele>
        <time>2019-09-01T15:08:42Z</time>
      </trkpt>
      <trkpt lat="42.838322" lon="-0.429467">
        <ele>2030.1</ele>
        <time>2019-09-01T15:08:59Z</time>
      </trkpt>
      <trkpt lat="42.838289" lon="-0.429354">
        <ele>2031.5</ele>
        <time>2019-09-01T15:09:13Z</time>
      </trkpt>
      <trkpt lat="42.838243" lon="-0.429242">
        <ele>2032.3</ele>
        <time>2019-09-01T15:09:24Z</time>
      </trkpt>
      <trkpt lat="42.838200" lon="-0.429123">
        <ele>2033.2</ele>
        <time>2019-09-01T15:09:35Z</time>
      </trkpt>
      <trkpt lat="42.838143" lon="-0.429025">
        <ele>2033.8</ele>
        <time>2019-09-01T15:09:46Z</time>
      </trkpt>
      <trkpt lat="42.838088" lon="-0.429010">
        <ele>2034.0</ele>
        <time>2019-09-01T15:10:03Z</time>
      </trkpt>
      <trkpt lat="42.838020" lon="-0.429077">
        <ele>2034.7</ele>
        <time>2019-09-01T15:10:16Z</time>
      </trkpt>
      <trkpt lat="42.837953" lon="-0.429148">
        <ele>2034.2</ele>
        <time>2019-09-01T15:10:30Z</time>
      </trkpt>
      <trkpt lat="42.837865" lon="-0.429185">
        <ele>2033.7</ele>
        <time>2019-09-01T15:10:42Z</time>
      </trkpt>
      <trkpt lat="42.837776" lon="-0.429186">
        <ele>2033.4</ele>
        <time>2019-09-01T15:10:53Z</time>
      </trkpt>
      <trkpt lat="42.837682" lon="-0.429168">
        <ele>2033.7</ele>
        <time>2019-09-01T15:11:05Z</time>
      </trkpt>
      <trkpt lat="42.837596" lon="-0.429171">
        <ele>2032.6</ele>
        <time>2019-09-01T15:11:17Z</time>
      </trkpt>
      <trkpt lat="42.837504" lon="-0.429177">
        <ele>2032.4</ele>
        <time>2019-09-01T15:11:30Z</time>
      </trkpt>
      <trkpt lat="42.837414" lon="-0.429197">
        <ele>2031.5</ele>
        <time>2019-09-01T15:11:43Z</time>
      </trkpt>
      <trkpt lat="42.837335" lon="-0.429244">
        <ele>2030.7</ele>
        <time>2019-09-01T15:11:55Z</time>
      </trkpt>
      <trkpt lat="42.837262" lon="-0.429310">
        <ele>2029.8</ele>
        <time>2019-09-01T15:12:08Z</time>
      </trkpt>
      <trkpt lat="42.837181" lon="-0.429221">
        <ele>2030.1</ele>
        <time>2019-09-01T15:12:20Z</time>
      </trkpt>
      <trkpt lat="42.837102" lon="-0.429158">
        <ele>2031.4</ele>
        <time>2019-09-01T15:12:35Z</time>
      </trkpt>
      <trkpt lat="42.837094" lon="-0.429037">
        <ele>2033.0</ele>
        <time>2019-09-01T15:12:50Z</time>
      </trkpt>
      <trkpt lat="42.837102" lon="-0.428896">
        <ele>2034.8</ele>
        <time>2019-09-01T15:13:06Z</time>
      </trkpt>
      <trkpt lat="42.837095" lon="-0.428779">
        <ele>2036.0</ele>
        <time>2019-09-01T15:13:19Z</time>
      </trkpt>
      <trkpt lat="42.837094" lon="-0.428663">
        <ele>2034.8</ele>
        <time>2019-09-01T15:13:33Z</time>
      </trkpt>
      <trkpt lat="42.837049" lon="-0.428554">
        <ele>2034.4</ele>
        <time>2019-09-01T15:13:46Z</time>
      </trkpt>
      <trkpt lat="42.836992" lon="-0.428455">
        <ele>2034.5</ele>
        <time>2019-09-01T15:13:59Z</time>
      </trkpt>
      <trkpt lat="42.836914" lon="-0.428402">
        <ele>2034.5</ele>
        <time>2019-09-01T15:14:10Z</time>
      </trkpt>
      <trkpt lat="42.836852" lon="-0.428320">
        <ele>2034.6</ele>
        <time>2019-09-01T15:14:22Z</time>
      </trkpt>
      <trkpt lat="42.836808" lon="-0.428201">
        <ele>2035.2</ele>
        <time>2019-09-01T15:14:34Z</time>
      </trkpt>
      <trkpt lat="42.836759" lon="-0.428110">
        <ele>2036.6</ele>
        <time>2019-09-01T15:14:49Z</time>
      </trkpt>
      <trkpt lat="42.836720" lon="-0.427999">
        <ele>2037.8</ele>
        <time>2019-09-01T15:15:01Z</time>
      </trkpt>
      <trkpt lat="42.836679" lon="-0.427874">
        <ele>2038.5</ele>
        <time>2019-09-01T15:15:12Z</time>
      </trkpt>
      <trkpt lat="42.836617" lon="-0.427840">
        <ele>2038.7</ele>
        <time>2019-09-01T15:15:31Z</time>
      </trkpt>
      <trkpt lat="42.836555" lon="-0.427921">
        <ele>2037.3</ele>
        <time>2019-09-01T15:15:42Z</time>
      </trkpt>
      <trkpt lat="42.836470" lon="-0.427966">
        <ele>2034.8</ele>
        <time>2019-09-01T15:15:52Z</time>
      </trkpt>
      <trkpt lat="42.836393" lon="-0.427910">
        <ele>2034.4</ele>
        <time>2019-09-01T15:16:00Z</time>
      </trkpt>
      <trkpt lat="42.836341" lon="-0.427788">
        <ele>2034.5</ele>
        <time>2019-09-01T15:16:07Z</time>
      </trkpt>
      <trkpt lat="42.836276" lon="-0.427701">
        <ele>2033.8</ele>
        <time>2019-09-01T15:16:14Z</time>
      </trkpt>
      <trkpt lat="42.836204" lon="-0.427624">
        <ele>2033.2</ele>
        <time>2019-09-01T15:16:22Z</time>
      </trkpt>
      <trkpt lat="42.836190" lon="-0.427493">
        <ele>2033.7</ele>
        <time>2019-09-01T15:16:30Z</time>
      </trkpt>
      <trkpt lat="42.836146" lon="-0.427377">
        <ele>2034.8</ele>
        <time>2019-09-01T15:16:38Z</time>
      </trkpt>
      <trkpt lat="42.836095" lon="-0.427272">
        <ele>2036.2</ele>
        <time>2019-09-01T15:16:47Z</time>
      </trkpt>
      <trkpt lat="42.836006" lon="-0.427234">
        <ele>2036.9</ele>
        <time>2019-09-01T15:16:55Z</time>
      </trkpt>
      <trkpt lat="42.835941" lon="-0.427148">
        <ele>2038.6</ele>
        <time>2019-09-01T15:17:05Z</time>
      </trkpt>
      <trkpt lat="42.835570" lon="-0.427049">
        <ele>2041.0</ele>
        <time>2019-09-01T15:39:11Z</time>
      </trkpt>
      <trkpt lat="42.835495" lon="-0.426961">
        <ele>2040.9</ele>
        <time>2019-09-01T15:39:42Z</time>
      </trkpt>
      <trkpt lat="42.835366" lon="-0.426901">
        <ele>2040.3</ele>
        <time>2019-09-01T16:02:21Z</time>
      </trkpt>
      <trkpt lat="42.835299" lon="-0.426941">
        <ele>2035.4</ele>
        <time>2019-09-01T16:14:57Z</time>
      </trkpt>
      <trkpt lat="42.835282" lon="-0.427048">
        <ele>2035.2</ele>
        <time>2019-09-01T16:15:08Z</time>
      </trkpt>
      <trkpt lat="42.835189" lon="-0.427076">
        <ele>2036.9</ele>
        <time>2019-09-01T16:15:19Z</time>
      </trkpt>
      <trkpt lat="42.835101" lon="-0.427090">
        <ele>2037.5</ele>
        <time>2019-09-01T16:15:27Z</time>
      </trkpt>
      <trkpt lat="42.835009" lon="-0.427121">
        <ele>2037.7</ele>
        <time>2019-09-01T16:15:36Z</time>
      </trkpt>
      <trkpt lat="42.834913" lon="-0.427164">
        <ele>2039.2</ele>
        <time>2019-09-01T16:15:46Z</time>
      </trkpt>
      <trkpt lat="42.834817" lon="-0.427206">
        <ele>2041.1</ele>
        <time>2019-09-01T16:15:56Z</time>
      </trkpt>
      <trkpt lat="42.834730" lon="-0.427191">
        <ele>2042.4</ele>
        <time>2019-09-01T16:16:04Z</time>
      </trkpt>
      <trkpt lat="42.834643" lon="-0.427192">
        <ele>2043.6</ele>
        <time>2019-09-01T16:16:13Z</time>
      </trkpt>
      <trkpt lat="42.834551" lon="-0.427171">
        <ele>2045.5</ele>
        <time>2019-09-01T16:16:23Z</time>
      </trkpt>
      <trkpt lat="42.834468" lon="-0.427207">
        <ele>2046.1</ele>
        <time>2019-09-01T16:16:30Z</time>
      </trkpt>
      <trkpt lat="42.834390" lon="-0.427263">
        <ele>2046.1</ele>
        <time>2019-09-01T16:16:37Z</time>
      </trkpt>
      <trkpt lat="42.834312" lon="-0.427326">
        <ele>2046.1</ele>
        <time>2019-09-01T16:16:44Z</time>
      </trkpt>
      <trkpt lat="42.834229" lon="-0.427397">
        <ele>2046.8</ele>
        <time>2019-09-01T16:16:52Z</time>
      </trkpt>
      <trkpt lat="42.834148" lon="-0.427451">
        <ele>2048.0</ele>
        <time>2019-09-01T16:17:00Z</time>
      </trkpt>
      <trkpt lat="42.834085" lon="-0.427555">
        <ele>2049.4</ele>
        <time>2019-09-01T16:17:09Z</time>
      </trkpt>
      <trkpt lat="42.834004" lon="-0.427539">
        <ele>2049.6</ele>
        <time>2019-09-01T16:17:17Z</time>
      </trkpt>
      <trkpt lat="42.833921" lon="-0.427501">
        <ele>2049.5</ele>
        <time>2019-09-01T16:17:24Z</time>
      </trkpt>
      <trkpt lat="42.833824" lon="-0.427547">
        <ele>2049.7</ele>
        <time>2019-09-01T16:17:31Z</time>
      </trkpt>
      <trkpt lat="42.833729" lon="-0.427581">
        <ele>2049.8</ele>
        <time>2019-09-01T16:17:38Z</time>
      </trkpt>
      <trkpt lat="42.833628" lon="-0.427562">
        <ele>2049.7</ele>
        <time>2019-09-01T16:17:45Z</time>
      </trkpt>
      <trkpt lat="42.833530" lon="-0.427522">
        <ele>2049.7</ele>
        <time>2019-09-01T16:17:52Z</time>
      </trkpt>
      <trkpt lat="42.833442" lon="-0.427461">
        <ele>2049.4</ele>
        <time>2019-09-01T16:17:59Z</time>
      </trkpt>
      <trkpt lat="42.833356" lon="-0.427400">
        <ele>2049.8</ele>
        <time>2019-09-01T16:18:07Z</time>
      </trkpt>
      <trkpt lat="42.833270" lon="-0.427331">
        <ele>2050.1</ele>
        <time>2019-09-01T16:18:14Z</time>
      </trkpt>
      <trkpt lat="42.833171" lon="-0.427306">
        <ele>2050.4</ele>
        <time>2019-09-01T16:18:21Z</time>
      </trkpt>
      <trkpt lat="42.833075" lon="-0.427273">
        <ele>2050.6</ele>
        <time>2019-09-01T16:18:28Z</time>
      </trkpt>
      <trkpt lat="42.832979" lon="-0.427260">
        <ele>2051.0</ele>
        <time>2019-09-01T16:18:35Z</time>
      </trkpt>
      <trkpt lat="42.832882" lon="-0.427269">
        <ele>2051.0</ele>
        <time>2019-09-01T16:18:42Z</time>
      </trkpt>
      <trkpt lat="42.832786" lon="-0.427275">
        <ele>2051.4</ele>
        <time>2019-09-01T16:18:49Z</time>
      </trkpt>
      <trkpt lat="42.832685" lon="-0.427281">
        <ele>2052.0</ele>
        <time>2019-09-01T16:18:56Z</time>
      </trkpt>
      <trkpt lat="42.832592" lon="-0.427280">
        <ele>2052.4</ele>
        <time>2019-09-01T16:19:03Z</time>
      </trkpt>
      <trkpt lat="42.832502" lon="-0.427290">
        <ele>2052.9</ele>
        <time>2019-09-01T16:19:10Z</time>
      </trkpt>
      <trkpt lat="42.832421" lon="-0.427248">
        <ele>2053.2</ele>
        <time>2019-09-01T16:19:18Z</time>
      </trkpt>
      <trkpt lat="42.832341" lon="-0.427214">
        <ele>2053.4</ele>
        <time>2019-09-01T16:19:25Z</time>
      </trkpt>
      <trkpt lat="42.832253" lon="-0.427229">
        <ele>2053.7</ele>
        <time>2019-09-01T16:19:32Z</time>
      </trkpt>
      <trkpt lat="42.832160" lon="-0.427247">
        <ele>2054.2</ele>
        <time>2019-09-01T16:19:39Z</time>
      </trkpt>
      <trkpt lat="42.832064" lon="-0.427267">
        <ele>2054.6</ele>
        <time>2019-09-01T16:19:46Z</time>
      </trkpt>
      <trkpt lat="42.831972" lon="-0.427278">
        <ele>2055.4</ele>
        <time>2019-09-01T16:19:55Z</time>
      </trkpt>
      <trkpt lat="42.831877" lon="-0.427246">
        <ele>2057.3</ele>
        <time>2019-09-01T16:20:08Z</time>
      </trkpt>
      <trkpt lat="42.831781" lon="-0.427217">
        <ele>2058.1</ele>
        <time>2019-09-01T16:20:16Z</time>
      </trkpt>
      <trkpt lat="42.831692" lon="-0.427196">
        <ele>2058.8</ele>
        <time>2019-09-01T16:20:25Z</time>
      </trkpt>
      <trkpt lat="42.831603" lon="-0.427117">
        <ele>2060.1</ele>
        <time>2019-09-01T16:20:34Z</time>
      </trkpt>
      <trkpt lat="42.831508" lon="-0.427057">
        <ele>2060.4</ele>
        <time>2019-09-01T16:20:42Z</time>
      </trkpt>
      <trkpt lat="42.831423" lon="-0.426993">
        <ele>2059.6</ele>
        <time>2019-09-01T16:20:52Z</time>
      </trkpt>
      <trkpt lat="42.831316" lon="-0.426932">
        <ele>2060.8</ele>
        <time>2019-09-01T16:21:03Z</time>
      </trkpt>
      <trkpt lat="42.831217" lon="-0.426890">
        <ele>2061.3</ele>
        <time>2019-09-01T16:21:11Z</time>
      </trkpt>
      <trkpt lat="42.831115" lon="-0.426875">
        <ele>2062.6</ele>
        <time>2019-09-01T16:21:21Z</time>
      </trkpt>
      <trkpt lat="42.831014" lon="-0.426891">
        <ele>2063.4</ele>
        <time>2019-09-01T16:21:28Z</time>
      </trkpt>
      <trkpt lat="42.830914" lon="-0.426899">
        <ele>2064.0</ele>
        <time>2019-09-01T16:21:36Z</time>
      </trkpt>
      <trkpt lat="42.830838" lon="-0.426817">
        <ele>2064.6</ele>
        <time>2019-09-01T16:21:44Z</time>
      </trkpt>
      <trkpt lat="42.830763" lon="-0.426768">
        <ele>2065.4</ele>
        <time>2019-09-01T16:21:52Z</time>
      </trkpt>
      <trkpt lat="42.830676" lon="-0.426797">
        <ele>2066.3</ele>
        <time>2019-09-01T16:22:01Z</time>
      </trkpt>
      <trkpt lat="42.830568" lon="-0.426829">
        <ele>2067.3</ele>
        <time>2019-09-01T16:22:09Z</time>
      </trkpt>
      <trkpt lat="42.830477" lon="-0.426880">
        <ele>2067.8</ele>
        <time>2019-09-01T16:22:16Z</time>
      </trkpt>
      <trkpt lat="42.830396" lon="-0.426814">
        <ele>2068.1</ele>
        <time>2019-09-01T16:22:24Z</time>
      </trkpt>
      <trkpt lat="42.830324" lon="-0.426751">
        <ele>2069.1</ele>
        <time>2019-09-01T16:22:32Z</time>
      </trkpt>
      <trkpt lat="42.830232" lon="-0.426753">
        <ele>2070.3</ele>
        <time>2019-09-01T16:22:40Z</time>
      </trkpt>
      <trkpt lat="42.830142" lon="-0.426750">
        <ele>2071.5</ele>
        <time>2019-09-01T16:22:48Z</time>
      </trkpt>
      <trkpt lat="42.830073" lon="-0.426674">
        <ele>2072.7</ele>
        <time>2019-09-01T16:22:56Z</time>
      </trkpt>
      <trkpt lat="42.829994" lon="-0.426600">
        <ele>2074.0</ele>
        <time>2019-09-01T16:23:04Z</time>
      </trkpt>
      <trkpt lat="42.829901" lon="-0.426597">
        <ele>2074.9</ele>
        <time>2019-09-01T16:23:11Z</time>
      </trkpt>
      <trkpt lat="42.829791" lon="-0.426634">
        <ele>2075.6</ele>
        <time>2019-09-01T16:23:19Z</time>
      </trkpt>
      <trkpt lat="42.829699" lon="-0.426706">
        <ele>2076.2</ele>
        <time>2019-09-01T16:23:27Z</time>
      </trkpt>
      <trkpt lat="42.829630" lon="-0.426809">
        <ele>2077.0</ele>
        <time>2019-09-01T16:23:35Z</time>
      </trkpt>
      <trkpt lat="42.829607" lon="-0.426930">
        <ele>2078.4</ele>
        <time>2019-09-01T16:23:43Z</time>
      </trkpt>
      <trkpt lat="42.829555" lon="-0.427031">
        <ele>2079.4</ele>
        <time>2019-09-01T16:23:50Z</time>
      </trkpt>
      <trkpt lat="42.829493" lon="-0.427137">
        <ele>2080.2</ele>
        <time>2019-09-01T16:23:58Z</time>
      </trkpt>
      <trkpt lat="42.829414" lon="-0.427218">
        <ele>2081.1</ele>
        <time>2019-09-01T16:24:06Z</time>
      </trkpt>
      <trkpt lat="42.829326" lon="-0.427296">
        <ele>2082.3</ele>
        <time>2019-09-01T16:24:15Z</time>
      </trkpt>
      <trkpt lat="42.829244" lon="-0.427384">
        <ele>2083.3</ele>
        <time>2019-09-01T16:24:23Z</time>
      </trkpt>
      <trkpt lat="42.829168" lon="-0.427469">
        <ele>2084.1</ele>
        <time>2019-09-01T16:24:32Z</time>
      </trkpt>
      <trkpt lat="42.829072" lon="-0.427460">
        <ele>2085.7</ele>
        <time>2019-09-01T16:24:43Z</time>
      </trkpt>
      <trkpt lat="42.829023" lon="-0.427344">
        <ele>2086.7</ele>
        <time>2019-09-01T16:24:51Z</time>
      </trkpt>
      <trkpt lat="42.828951" lon="-0.427337">
        <ele>2087.1</ele>
        <time>2019-09-01T16:25:01Z</time>
      </trkpt>
      <trkpt lat="42.828865" lon="-0.427396">
        <ele>2087.7</ele>
        <time>2019-09-01T16:25:08Z</time>
      </trkpt>
      <trkpt lat="42.828782" lon="-0.427449">
        <ele>2088.4</ele>
        <time>2019-09-01T16:25:15Z</time>
      </trkpt>
      <trkpt lat="42.828695" lon="-0.427454">
        <ele>2089.3</ele>
        <time>2019-09-01T16:25:22Z</time>
      </trkpt>
      <trkpt lat="42.828599" lon="-0.427438">
        <ele>2090.6</ele>
        <time>2019-09-01T16:25:30Z</time>
      </trkpt>
      <trkpt lat="42.828513" lon="-0.427410">
        <ele>2092.2</ele>
        <time>2019-09-01T16:25:39Z</time>
      </trkpt>
      <trkpt lat="42.828411" lon="-0.427396">
        <ele>2093.1</ele>
        <time>2019-09-01T16:25:47Z</time>
      </trkpt>
      <trkpt lat="42.828325" lon="-0.427420">
        <ele>2093.6</ele>
        <time>2019-09-01T16:25:54Z</time>
      </trkpt>
      <trkpt lat="42.828230" lon="-0.427485">
        <ele>2093.5</ele>
        <time>2019-09-01T16:26:02Z</time>
      </trkpt>
      <trkpt lat="42.828154" lon="-0.427458">
        <ele>2093.5</ele>
        <time>2019-09-01T16:26:11Z</time>
      </trkpt>
      <trkpt lat="42.828135" lon="-0.427329">
        <ele>2094.4</ele>
        <time>2019-09-01T16:26:19Z</time>
      </trkpt>
      <trkpt lat="42.828047" lon="-0.427246">
        <ele>2095.7</ele>
        <time>2019-09-01T16:26:27Z</time>
      </trkpt>
      <trkpt lat="42.827946" lon="-0.427242">
        <ele>2096.4</ele>
        <time>2019-09-01T16:26:34Z</time>
      </trkpt>
      <trkpt lat="42.827853" lon="-0.427256">
        <ele>2096.7</ele>
        <time>2019-09-01T16:26:41Z</time>
      </trkpt>
      <trkpt lat="42.827757" lon="-0.427234">
        <ele>2096.4</ele>
        <time>2019-09-01T16:26:48Z</time>
      </trkpt>
      <trkpt lat="42.827671" lon="-0.427153">
        <ele>2096.0</ele>
        <time>2019-09-01T16:26:56Z</time>
      </trkpt>
      <trkpt lat="42.827613" lon="-0.427042">
        <ele>2096.2</ele>
        <time>2019-09-01T16:27:04Z</time>
      </trkpt>
      <trkpt lat="42.827546" lon="-0.426944">
        <ele>2096.8</ele>
        <time>2019-09-01T16:27:11Z</time>
      </trkpt>
      <trkpt lat="42.827481" lon="-0.426842">
        <ele>2097.6</ele>
        <time>2019-09-01T16:27:19Z</time>
      </trkpt>
      <trkpt lat="42.827441" lon="-0.426718">
        <ele>2099.6</ele>
        <time>2019-09-01T16:27:29Z</time>
      </trkpt>
      <trkpt lat="42.827373" lon="-0.426635">
        <ele>2101.0</ele>
        <time>2019-09-01T16:27:37Z</time>
      </trkpt>
      <trkpt lat="42.827282" lon="-0.426600">
        <ele>2101.5</ele>
        <time>2019-09-01T16:27:44Z</time>
      </trkpt>
      <trkpt lat="42.827211" lon="-0.426492">
        <ele>2101.7</ele>
        <time>2019-09-01T16:27:52Z</time>
      </trkpt>
      <trkpt lat="42.827145" lon="-0.426402">
        <ele>2102.9</ele>
        <time>2019-09-01T16:28:00Z</time>
      </trkpt>
      <trkpt lat="42.827066" lon="-0.426338">
        <ele>2103.4</ele>
        <time>2019-09-01T16:28:07Z</time>
      </trkpt>
      <trkpt lat="42.826980" lon="-0.426262">
        <ele>2102.8</ele>
        <time>2019-09-01T16:28:15Z</time>
      </trkpt>
      <trkpt lat="42.826910" lon="-0.426169">
        <ele>2103.0</ele>
        <time>2019-09-01T16:28:22Z</time>
      </trkpt>
      <trkpt lat="42.826858" lon="-0.426070">
        <ele>2103.9</ele>
        <time>2019-09-01T16:28:29Z</time>
      </trkpt>
      <trkpt lat="42.826784" lon="-0.425997">
        <ele>2105.0</ele>
        <time>2019-09-01T16:28:37Z</time>
      </trkpt>
      <trkpt lat="42.826697" lon="-0.425935">
        <ele>2105.4</ele>
        <time>2019-09-01T16:28:44Z</time>
      </trkpt>
      <trkpt lat="42.826617" lon="-0.425870">
        <ele>2105.5</ele>
        <time>2019-09-01T16:28:51Z</time>
      </trkpt>
      <trkpt lat="42.826518" lon="-0.425800">
        <ele>2106.5</ele>
        <time>2019-09-01T16:29:01Z</time>
      </trkpt>
      <trkpt lat="42.826438" lon="-0.425751">
        <ele>2106.6</ele>
        <time>2019-09-01T16:29:09Z</time>
      </trkpt>
      <trkpt lat="42.826347" lon="-0.425707">
        <ele>2105.7</ele>
        <time>2019-09-01T16:29:17Z</time>
      </trkpt>
      <trkpt lat="42.826253" lon="-0.425671">
        <ele>2104.3</ele>
        <time>2019-09-01T16:29:25Z</time>
      </trkpt>
      <trkpt lat="42.826162" lon="-0.425717">
        <ele>2102.7</ele>
        <time>2019-09-01T16:29:34Z</time>
      </trkpt>
      <trkpt lat="42.826081" lon="-0.425714">
        <ele>2100.2</ele>
        <time>2019-09-01T16:29:43Z</time>
      </trkpt>
      <trkpt lat="42.826002" lon="-0.425794">
        <ele>2097.9</ele>
        <time>2019-09-01T16:29:51Z</time>
      </trkpt>
      <trkpt lat="42.825970" lon="-0.425925">
        <ele>2094.9</ele>
        <time>2019-09-01T16:30:00Z</time>
      </trkpt>
      <trkpt lat="42.825954" lon="-0.426062">
        <ele>2093.0</ele>
        <time>2019-09-01T16:30:08Z</time>
      </trkpt>
      <trkpt lat="42.825904" lon="-0.426173">
        <ele>2091.2</ele>
        <time>2019-09-01T16:30:16Z</time>
      </trkpt>
      <trkpt lat="42.825829" lon="-0.426203">
        <ele>2087.4</ele>
        <time>2019-09-01T16:30:35Z</time>
      </trkpt>
      <trkpt lat="42.825807" lon="-0.426200">
        <ele>2086.7</ele>
        <time>2019-09-01T16:31:56Z</time>
      </trkpt>
      <trkpt lat="42.825780" lon="-0.426255">
        <ele>2086.5</ele>
        <time>2019-09-01T16:34:03Z</time>
      </trkpt>
      <trkpt lat="42.825708" lon="-0.426325">
        <ele>2085.0</ele>
        <time>2019-09-01T16:34:12Z</time>
      </trkpt>
      <trkpt lat="42.825631" lon="-0.426345">
        <ele>2082.4</ele>
        <time>2019-09-01T16:34:20Z</time>
      </trkpt>
      <trkpt lat="42.825540" lon="-0.426358">
        <ele>2079.8</ele>
        <time>2019-09-01T16:34:30Z</time>
      </trkpt>
      <trkpt lat="42.825473" lon="-0.426285">
        <ele>2077.5</ele>
        <time>2019-09-01T16:34:39Z</time>
      </trkpt>
      <trkpt lat="42.825371" lon="-0.426265">
        <ele>2075.3</ele>
        <time>2019-09-01T16:34:48Z</time>
      </trkpt>
      <trkpt lat="42.825275" lon="-0.426327">
        <ele>2073.0</ele>
        <time>2019-09-01T16:34:56Z</time>
      </trkpt>
      <trkpt lat="42.825204" lon="-0.426416">
        <ele>2071.3</ele>
        <time>2019-09-01T16:35:04Z</time>
      </trkpt>
      <trkpt lat="42.825164" lon="-0.426530">
        <ele>2069.0</ele>
        <time>2019-09-01T16:35:12Z</time>
      </trkpt>
      <trkpt lat="42.825125" lon="-0.426651">
        <ele>2066.9</ele>
        <time>2019-09-01T16:35:20Z</time>
      </trkpt>
      <trkpt lat="42.825056" lon="-0.426751">
        <ele>2065.1</ele>
        <time>2019-09-01T16:35:28Z</time>
      </trkpt>
      <trkpt lat="42.825009" lon="-0.426863">
        <ele>2063.2</ele>
        <time>2019-09-01T16:35:36Z</time>
      </trkpt>
      <trkpt lat="42.824973" lon="-0.426973">
        <ele>2061.6</ele>
        <time>2019-09-01T16:35:44Z</time>
      </trkpt>
      <trkpt lat="42.824887" lon="-0.426987">
        <ele>2059.9</ele>
        <time>2019-09-01T16:35:52Z</time>
      </trkpt>
      <trkpt lat="42.824804" lon="-0.427016">
        <ele>2056.5</ele>
        <time>2019-09-01T16:36:00Z</time>
      </trkpt>
      <trkpt lat="42.824727" lon="-0.427050">
        <ele>2053.0</ele>
        <time>2019-09-01T16:36:09Z</time>
      </trkpt>
      <trkpt lat="42.824672" lon="-0.427124">
        <ele>2049.4</ele>
        <time>2019-09-01T16:36:19Z</time>
      </trkpt>
      <trkpt lat="42.824612" lon="-0.427221">
        <ele>2046.1</ele>
        <time>2019-09-01T16:36:28Z</time>
      </trkpt>
      <trkpt lat="42.824536" lon="-0.427278">
        <ele>2043.0</ele>
        <time>2019-09-01T16:36:37Z</time>
      </trkpt>
      <trkpt lat="42.824472" lon="-0.427384">
        <ele>2039.5</ele>
        <time>2019-09-01T16:36:46Z</time>
      </trkpt>
      <trkpt lat="42.824420" lon="-0.427480">
        <ele>2036.6</ele>
        <time>2019-09-01T16:36:54Z</time>
      </trkpt>
      <trkpt lat="42.824343" lon="-0.427557">
        <ele>2033.1</ele>
        <time>2019-09-01T16:37:04Z</time>
      </trkpt>
      <trkpt lat="42.824263" lon="-0.427645">
        <ele>2028.6</ele>
        <time>2019-09-01T16:37:15Z</time>
      </trkpt>
      <trkpt lat="42.824187" lon="-0.427708">
        <ele>2025.3</ele>
        <time>2019-09-01T16:37:24Z</time>
      </trkpt>
      <trkpt lat="42.824125" lon="-0.427791">
        <ele>2022.5</ele>
        <time>2019-09-01T16:37:34Z</time>
      </trkpt>
      <trkpt lat="42.824036" lon="-0.427851">
        <ele>2019.6</ele>
        <time>2019-09-01T16:38:11Z</time>
      </trkpt>
      <trkpt lat="42.823965" lon="-0.427959">
        <ele>2018.7</ele>
        <time>2019-09-01T16:38:19Z</time>
      </trkpt>
      <trkpt lat="42.823905" lon="-0.428057">
        <ele>2017.1</ele>
        <time>2019-09-01T16:38:27Z</time>
      </trkpt>
      <trkpt lat="42.823838" lon="-0.428156">
        <ele>2016.0</ele>
        <time>2019-09-01T16:38:35Z</time>
      </trkpt>
      <trkpt lat="42.823757" lon="-0.428218">
        <ele>2014.4</ele>
        <time>2019-09-01T16:38:42Z</time>
      </trkpt>
      <trkpt lat="42.823691" lon="-0.428314">
        <ele>2012.6</ele>
        <time>2019-09-01T16:38:50Z</time>
      </trkpt>
      <trkpt lat="42.823629" lon="-0.428403">
        <ele>2010.3</ele>
        <time>2019-09-01T16:39:03Z</time>
      </trkpt>
      <trkpt lat="42.823555" lon="-0.428496">
        <ele>2008.6</ele>
        <time>2019-09-01T16:39:12Z</time>
      </trkpt>
      <trkpt lat="42.823507" lon="-0.428610">
        <ele>2006.6</ele>
        <time>2019-09-01T16:39:21Z</time>
      </trkpt>
      <trkpt lat="42.823459" lon="-0.428746">
        <ele>2004.9</ele>
        <time>2019-09-01T16:39:30Z</time>
      </trkpt>
      <trkpt lat="42.823428" lon="-0.428868">
        <ele>2003.2</ele>
        <time>2019-09-01T16:39:38Z</time>
      </trkpt>
      <trkpt lat="42.823380" lon="-0.428977">
        <ele>2001.3</ele>
        <time>2019-09-01T16:39:46Z</time>
      </trkpt>
      <trkpt lat="42.823340" lon="-0.429085">
        <ele>1999.5</ele>
        <time>2019-09-01T16:39:54Z</time>
      </trkpt>
      <trkpt lat="42.823286" lon="-0.429091">
        <ele>1997.7</ele>
        <time>2019-09-01T16:40:03Z</time>
      </trkpt>
      <trkpt lat="42.823273" lon="-0.428960">
        <ele>1995.6</ele>
        <time>2019-09-01T16:40:11Z</time>
      </trkpt>
      <trkpt lat="42.823266" lon="-0.428853">
        <ele>1993.6</ele>
        <time>2019-09-01T16:40:19Z</time>
      </trkpt>
      <trkpt lat="42.823245" lon="-0.428711">
        <ele>1991.7</ele>
        <time>2019-09-01T16:40:27Z</time>
      </trkpt>
      <trkpt lat="42.823209" lon="-0.428601">
        <ele>1989.8</ele>
        <time>2019-09-01T16:40:34Z</time>
      </trkpt>
      <trkpt lat="42.823164" lon="-0.428484">
        <ele>1987.4</ele>
        <time>2019-09-01T16:40:42Z</time>
      </trkpt>
      <trkpt lat="42.823144" lon="-0.428357">
        <ele>1985.6</ele>
        <time>2019-09-01T16:40:50Z</time>
      </trkpt>
      <trkpt lat="42.823096" lon="-0.428224">
        <ele>1983.9</ele>
        <time>2019-09-01T16:40:59Z</time>
      </trkpt>
      <trkpt lat="42.823048" lon="-0.428104">
        <ele>1982.2</ele>
        <time>2019-09-01T16:41:07Z</time>
      </trkpt>
      <trkpt lat="42.823041" lon="-0.427973">
        <ele>1980.3</ele>
        <time>2019-09-01T16:41:15Z</time>
      </trkpt>
      <trkpt lat="42.823042" lon="-0.427839">
        <ele>1978.3</ele>
        <time>2019-09-01T16:41:24Z</time>
      </trkpt>
      <trkpt lat="42.823073" lon="-0.427713">
        <ele>1976.5</ele>
        <time>2019-09-01T16:41:33Z</time>
      </trkpt>
      <trkpt lat="42.823076" lon="-0.427560">
        <ele>1974.9</ele>
        <time>2019-09-01T16:41:42Z</time>
      </trkpt>
      <trkpt lat="42.823089" lon="-0.427426">
        <ele>1973.0</ele>
        <time>2019-09-01T16:41:49Z</time>
      </trkpt>
      <trkpt lat="42.823091" lon="-0.427290">
        <ele>1970.8</ele>
        <time>2019-09-01T16:41:56Z</time>
      </trkpt>
      <trkpt lat="42.823121" lon="-0.427148">
        <ele>1968.6</ele>
        <time>2019-09-01T16:42:04Z</time>
      </trkpt>
      <trkpt lat="42.823141" lon="-0.427030">
        <ele>1967.4</ele>
        <time>2019-09-01T16:42:11Z</time>
      </trkpt>
      <trkpt lat="42.823142" lon="-0.426909">
        <ele>1965.7</ele>
        <time>2019-09-01T16:42:18Z</time>
      </trkpt>
      <trkpt lat="42.823138" lon="-0.426770">
        <ele>1963.8</ele>
        <time>2019-09-01T16:42:25Z</time>
      </trkpt>
      <trkpt lat="42.823143" lon="-0.426641">
        <ele>1961.7</ele>
        <time>2019-09-01T16:42:32Z</time>
      </trkpt>
      <trkpt lat="42.823144" lon="-0.426517">
        <ele>1959.6</ele>
        <time>2019-09-01T16:42:39Z</time>
      </trkpt>
      <trkpt lat="42.823133" lon="-0.426376">
        <ele>1957.9</ele>
        <time>2019-09-01T16:42:47Z</time>
      </trkpt>
      <trkpt lat="42.823146" lon="-0.426240">
        <ele>1956.7</ele>
        <time>2019-09-01T16:42:54Z</time>
      </trkpt>
      <trkpt lat="42.823161" lon="-0.426107">
        <ele>1954.9</ele>
        <time>2019-09-01T16:43:02Z</time>
      </trkpt>
      <trkpt lat="42.823170" lon="-0.425973">
        <ele>1953.2</ele>
        <time>2019-09-01T16:43:09Z</time>
      </trkpt>
      <trkpt lat="42.823168" lon="-0.425859">
        <ele>1951.4</ele>
        <time>2019-09-01T16:43:18Z</time>
      </trkpt>
      <trkpt lat="42.823170" lon="-0.425742">
        <ele>1949.5</ele>
        <time>2019-09-01T16:43:29Z</time>
      </trkpt>
      <trkpt lat="42.823176" lon="-0.425636">
        <ele>1946.9</ele>
        <time>2019-09-01T16:43:39Z</time>
      </trkpt>
      <trkpt lat="42.823045" lon="-0.425686">
        <ele>1944.8</ele>
        <time>2019-09-01T16:43:48Z</time>
      </trkpt>
      <trkpt lat="42.822956" lon="-0.425749">
        <ele>1942.7</ele>
        <time>2019-09-01T16:43:58Z</time>
      </trkpt>
      <trkpt lat="42.822902" lon="-0.425848">
        <ele>1940.6</ele>
        <time>2019-09-01T16:44:10Z</time>
      </trkpt>
      <trkpt lat="42.822861" lon="-0.425961">
        <ele>1939.2</ele>
        <time>2019-09-01T16:44:19Z</time>
      </trkpt>
      <trkpt lat="42.822832" lon="-0.426083">
        <ele>1937.9</ele>
        <time>2019-09-01T16:44:28Z</time>
      </trkpt>
      <trkpt lat="42.822784" lon="-0.426191">
        <ele>1936.7</ele>
        <time>2019-09-01T16:44:36Z</time>
      </trkpt>
      <trkpt lat="42.822747" lon="-0.426305">
        <ele>1934.7</ele>
        <time>2019-09-01T16:44:44Z</time>
      </trkpt>
      <trkpt lat="42.822708" lon="-0.426426">
        <ele>1932.6</ele>
        <time>2019-09-01T16:44:54Z</time>
      </trkpt>
      <trkpt lat="42.822676" lon="-0.426554">
        <ele>1930.9</ele>
        <time>2019-09-01T16:45:02Z</time>
      </trkpt>
      <trkpt lat="42.822634" lon="-0.426683">
        <ele>1929.2</ele>
        <time>2019-09-01T16:45:10Z</time>
      </trkpt>
      <trkpt lat="42.822581" lon="-0.426790">
        <ele>1927.8</ele>
        <time>2019-09-01T16:45:17Z</time>
      </trkpt>
      <trkpt lat="42.822516" lon="-0.426873">
        <ele>1926.3</ele>
        <time>2019-09-01T16:45:25Z</time>
      </trkpt>
      <trkpt lat="42.822471" lon="-0.426984">
        <ele>1924.7</ele>
        <time>2019-09-01T16:45:33Z</time>
      </trkpt>
      <trkpt lat="42.822414" lon="-0.427081">
        <ele>1922.5</ele>
        <time>2019-09-01T16:45:42Z</time>
      </trkpt>
      <trkpt lat="42.822337" lon="-0.427143">
        <ele>1920.1</ele>
        <time>2019-09-01T16:45:50Z</time>
      </trkpt>
      <trkpt lat="42.822287" lon="-0.427259">
        <ele>1917.3</ele>
        <time>2019-09-01T16:45:59Z</time>
      </trkpt>
      <trkpt lat="42.822219" lon="-0.427349">
        <ele>1914.6</ele>
        <time>2019-09-01T16:46:08Z</time>
      </trkpt>
      <trkpt lat="42.822161" lon="-0.427442">
        <ele>1912.1</ele>
        <time>2019-09-01T16:46:16Z</time>
      </trkpt>
      <trkpt lat="42.822093" lon="-0.427548">
        <ele>1909.1</ele>
        <time>2019-09-01T16:46:25Z</time>
      </trkpt>
      <trkpt lat="42.822027" lon="-0.427636">
        <ele>1906.3</ele>
        <time>2019-09-01T16:46:33Z</time>
      </trkpt>
      <trkpt lat="42.821971" lon="-0.427745">
        <ele>1904.2</ele>
        <time>2019-09-01T16:46:41Z</time>
      </trkpt>
      <trkpt lat="42.821901" lon="-0.427824">
        <ele>1902.4</ele>
        <time>2019-09-01T16:46:48Z</time>
      </trkpt>
      <trkpt lat="42.821817" lon="-0.427907">
        <ele>1900.4</ele>
        <time>2019-09-01T16:46:56Z</time>
      </trkpt>
      <trkpt lat="42.821733" lon="-0.427955">
        <ele>1899.6</ele>
        <time>2019-09-01T16:47:03Z</time>
      </trkpt>
      <trkpt lat="42.821652" lon="-0.428029">
        <ele>1898.0</ele>
        <time>2019-09-01T16:47:16Z</time>
      </trkpt>
      <trkpt lat="42.821584" lon="-0.427995">
        <ele>1894.8</ele>
        <time>2019-09-01T16:47:30Z</time>
      </trkpt>
      <trkpt lat="42.821493" lon="-0.427914">
        <ele>1892.6</ele>
        <time>2019-09-01T16:47:41Z</time>
      </trkpt>
      <trkpt lat="42.821417" lon="-0.427820">
        <ele>1889.7</ele>
        <time>2019-09-01T16:47:50Z</time>
      </trkpt>
      <trkpt lat="42.821332" lon="-0.427743">
        <ele>1888.2</ele>
        <time>2019-09-01T16:47:58Z</time>
      </trkpt>
      <trkpt lat="42.821251" lon="-0.427662">
        <ele>1886.9</ele>
        <time>2019-09-01T16:48:06Z</time>
      </trkpt>
      <trkpt lat="42.821171" lon="-0.427595">
        <ele>1885.2</ele>
        <time>2019-09-01T16:48:14Z</time>
      </trkpt>
      <trkpt lat="42.821084" lon="-0.427529">
        <ele>1883.6</ele>
        <time>2019-09-01T16:48:22Z</time>
      </trkpt>
      <trkpt lat="42.821021" lon="-0.427446">
        <ele>1881.7</ele>
        <time>2019-09-01T16:48:30Z</time>
      </trkpt>
      <trkpt lat="42.820950" lon="-0.427371">
        <ele>1879.2</ele>
        <time>2019-09-01T16:48:39Z</time>
      </trkpt>
      <trkpt lat="42.820883" lon="-0.427292">
        <ele>1876.9</ele>
        <time>2019-09-01T16:48:48Z</time>
      </trkpt>
      <trkpt lat="42.820799" lon="-0.427210">
        <ele>1874.6</ele>
        <time>2019-09-01T16:48:57Z</time>
      </trkpt>
      <trkpt lat="42.820727" lon="-0.427144">
        <ele>1871.9</ele>
        <time>2019-09-01T16:49:05Z</time>
      </trkpt>
      <trkpt lat="42.820665" lon="-0.427064">
        <ele>1869.4</ele>
        <time>2019-09-01T16:49:13Z</time>
      </trkpt>
      <trkpt lat="42.820574" lon="-0.426984">
        <ele>1867.5</ele>
        <time>2019-09-01T16:49:21Z</time>
      </trkpt>
      <trkpt lat="42.820487" lon="-0.426908">
        <ele>1865.9</ele>
        <time>2019-09-01T16:49:29Z</time>
      </trkpt>
      <trkpt lat="42.820404" lon="-0.426829">
        <ele>1864.4</ele>
        <time>2019-09-01T16:49:37Z</time>
      </trkpt>
      <trkpt lat="42.820332" lon="-0.426741">
        <ele>1862.2</ele>
        <time>2019-09-01T16:49:50Z</time>
      </trkpt>
      <trkpt lat="42.820288" lon="-0.426637">
        <ele>1861.0</ele>
        <time>2019-09-01T16:49:59Z</time>
      </trkpt>
      <trkpt lat="42.820240" lon="-0.426550">
        <ele>1858.8</ele>
        <time>2019-09-01T16:50:07Z</time>
      </trkpt>
      <trkpt lat="42.820185" lon="-0.426415">
        <ele>1855.8</ele>
        <time>2019-09-01T16:50:16Z</time>
      </trkpt>
      <trkpt lat="42.820191" lon="-0.426290">
        <ele>1852.9</ele>
        <time>2019-09-01T16:50:24Z</time>
      </trkpt>
      <trkpt lat="42.820193" lon="-0.426172">
        <ele>1850.5</ele>
        <time>2019-09-01T16:50:33Z</time>
      </trkpt>
      <trkpt lat="42.820129" lon="-0.426057">
        <ele>1848.3</ele>
        <time>2019-09-01T16:50:40Z</time>
      </trkpt>
      <trkpt lat="42.820066" lon="-0.425958">
        <ele>1845.7</ele>
        <time>2019-09-01T16:50:49Z</time>
      </trkpt>
      <trkpt lat="42.820052" lon="-0.425830">
        <ele>1843.8</ele>
        <time>2019-09-01T16:50:58Z</time>
      </trkpt>
      <trkpt lat="42.820008" lon="-0.425727">
        <ele>1841.3</ele>
        <time>2019-09-01T16:51:07Z</time>
      </trkpt>
      <trkpt lat="42.819918" lon="-0.425627">
        <ele>1838.9</ele>
        <time>2019-09-01T16:51:17Z</time>
      </trkpt>
      <trkpt lat="42.819846" lon="-0.425538">
        <ele>1837.1</ele>
        <time>2019-09-01T16:51:26Z</time>
      </trkpt>
      <trkpt lat="42.819840" lon="-0.425410">
        <ele>1833.8</ele>
        <time>2019-09-01T16:51:46Z</time>
      </trkpt>
      <trkpt lat="42.819788" lon="-0.425320">
        <ele>1832.6</ele>
        <time>2019-09-01T16:51:52Z</time>
      </trkpt>
      <trkpt lat="42.819712" lon="-0.425291">
        <ele>1829.2</ele>
        <time>2019-09-01T16:52:08Z</time>
      </trkpt>
      <trkpt lat="42.819590" lon="-0.425313">
        <ele>1827.5</ele>
        <time>2019-09-01T16:52:17Z</time>
      </trkpt>
      <trkpt lat="42.819484" lon="-0.425316">
        <ele>1825.3</ele>
        <time>2019-09-01T16:52:26Z</time>
      </trkpt>
      <trkpt lat="42.819397" lon="-0.425282">
        <ele>1823.2</ele>
        <time>2019-09-01T16:52:35Z</time>
      </trkpt>
      <trkpt lat="42.819328" lon="-0.425199">
        <ele>1820.5</ele>
        <time>2019-09-01T16:52:43Z</time>
      </trkpt>
      <trkpt lat="42.819283" lon="-0.425073">
        <ele>1818.1</ele>
        <time>2019-09-01T16:52:50Z</time>
      </trkpt>
      <trkpt lat="42.819243" lon="-0.424964">
        <ele>1816.9</ele>
        <time>2019-09-01T16:52:56Z</time>
      </trkpt>
      <trkpt lat="42.819199" lon="-0.424847">
        <ele>1816.4</ele>
        <time>2019-09-01T16:53:03Z</time>
      </trkpt>
      <trkpt lat="42.819177" lon="-0.424710">
        <ele>1815.9</ele>
        <time>2019-09-01T16:53:11Z</time>
      </trkpt>
      <trkpt lat="42.819160" lon="-0.424563">
        <ele>1816.1</ele>
        <time>2019-09-01T16:53:20Z</time>
      </trkpt>
      <trkpt lat="42.819125" lon="-0.424430">
        <ele>1815.6</ele>
        <time>2019-09-01T16:53:26Z</time>
      </trkpt>
      <trkpt lat="42.819104" lon="-0.424304">
        <ele>1814.1</ele>
        <time>2019-09-01T16:53:34Z</time>
      </trkpt>
      <trkpt lat="42.819129" lon="-0.424189">
        <ele>1812.7</ele>
        <time>2019-09-01T16:53:41Z</time>
      </trkpt>
      <trkpt lat="42.819141" lon="-0.424075">
        <ele>1811.2</ele>
        <time>2019-09-01T16:53:47Z</time>
      </trkpt>
      <trkpt lat="42.819090" lon="-0.423966">
        <ele>1810.0</ele>
        <time>2019-09-01T16:53:55Z</time>
      </trkpt>
      <trkpt lat="42.819002" lon="-0.423906">
        <ele>1809.5</ele>
        <time>2019-09-01T16:54:03Z</time>
      </trkpt>
      <trkpt lat="42.818914" lon="-0.423872">
        <ele>1808.2</ele>
        <time>2019-09-01T16:54:12Z</time>
      </trkpt>
      <trkpt lat="42.818822" lon="-0.423929">
        <ele>1806.4</ele>
        <time>2019-09-01T16:54:22Z</time>
      </trkpt>
      <trkpt lat="42.818715" lon="-0.423971">
        <ele>1804.6</ele>
        <time>2019-09-01T16:54:31Z</time>
      </trkpt>
      <trkpt lat="42.818625" lon="-0.424013">
        <ele>1803.2</ele>
        <time>2019-09-01T16:54:39Z</time>
      </trkpt>
      <trkpt lat="42.818538" lon="-0.424064">
        <ele>1801.2</ele>
        <time>2019-09-01T16:54:48Z</time>
      </trkpt>
      <trkpt lat="42.818444" lon="-0.424087">
        <ele>1798.9</ele>
        <time>2019-09-01T16:54:57Z</time>
      </trkpt>
      <trkpt lat="42.818355" lon="-0.424054">
        <ele>1796.5</ele>
        <time>2019-09-01T16:55:06Z</time>
      </trkpt>
      <trkpt lat="42.818273" lon="-0.424014">
        <ele>1794.6</ele>
        <time>2019-09-01T16:55:15Z</time>
      </trkpt>
      <trkpt lat="42.818188" lon="-0.423955">
        <ele>1793.1</ele>
        <time>2019-09-01T16:55:24Z</time>
      </trkpt>
      <trkpt lat="42.818104" lon="-0.423893">
        <ele>1790.1</ele>
        <time>2019-09-01T16:55:33Z</time>
      </trkpt>
      <trkpt lat="42.818019" lon="-0.423825">
        <ele>1787.5</ele>
        <time>2019-09-01T16:55:42Z</time>
      </trkpt>
      <trkpt lat="42.817941" lon="-0.423759">
        <ele>1785.4</ele>
        <time>2019-09-01T16:55:50Z</time>
      </trkpt>
      <trkpt lat="42.817874" lon="-0.423668">
        <ele>1783.4</ele>
        <time>2019-09-01T16:55:58Z</time>
      </trkpt>
      <trkpt lat="42.817826" lon="-0.423558">
        <ele>1781.8</ele>
        <time>2019-09-01T16:56:06Z</time>
      </trkpt>
      <trkpt lat="42.817762" lon="-0.423452">
        <ele>1780.1</ele>
        <time>2019-09-01T16:56:15Z</time>
      </trkpt>
      <trkpt lat="42.817702" lon="-0.423345">
        <ele>1779.2</ele>
        <time>2019-09-01T16:56:23Z</time>
      </trkpt>
      <trkpt lat="42.817631" lon="-0.423245">
        <ele>1777.9</ele>
        <time>2019-09-01T16:56:31Z</time>
      </trkpt>
      <trkpt lat="42.817579" lon="-0.423153">
        <ele>1776.4</ele>
        <time>2019-09-01T16:56:38Z</time>
      </trkpt>
      <trkpt lat="42.817519" lon="-0.423045">
        <ele>1775.2</ele>
        <time>2019-09-01T16:56:46Z</time>
      </trkpt>
      <trkpt lat="42.817472" lon="-0.422943">
        <ele>1774.5</ele>
        <time>2019-09-01T16:56:53Z</time>
      </trkpt>
      <trkpt lat="42.817401" lon="-0.422844">
        <ele>1773.5</ele>
        <time>2019-09-01T16:57:01Z</time>
      </trkpt>
      <trkpt lat="42.817323" lon="-0.422760">
        <ele>1772.3</ele>
        <time>2019-09-01T16:57:08Z</time>
      </trkpt>
      <trkpt lat="42.817274" lon="-0.422663">
        <ele>1771.9</ele>
        <time>2019-09-01T16:57:15Z</time>
      </trkpt>
      <trkpt lat="42.817207" lon="-0.422564">
        <ele>1770.2</ele>
        <time>2019-09-01T16:57:23Z</time>
      </trkpt>
      <trkpt lat="42.817142" lon="-0.422467">
        <ele>1768.9</ele>
        <time>2019-09-01T16:57:30Z</time>
      </trkpt>
      <trkpt lat="42.817069" lon="-0.422386">
        <ele>1767.5</ele>
        <time>2019-09-01T16:57:37Z</time>
      </trkpt>
      <trkpt lat="42.816996" lon="-0.422293">
        <ele>1766.3</ele>
        <time>2019-09-01T16:57:45Z</time>
      </trkpt>
      <trkpt lat="42.816921" lon="-0.422223">
        <ele>1765.2</ele>
        <time>2019-09-01T16:57:52Z</time>
      </trkpt>
      <trkpt lat="42.816832" lon="-0.422159">
        <ele>1763.8</ele>
        <time>2019-09-01T16:58:00Z</time>
      </trkpt>
      <trkpt lat="42.816726" lon="-0.422132">
        <ele>1762.2</ele>
        <time>2019-09-01T16:58:08Z</time>
      </trkpt>
      <trkpt lat="42.816628" lon="-0.422116">
        <ele>1760.3</ele>
        <time>2019-09-01T16:58:16Z</time>
      </trkpt>
      <trkpt lat="42.816534" lon="-0.422101">
        <ele>1758.6</ele>
        <time>2019-09-01T16:58:23Z</time>
      </trkpt>
      <trkpt lat="42.816440" lon="-0.422080">
        <ele>1756.7</ele>
        <time>2019-09-01T16:58:31Z</time>
      </trkpt>
      <trkpt lat="42.816357" lon="-0.422066">
        <ele>1755.1</ele>
        <time>2019-09-01T16:58:38Z</time>
      </trkpt>
      <trkpt lat="42.816271" lon="-0.422020">
        <ele>1753.5</ele>
        <time>2019-09-01T16:58:46Z</time>
      </trkpt>
      <trkpt lat="42.816174" lon="-0.421987">
        <ele>1751.9</ele>
        <time>2019-09-01T16:58:53Z</time>
      </trkpt>
      <trkpt lat="42.816080" lon="-0.421987">
        <ele>1750.8</ele>
        <time>2019-09-01T16:59:01Z</time>
      </trkpt>
      <trkpt lat="42.815999" lon="-0.421961">
        <ele>1750.1</ele>
        <time>2019-09-01T16:59:12Z</time>
      </trkpt>
      <trkpt lat="42.815908" lon="-0.421930">
        <ele>1749.1</ele>
        <time>2019-09-01T16:59:24Z</time>
      </trkpt>
      <trkpt lat="42.815810" lon="-0.421918">
        <ele>1748.8</ele>
        <time>2019-09-01T16:59:31Z</time>
      </trkpt>
      <trkpt lat="42.815759" lon="-0.421872">
        <ele>1748.1</ele>
        <time>2019-09-01T16:59:40Z</time>
      </trkpt>
      <trkpt lat="42.815635" lon="-0.421807">
        <ele>1745.6</ele>
        <time>2019-09-01T16:59:48Z</time>
      </trkpt>
      <trkpt lat="42.815526" lon="-0.421759">
        <ele>1744.4</ele>
        <time>2019-09-01T16:59:56Z</time>
      </trkpt>
      <trkpt lat="42.815425" lon="-0.421725">
        <ele>1743.4</ele>
        <time>2019-09-01T17:00:04Z</time>
      </trkpt>
      <trkpt lat="42.815322" lon="-0.421666">
        <ele>1741.7</ele>
        <time>2019-09-01T17:00:12Z</time>
      </trkpt>
      <trkpt lat="42.815237" lon="-0.421603">
        <ele>1740.3</ele>
        <time>2019-09-01T17:00:19Z</time>
      </trkpt>
      <trkpt lat="42.815189" lon="-0.421497">
        <ele>1739.1</ele>
        <time>2019-09-01T17:00:26Z</time>
      </trkpt>
      <trkpt lat="42.815148" lon="-0.421395">
        <ele>1738.8</ele>
        <time>2019-09-01T17:00:34Z</time>
      </trkpt>
      <trkpt lat="42.815080" lon="-0.421313">
        <ele>1737.3</ele>
        <time>2019-09-01T17:00:44Z</time>
      </trkpt>
      <trkpt lat="42.814991" lon="-0.421291">
        <ele>1736.4</ele>
        <time>2019-09-01T17:00:54Z</time>
      </trkpt>
      <trkpt lat="42.814904" lon="-0.421354">
        <ele>1735.0</ele>
        <time>2019-09-01T17:01:05Z</time>
      </trkpt>
      <trkpt lat="42.814835" lon="-0.421447">
        <ele>1733.6</ele>
        <time>2019-09-01T17:01:13Z</time>
      </trkpt>
      <trkpt lat="42.814783" lon="-0.421563">
        <ele>1731.7</ele>
        <time>2019-09-01T17:01:21Z</time>
      </trkpt>
      <trkpt lat="42.814730" lon="-0.421662">
        <ele>1729.5</ele>
        <time>2019-09-01T17:01:28Z</time>
      </trkpt>
      <trkpt lat="42.814671" lon="-0.421614">
        <ele>1727.1</ele>
        <time>2019-09-01T17:01:35Z</time>
      </trkpt>
      <trkpt lat="42.814628" lon="-0.421502">
        <ele>1724.8</ele>
        <time>2019-09-01T17:01:43Z</time>
      </trkpt>
      <trkpt lat="42.814581" lon="-0.421386">
        <ele>1722.9</ele>
        <time>2019-09-01T17:01:51Z</time>
      </trkpt>
      <trkpt lat="42.814528" lon="-0.421276">
        <ele>1721.2</ele>
        <time>2019-09-01T17:02:00Z</time>
      </trkpt>
      <trkpt lat="42.814422" lon="-0.421287">
        <ele>1721.3</ele>
        <time>2019-09-01T17:02:08Z</time>
      </trkpt>
      <trkpt lat="42.814315" lon="-0.421295">
        <ele>1721.6</ele>
        <time>2019-09-01T17:02:16Z</time>
      </trkpt>
      <trkpt lat="42.814230" lon="-0.421283">
        <ele>1721.3</ele>
        <time>2019-09-01T17:02:25Z</time>
      </trkpt>
      <trkpt lat="42.814169" lon="-0.421186">
        <ele>1720.9</ele>
        <time>2019-09-01T17:02:33Z</time>
      </trkpt>
      <trkpt lat="42.814074" lon="-0.421178">
        <ele>1721.3</ele>
        <time>2019-09-01T17:02:42Z</time>
      </trkpt>
      <trkpt lat="42.813977" lon="-0.421138">
        <ele>1720.7</ele>
        <time>2019-09-01T17:02:49Z</time>
      </trkpt>
      <trkpt lat="42.813874" lon="-0.421079">
        <ele>1720.8</ele>
        <time>2019-09-01T17:02:57Z</time>
      </trkpt>
      <trkpt lat="42.813792" lon="-0.420987">
        <ele>1721.3</ele>
        <time>2019-09-01T17:03:04Z</time>
      </trkpt>
      <trkpt lat="42.813721" lon="-0.420903">
        <ele>1721.3</ele>
        <time>2019-09-01T17:03:11Z</time>
      </trkpt>
      <trkpt lat="42.813640" lon="-0.420816">
        <ele>1721.4</ele>
        <time>2019-09-01T17:03:19Z</time>
      </trkpt>
      <trkpt lat="42.813576" lon="-0.420733">
        <ele>1721.6</ele>
        <time>2019-09-01T17:03:26Z</time>
      </trkpt>
      <trkpt lat="42.813560" lon="-0.420602">
        <ele>1721.7</ele>
        <time>2019-09-01T17:03:34Z</time>
      </trkpt>
      <trkpt lat="42.813611" lon="-0.420489">
        <ele>1721.7</ele>
        <time>2019-09-01T17:03:42Z</time>
      </trkpt>
      <trkpt lat="42.813696" lon="-0.420430">
        <ele>1721.9</ele>
        <time>2019-09-01T17:03:50Z</time>
      </trkpt>
      <trkpt lat="42.813773" lon="-0.420366">
        <ele>1722.5</ele>
        <time>2019-09-01T17:03:57Z</time>
      </trkpt>
      <trkpt lat="42.813851" lon="-0.420301">
        <ele>1722.4</ele>
        <time>2019-09-01T17:04:05Z</time>
      </trkpt>
      <trkpt lat="42.813938" lon="-0.420229">
        <ele>1721.9</ele>
        <time>2019-09-01T17:04:13Z</time>
      </trkpt>
      <trkpt lat="42.814008" lon="-0.420162">
        <ele>1721.2</ele>
        <time>2019-09-01T17:04:21Z</time>
      </trkpt>
      <trkpt lat="42.814065" lon="-0.420061">
        <ele>1720.6</ele>
        <time>2019-09-01T17:04:29Z</time>
      </trkpt>
      <trkpt lat="42.814103" lon="-0.419945">
        <ele>1719.7</ele>
        <time>2019-09-01T17:04:37Z</time>
      </trkpt>
      <trkpt lat="42.814158" lon="-0.419850">
        <ele>1719.8</ele>
        <time>2019-09-01T17:04:45Z</time>
      </trkpt>
      <trkpt lat="42.814211" lon="-0.419713">
        <ele>1720.2</ele>
        <time>2019-09-01T17:04:54Z</time>
      </trkpt>
      <trkpt lat="42.814258" lon="-0.419604">
        <ele>1720.2</ele>
        <time>2019-09-01T17:05:01Z</time>
      </trkpt>
      <trkpt lat="42.814311" lon="-0.419502">
        <ele>1720.2</ele>
        <time>2019-09-01T17:05:09Z</time>
      </trkpt>
      <trkpt lat="42.814302" lon="-0.419373">
        <ele>1720.3</ele>
        <time>2019-09-01T17:05:18Z</time>
      </trkpt>
      <trkpt lat="42.814263" lon="-0.419253">
        <ele>1720.4</ele>
        <time>2019-09-01T17:05:27Z</time>
      </trkpt>
      <trkpt lat="42.814232" lon="-0.419094">
        <ele>1722.0</ele>
        <time>2019-09-01T17:05:37Z</time>
      </trkpt>
      <trkpt lat="42.814230" lon="-0.418972">
        <ele>1723.2</ele>
        <time>2019-09-01T17:05:46Z</time>
      </trkpt>
      <trkpt lat="42.814246" lon="-0.418844">
        <ele>1724.1</ele>
        <time>2019-09-01T17:05:55Z</time>
      </trkpt>
      <trkpt lat="42.814312" lon="-0.418746">
        <ele>1725.3</ele>
        <time>2019-09-01T17:06:04Z</time>
      </trkpt>
      <trkpt lat="42.814381" lon="-0.418671">
        <ele>1725.6</ele>
        <time>2019-09-01T17:06:12Z</time>
      </trkpt>
      <trkpt lat="42.814454" lon="-0.418585">
        <ele>1725.6</ele>
        <time>2019-09-01T17:06:20Z</time>
      </trkpt>
      <trkpt lat="42.814514" lon="-0.418497">
        <ele>1725.8</ele>
        <time>2019-09-01T17:06:28Z</time>
      </trkpt>
      <trkpt lat="42.814600" lon="-0.418428">
        <ele>1726.2</ele>
        <time>2019-09-01T17:06:39Z</time>
      </trkpt>
      <trkpt lat="42.814556" lon="-0.418322">
        <ele>1728.1</ele>
        <time>2019-09-01T17:06:52Z</time>
      </trkpt>
      <trkpt lat="42.814618" lon="-0.418235">
        <ele>1730.8</ele>
        <time>2019-09-01T17:07:04Z</time>
      </trkpt>
      <trkpt lat="42.814692" lon="-0.418167">
        <ele>1734.1</ele>
        <time>2019-09-01T17:07:19Z</time>
      </trkpt>
      <trkpt lat="42.814757" lon="-0.418098">
        <ele>1734.6</ele>
        <time>2019-09-01T17:07:29Z</time>
      </trkpt>
    </trkseg>
  </trk>
</gpx>

